[[{"header":{"parameterUnit":"m.s-1","parameterCategory":1,"la1":30.6,"la2":29.2853,"lo1":-89.7004,"lo2":-87.6739,"dy":0.0162,"dx":0.0183,"nx":112,"ny":82,"refTime":"2026-02-27T00:00:00:Z","depth":0,"parameterNumber":2,"parameterNumberName":"U-component_of_WINDS"},"data":[0.0,0.0,0.0,0.0,0.0,0.0,0.0,0.0,0.0,0.0,0.0,0.0,0.0,0.0,0.0,0.0,0.0,0.0,0.0,0.0,0.0,0.0,0.0,0.0,0.0,0.0,0.0,0.0,0.0,0.0,0.0,0.0,0.0,0.0,0.0,0.0,0.0,0.0,0.0,0.0,0.0,0.0,0.0,0.0,0.0,0.0,0.0,0.0,0.0,0.0,0.0,0.0,0.0,0.0,0.0,0.0,0.0,0.0,0.0,0.0,0.0,0.0,0.0,0.0,0.0,0.0,0.0,0.0,0.0,0.0,0.0,0.0,0.0,0.0,0.0,0.0,0.0,0.0,0.0,0.0,0.0,0.0,0.0,0.0,0.0,0.0,0.0,0.0,0.0,0.0,0.0,-0.7771,-0.7921,-0.7988,-0.7988,-0.7993,-0.7607,-0.6756,0.0,0.0,0.0,0.0,0.0,0.0,0.0,0.0,0.0,0.0,0.0,0.0,0.0,0.0,0.0,0.0,0.0,0.0,0.0,0.0,0.0,0.0,0.0,0.0,0.0,0.0,0.0,0.0,0.0,0.0,0.0,0.0,0.0,0.0,0.0,0.0,0.0,0.0,0.0,0.0,0.0,0.0,0.0,0.0,0.0,0.0,0.0,0.0,0.0,0.0,0.0,0.0,0.0,0.0,0.0,0.0,0.0,0.0,0.0,0.0,0.0,0.0,0.0,0.0,0.0,0.0,0.0,0.0,0.0,0.0,0.0,0.0,0.0,0.0,0.0,0.0,0.0,0.0,0.0,0.0,0.0,0.0,0.0,0.0,0.0,0.0,0.0,0.0,0.0,0.0,0.0,0.0,0.0,0.0,0.0,0.0,0.0,0.0,0.0,0.0,0.0,0.0,0.0,0.0,-0.7345,-0.7762,-0.7931,-0.7988,-0.7988,-0.7898,-0.7516,-0.6749,0.0,0.0,0.0,0.0,0.0,0.0,0.0,0.0,0.0,0.0,0.0,0.0,0.0,0.0,0.0,0.0,0.0,0.0,0.0,0.0,0.0,0.0,0.0,0.0,0.0,0.0,0.0,0.0,0.0,0.0,0.0,0.0,0.0,0.0,0.0,0.0,0.0,0.0,0.0,0.0,0.0,0.0,0.0,0.0,0.0,0.0,0.0,0.0,0.0,0.0,0.0,0.0,0.0,0.0,0.0,0.0,0.0,0.0,0.0,0.0,0.0,0.0,0.0,0.0,0.0,0.0,0.0,0.0,0.0,0.0,0.0,0.0,0.0,0.0,0.0,0.0,0.0,0.0,0.0,0.0,0.0,0.0,0.0,0.0,0.0,0.0,0.0,0.0,0.0,0.0,0.0,0.0,0.0,0.0,0.0,0.0,0.0,0.0,0.0,0.0,0.0,0.0,0.0,-0.7603,-0.7592,-0.7869,-0.7973,-0.7988,-0.7988,-0.7952,-0.756,-0.6756,-0.6443,0.0,0.0,0.0,0.0,0.0,0.0,0.0,0.0,0.0,0.0,0.0,0.0,0.0,0.0,0.0,0.0,0.0,0.0,0.0,0.0,0.0,0.0,0.0,0.0,0.0,0.0,0.0,0.0,0.0,0.0,0.0,0.0,0.0,0.0,0.0,0.0,0.0,0.0,0.0,0.0,0.0,0.0,0.0,0.0,0.0,0.0,0.0,0.0,0.0,0.0,0.0,0.0,0.0,0.0,0.0,0.0,0.0,0.0,0.0,0.0,0.0,0.0,0.0,0.0,0.0,0.0,0.0,0.0,0.0,0.0,0.0,0.0,0.0,0.0,0.0,0.0,0.0,0.0,0.0,0.0,0.0,0.0,0.0,0.0,0.0,0.0,0.0,0.0,0.0,0.0,0.0,0.0,0.0,0.0,0.0,0.0,0.0,0.0,0.0,0.0,0.0,0.0,-0.7826,-0.7856,-0.7988,-0.7988,-0.7988,-0.7988,-0.7918,-0.7519,-0.6749,-0.6341,0.0,0.0,0.0,0.0,0.0,0.0,0.0,0.0,0.0,0.0,0.0,0.0,0.0,0.0,0.0,0.0,0.0,0.0,0.0,0.0,0.0,0.0,0.0,0.0,0.0,0.0,0.0,0.0,0.0,0.0,0.0,0.0,0.0,0.0,0.0,0.0,0.0,0.0,0.0,0.0,0.0,0.0,0.0,0.0,0.0,0.0,0.0,0.0,0.0,0.0,0.0,0.0,0.0,0.0,0.0,0.0,0.0,0.0,0.0,0.0,0.0,0.0,0.0,0.0,0.0,0.0,0.0,0.0,0.0,0.0,0.0,0.0,0.0,0.0,0.0,0.0,0.0,0.0,0.0,0.0,0.0,0.0,0.0,0.0,0.0,0.0,0.0,0.0,0.0,0.0,0.0,0.0,0.0,0.0,0.0,0.0,0.0,0.0,0.0,0.0,0.0,0.0,-0.7621,-0.7856,-0.7993,-0.7988,-0.7988,-0.7988,-0.7658,-0.7233,-0.6729,-0.603,0.0,0.0,0.0,0.0,0.0,0.0,0.0,0.0,0.0,0.0,0.0,0.0,0.0,0.0,0.0,0.0,0.0,0.0,0.0,0.0,0.0,0.0,0.0,0.0,0.0,0.0,0.0,0.0,0.0,0.0,0.0,0.0,0.0,0.0,0.0,0.0,0.0,0.0,0.0,0.0,0.0,0.0,0.0,0.0,0.0,0.0,0.0,0.0,0.0,0.0,0.0,0.0,0.0,0.0,0.0,0.0,0.0,0.0,0.0,0.0,0.0,0.0,0.0,0.0,0.0,0.0,0.0,0.0,0.0,0.0,0.0,0.0,0.0,0.0,0.0,0.0,0.0,0.0,0.0,0.0,0.0,0.0,0.0,0.0,0.0,0.0,0.0,0.0,0.0,0.0,0.0,0.0,0.0,0.0,0.0,0.0,0.0,0.0,0.0,0.0,0.0,0.0,-0.8013,-0.804,0.0,-0.7988,-0.7988,-0.7988,-0.7858,-0.7475,-0.6749,0.0,0.0,0.0,0.0,0.0,0.0,0.0,0.0,0.0,0.0,0.0,0.0,0.0,0.0,0.0,0.0,0.0,0.0,0.0,0.0,0.0,0.0,0.0,0.0,0.0,0.0,0.0,0.0,0.0,0.0,0.0,0.0,0.0,0.0,0.0,0.0,0.0,0.0,0.0,0.0,0.0,0.0,0.0,0.0,0.0,0.0,0.0,0.0,0.0,0.0,0.0,0.0,0.0,0.0,0.0,0.0,0.0,0.0,0.0,0.0,0.0,0.0,0.0,0.0,0.0,0.0,0.0,0.0,0.0,0.0,0.0,0.0,0.0,0.0,0.0,0.0,0.0,0.0,0.0,0.0,0.0,0.0,0.0,0.0,0.0,0.0,0.0,0.0,0.0,0.0,0.0,0.0,0.0,0.0,0.0,0.0,0.0,0.0,0.0,0.0,0.0,0.0,-0.8551,-0.8373,-0.8173,0.0,-0.806,-0.8067,-0.7995,-0.7885,-0.7482,-0.6681,0.0,0.0,0.0,0.0,0.0,0.0,0.0,0.0,0.0,0.0,0.0,0.0,0.0,0.0,0.0,0.0,0.0,0.0,0.0,0.0,0.0,0.0,0.0,0.0,0.0,0.0,0.0,0.0,0.0,0.0,0.0,0.0,0.0,0.0,0.0,0.0,0.0,0.0,0.0,0.0,0.0,0.0,0.0,0.0,0.0,0.0,0.0,0.0,0.0,0.0,0.0,0.0,0.0,0.0,0.0,0.0,0.0,0.0,0.0,0.0,0.0,0.0,0.0,0.0,0.0,0.0,0.0,0.0,0.0,0.0,0.0,0.0,0.0,0.0,0.0,0.0,0.0,0.0,0.0,0.0,0.0,0.0,0.0,0.0,0.0,0.0,0.0,0.0,0.0,0.0,0.0,0.0,0.0,0.0,0.0,0.0,0.0,0.0,0.0,0.0,0.0,0.0,-0.885,-0.8559,-0.8214,-0.8033,-0.818,-0.8208,-0.8033,-0.7638,-0.7144,0.0,0.0,0.0,0.0,0.0,0.0,0.0,0.0,0.0,0.0,0.0,0.0,0.0,0.0,0.0,0.0,0.0,0.0,0.0,0.0,0.0,0.0,0.0,0.0,0.0,0.0,0.0,0.0,0.0,0.0,0.0,0.0,0.0,0.0,0.0,0.0,0.0,0.0,0.0,0.0,0.0,0.0,0.0,0.0,0.0,0.0,0.0,0.0,0.0,0.0,0.0,0.0,0.0,0.0,0.0,0.0,0.0,0.0,0.0,0.0,0.0,0.0,0.0,0.0,0.0,0.0,0.0,0.0,0.0,0.0,0.0,0.0,0.0,0.0,0.0,0.0,0.0,0.0,0.0,0.0,0.0,0.0,0.0,0.0,0.0,0.0,0.0,0.0,0.0,0.0,0.0,0.0,0.0,0.0,0.0,0.0,0.0,0.0,0.0,0.0,0.0,0.0,0.0,-0.885,-0.8559,-0.8281,-0.8208,-0.8355,-0.8389,-0.8214,-0.8104,-0.7634,-0.6695,0.0,0.0,0.0,0.0,0.0,0.0,0.0,0.0,0.0,0.0,0.0,0.0,0.0,0.0,0.0,0.0,0.0,0.0,0.0,0.0,0.0,0.0,0.0,0.0,0.0,0.0,0.0,0.0,0.0,0.0,0.0,0.0,0.0,0.0,0.0,0.0,0.0,0.0,0.0,0.0,0.0,0.0,0.0,0.0,0.0,0.0,0.0,0.0,0.0,0.0,0.0,0.0,0.0,0.0,0.0,0.0,0.0,0.0,0.0,0.0,0.0,0.0,0.0,0.0,0.0,0.0,0.0,0.0,0.0,0.0,0.0,0.0,0.0,0.0,0.0,0.0,0.0,0.0,0.0,0.0,0.0,0.0,0.0,0.0,0.0,0.0,0.0,0.0,0.0,0.0,0.0,0.0,0.0,0.0,0.0,0.0,0.0,0.0,0.0,0.0,0.0,0.0,-0.9074,-0.8699,-0.8383,-0.8383,-0.8512,-0.8519,-0.8315,-0.8294,-0.7845,-0.677,0.0,0.0,0.0,0.0,0.0,0.0,0.0,0.0,0.0,0.0,0.0,0.0,0.0,0.0,0.0,0.0,0.0,0.0,0.0,0.0,0.0,0.0,0.0,0.0,0.0,0.0,0.0,0.0,0.0,0.0,0.0,0.0,0.0,0.0,0.0,0.0,0.0,0.0,0.0,0.0,0.0,0.0,0.0,0.0,0.0,0.0,0.0,0.0,0.0,0.0,0.0,0.0,0.0,0.0,0.0,0.0,0.0,0.0,0.0,0.0,0.0,0.0,0.0,0.0,0.0,0.0,0.0,0.0,0.0,0.0,0.0,0.0,0.0,0.0,0.0,0.0,0.0,0.0,0.0,0.0,0.0,0.0,0.0,0.0,0.0,0.0,0.0,0.0,0.0,0.0,0.0,0.0,0.0,0.0,0.0,0.0,0.0,0.0,0.0,0.0,0.0,0.0,-0.9285,-0.8874,-0.8532,-0.8532,-0.8642,-0.8615,-0.8362,-0.8321,-0.7886,-0.6844,0.0,0.0,0.0,0.0,0.0,0.0,0.0,0.0,0.0,0.0,0.0,0.0,0.0,0.0,0.0,0.0,0.0,0.0,0.0,0.0,0.0,0.0,0.0,0.0,0.0,0.0,0.0,0.0,0.0,0.0,0.0,0.0,0.0,0.0,0.0,0.0,0.0,0.0,0.0,0.0,0.0,0.0,0.0,0.0,0.0,0.0,0.0,0.0,0.0,0.0,0.0,0.0,0.0,0.0,0.0,0.0,0.0,0.0,0.0,0.0,-0.6337,0.0,0.0,0.0,0.0,0.0,0.0,0.0,0.0,0.0,0.0,0.0,0.0,0.0,0.0,0.0,0.0,0.0,0.0,0.0,0.0,0.0,0.0,0.0,0.0,0.0,0.0,0.0,0.0,0.0,0.0,0.0,0.0,0.0,0.0,0.0,0.0,0.0,0.0,0.0,0.0,0.0,-0.8485,-0.8591,-0.8662,-0.8662,-0.877,-0.8791,-0.8635,-0.8506,-0.8172,-0.7455,-0.6811,0.0,0.0,0.0,0.0,0.0,0.0,0.0,0.0,0.0,0.0,0.0,0.0,0.0,0.0,0.0,0.0,0.0,0.0,0.0,0.0,0.0,0.0,0.0,0.0,0.0,0.0,0.0,0.0,0.0,0.0,0.0,0.0,0.0,0.0,0.0,0.0,0.0,0.0,0.0,0.0,0.0,0.0,0.0,0.0,0.0,0.0,0.0,0.0,0.0,0.0,0.0,0.0,0.0,0.0,0.0,0.0,0.0,0.0,0.0,0.0,-0.6763,0.0,0.0,0.0,0.0,0.0,0.0,0.0,0.0,0.0,0.0,0.0,0.0,0.0,0.0,0.0,0.0,0.0,0.0,0.0,0.0,0.0,0.0,0.0,0.0,0.0,0.0,0.0,0.0,0.0,0.0,0.0,0.0,0.0,0.0,0.0,0.0,0.0,0.0,0.0,0.0,-0.8411,-0.8592,-0.8737,-0.8784,-0.8865,-0.8852,-0.8723,-0.8635,-0.837,-0.7817,-0.7238,0.0,0.0,0.0,0.0,0.0,0.0,0.0,0.0,0.0,0.0,0.0,0.0,0.0,0.0,0.0,0.0,0.0,0.0,0.0,0.0,0.0,0.0,0.0,0.0,0.0,0.0,0.0,0.0,0.0,0.0,0.0,0.0,0.0,0.0,0.0,0.0,0.0,0.0,0.0,0.0,0.0,0.0,0.0,0.0,0.0,0.0,0.0,0.0,0.0,0.0,0.0,0.0,0.0,-0.8185,-0.8147,-0.814,-0.8662,-0.8872,-0.8723,-0.8185,-0.7879,-0.7743,0.0,0.0,0.0,0.0,0.0,0.0,0.0,0.0,0.0,0.0,0.0,0.0,0.0,0.0,0.0,0.0,0.0,0.0,0.0,0.0,0.0,0.0,0.0,0.0,0.0,-0.795,-0.8234,0.0,0.0,0.0,0.0,0.0,0.0,0.0,0.0,0.0,0.0,0.0,0.0,-0.8487,-0.8678,-0.8907,-0.9251,-0.9292,-0.9346,-0.948,-0.947,-0.9312,-0.8993,-0.8498,-0.8072,0.0,0.0,0.0,0.0,0.0,0.0,0.0,0.0,0.0,0.0,0.0,0.0,0.0,0.0,0.0,0.0,0.0,0.0,0.0,0.0,0.0,0.0,0.0,0.0,0.0,0.0,0.0,0.0,0.0,0.0,0.0,0.0,-0.6636,-0.6747,0.0,0.0,0.0,0.0,0.0,0.0,0.0,0.0,0.0,0.0,0.0,0.0,0.0,-0.7236,-0.7879,-0.8337,-0.8596,-0.8644,-0.9247,-0.946,-0.9381,-0.969,-0.9832,-0.9819,-1.0012,0.0,-0.8414,-0.882,0.0,0.0,0.0,0.0,0.0,0.0,0.0,0.0,0.0,0.0,0.0,0.0,0.0,0.0,0.0,0.0,0.0,0.0,0.0,0.0,0.0,0.0,-0.8975,-0.875,-0.8872,-0.9003,0.0,-0.8415,-0.8189,-0.8603,0.0,0.0,0.0,0.0,0.0,0.0,0.0,0.0,-0.8042,-0.8646,-0.958,-1.0688,-1.0809,-1.1311,-1.2577,-1.2537,-1.2522,-1.2753,-1.1954,-1.1566,-1.182,-1.0858,0.0,0.0,0.0,0.0,0.0,0.0,0.0,0.0,0.0,0.0,0.0,0.0,0.0,0.0,0.0,0.0,0.0,0.0,0.0,0.0,0.0,0.0,0.0,0.0,0.0,0.0,0.0,0.0,0.0,-0.7229,-0.6755,-0.6359,-0.6939,-0.6814,0.0,0.0,0.0,0.0,0.0,0.0,0.0,0.0,0.0,-0.7658,-0.7841,-0.8174,-0.8689,-0.9117,-0.9422,-0.9598,-1.0093,-1.0305,-1.0339,-1.0582,-1.0677,-1.0683,-1.0846,-1.0487,-0.9808,-0.9504,-0.9766,-1.0381,0.0,0.0,0.0,0.0,-1.1735,-1.1707,-1.1891,-1.2405,0.0,0.0,0.0,0.0,0.0,0.0,0.0,0.0,0.0,0.0,0.0,0.0,0.0,-0.9517,-0.9709,-0.9777,-0.9562,-0.9189,-0.8747,0.0,-0.8023,-0.7869,-0.7749,0.0,0.0,0.0,0.0,-0.9555,-0.9297,-0.9915,-1.0591,-1.1151,-1.1198,-1.1475,-1.2128,-1.2785,-1.3234,-1.3389,-1.306,-1.2908,-1.2989,-1.2703,-1.2219,0.0,0.0,0.0,0.0,0.0,0.0,0.0,0.0,0.0,0.0,0.0,0.0,0.0,0.0,0.0,0.0,0.0,0.0,0.0,0.0,0.0,0.0,0.0,0.0,0.0,0.0,0.0,0.0,-0.7521,-0.7007,-0.6652,-0.7749,-0.776,0.0,0.0,0.0,0.0,0.0,0.0,-0.7614,-0.7687,-0.8049,-0.8703,-0.894,-0.9273,-0.972,-0.9978,-1.0222,-1.0453,-1.0711,-1.0894,-1.0975,-1.1158,-1.1254,-1.1261,-1.1295,-1.1199,-1.0955,-1.0053,-1.0077,-1.0695,-1.032,-1.062,-1.134,-1.1891,-1.2291,-1.2565,-1.2699,-1.3393,-1.4182,-1.3614,0.0,-1.3622,-1.4383,0.0,0.0,0.0,0.0,-1.2693,-1.3219,-1.221,-1.1146,-1.1464,-1.1657,-1.1734,-1.1494,-1.1225,-1.0385,0.0,-0.8359,-0.8398,-0.7597,0.0,0.0,0.0,0.0,-1.0516,-1.0673,-1.1145,-1.1744,-1.2506,-1.2581,-1.2721,-1.3121,-1.413,-1.4702,-1.462,-1.48,-1.4815,-1.4634,-1.4845,-1.4594,-1.3797,0.0,0.0,0.0,0.0,0.0,0.0,0.0,0.0,0.0,0.0,0.0,0.0,0.0,0.0,0.0,0.0,0.0,0.0,0.0,0.0,0.0,0.0,0.0,0.0,0.0,0.0,0.0,0.0,0.0,-0.8155,-0.7802,0.0,0.0,0.0,0.0,-0.8018,-0.7736,-0.8148,-0.9577,-0.9003,-0.9021,-0.99,-0.994,-1.0163,-1.0617,-1.0779,-1.0867,-1.088,-1.107,-1.1179,-1.1193,-1.1342,-1.1382,-1.1389,-1.1531,-1.1511,-1.1321,-1.0697,-1.1089,-1.2071,-1.1798,-1.172,-1.1779,-1.1812,-1.3084,-1.4882,-1.5196,-1.5278,-1.5297,-1.5619,-1.3711,-1.1857,-1.5031,-1.5309,0.0,0.0,-1.5793,-1.5867,-1.5088,-1.5217,-1.5551,-1.5444,-1.5615,-1.5748,-1.5463,-1.5054,-1.3615,0.0,-0.8784,-0.8615,-0.894,0.0,-1.0811,-0.9413,-1.0951,-1.2056,-1.1519,-1.1745,-1.3018,-1.5766,-1.6051,-1.6622,-1.8007,-1.8424,-1.8506,-1.8257,-1.848,-1.8521,-1.8258,-1.794,-1.7384,-1.6507,-1.5092,0.0,0.0,0.0,0.0,0.0,0.0,0.0,0.0,0.0,0.0,0.0,0.0,0.0,0.0,0.0,0.0,0.0,0.0,0.0,0.0,0.0,0.0,0.0,0.0,0.0,0.0,0.0,0.0,-0.8101,-0.9631,0.0,-0.7547,-0.9217,-0.9882,-0.8503,-0.8614,-0.9099,-0.9901,-0.9811,-0.9998,-1.0576,-1.0596,-1.0718,-1.1036,-1.2342,-1.2948,-1.277,-1.4165,-1.4802,-1.4777,-1.3693,-1.3314,-1.3467,-1.2378,-1.187,-1.1826,-1.1389,-1.2022,-1.3208,-1.2988,-1.3617,-1.4711,-1.4846,-1.5369,-1.608,-1.6263,-1.7021,-1.8073,-1.8944,-1.8339,-1.7441,-1.824,-1.8346,-1.824,-1.8487,-1.8168,-1.7699,-1.7599,-1.7044,-1.6458,-1.6415,-1.6476,-1.6517,-1.6435,-1.6027,-1.5254,-1.3692,-1.2918,-1.2128,-1.075,-1.1301,-1.1576,-1.0476,-1.2067,-1.3656,-1.448,-1.4777,-1.5293,-1.6331,-1.6433,-1.6644,-1.7167,-1.8088,-1.8597,-1.8504,-1.8743,-1.885,-1.8771,-1.8636,-1.8249,-1.7556,-1.6299,-1.4736,0.0,0.0,0.0,0.0,0.0,0.0,0.0,0.0,0.0,0.0,0.0,0.0,0.0,0.0,0.0,0.0,0.0,0.0,0.0,0.0,0.0,0.0,0.0,0.0,0.0,0.0,-1.0287,-0.9502,-1.1203,-1.1335,-0.8445,-1.0168,-1.0776,-0.914,-0.9429,-0.9876,-1.0299,-1.1052,-1.1626,-1.1993,-1.1957,-1.2035,-1.2224,-1.3447,-1.4026,-1.3967,-1.5872,-1.6841,-1.6887,-1.5749,-1.5319,-1.5489,-1.4318,-1.3835,-1.3811,-1.3582,-1.4466,-1.5793,-1.4405,-1.4989,-1.6642,-1.6984,-1.7507,-1.8064,-1.8147,-1.8857,-1.9824,-2.0512,-2.0147,-1.9516,-2.0301,-2.0252,-2.0052,-2.0628,-2.0259,-1.9727,-1.9944,-1.935,-1.8665,-1.8586,-1.8631,-1.8665,-1.8586,-1.8303,-1.7974,-1.7614,-1.6082,-1.4342,-1.2625,-1.3165,-1.3413,-1.2254,-1.373,-1.5131,-1.5646,-1.6281,-1.6674,-1.6674,-1.7148,-1.7514,-1.76,-1.8334,-1.8784,-1.8784,-1.8878,-1.881,-1.8609,-1.8596,-1.8316,-1.7729,-1.6511,-1.5079,-1.3507,0.0,0.0,0.0,0.0,0.0,0.0,0.0,0.0,0.0,0.0,0.0,0.0,0.0,0.0,0.0,0.0,0.0,0.0,0.0,0.0,0.0,0.0,0.0,-1.2246,-1.1546,-1.1367,-1.2447,-1.2376,-1.1355,-0.9168,-0.9417,-0.9791,-1.0021,-1.0215,-1.0526,-1.0961,-1.2706,-1.3866,-1.4267,-1.4113,-1.4079,-1.4284,-1.4079,-1.4113,-1.4388,-1.6146,-1.7129,-1.7343,-1.7318,-1.7293,-1.7303,-1.7233,-1.7208,-1.7198,-1.7188,-1.8344,-1.9739,-1.6148,-1.5839,-1.746,-1.8022,-1.942,-2.0983,-2.0994,-2.0733,-2.0387,-2.026,-1.8765,-1.7667,-2.1025,-2.0879,-1.9857,-2.1588,-2.2017,-2.2004,-2.2004,-2.2205,-2.2338,-2.2058,-2.2205,-2.2325,-2.2044,-2.1977,-2.1804,-2.1229,-1.7901,-1.5022,-1.4561,-1.5905,-1.6423,-1.4742,-1.5934,0.0,-1.4926,-1.6109,-1.7079,-1.7079,-1.846,-1.9522,-1.9773,-1.9562,-1.9401,-1.9401,-1.9078,-1.8623,-1.8049,-1.8009,-1.7756,-1.7259,-1.5785,-1.4732,-1.4143,0.0,0.0,0.0,0.0,0.0,0.0,0.0,0.0,0.0,0.0,0.0,0.0,0.0,0.0,0.0,0.0,0.0,0.0,0.0,0.0,0.0,-1.2211,-1.2997,-1.2119,-1.2281,-1.2477,-1.2468,-1.2517,-1.189,-1.0222,-1.1309,-1.1709,-1.0716,-1.0704,-1.139,-1.2914,-1.2176,-1.2978,-1.571,-1.4716,-1.4787,-1.6077,-1.7593,-1.8293,-1.815,-1.9969,-2.09,-2.0919,-1.9658,-1.9213,-1.9392,-1.8129,-1.7553,-1.7523,-1.7308,-1.8264,-1.9808,-1.8927,-1.9819,-2.162,-2.1593,-2.2033,-2.2672,-2.2915,-2.2924,-2.283,-2.2795,-2.2361,-2.2058,-2.3029,-2.2814,-2.2319,-2.2815,-2.2645,-2.2298,-2.2298,-2.2205,-2.2084,-2.2004,-2.2044,-2.2084,-2.2004,-2.185,-2.1596,-2.1189,-2.0037,-1.8588,-1.6862,-1.7049,-1.7162,-1.6399,-1.6783,0.0,-1.7989,-1.846,-1.8735,-1.8735,-1.9127,-1.9522,-1.9773,-1.9562,-1.9401,-1.9401,-1.8891,-1.8624,-1.8649,-1.8477,-1.829,-1.8157,-1.646,-1.5404,0.0,0.0,0.0,0.0,0.0,0.0,0.0,0.0,0.0,0.0,0.0,0.0,0.0,0.0,0.0,0.0,0.0,0.0,0.0,0.0,0.0,0.0,-1.3815,-1.4847,-1.4423,-1.4782,-1.4777,-1.3957,-1.4006,-1.3546,-1.2104,-1.2773,-1.2961,-1.2165,-1.272,-1.3621,-1.481,-1.3874,-1.4645,-1.7662,-1.6138,-1.6196,-1.8037,-1.9221,-1.9778,-1.9697,-2.1517,-2.2485,-2.2571,-2.1555,-2.12,0.0,-2.0332,-1.9882,-1.9871,-1.9679,-2.019,0.0,0.0,0.0,0.0,0.0,-2.3607,-2.3865,-2.4075,-2.4048,-2.3991,-2.3991,-2.391,-2.3803,-2.3803,-2.3647,-2.3514,-2.3514,-2.3166,-2.2772,-2.2772,-2.2579,-2.2385,-2.2385,-2.2258,-2.2164,-2.2164,-2.197,-2.1649,-2.1189,-2.0975,0.0,-1.8834,-1.8629,-1.8599,-1.8367,-1.8406,-1.8533,-1.8741,-1.9335,-1.9483,-1.8847,-1.9365,-1.98,-1.993,-1.972,0.0,0.0,0.0,-1.8584,-1.837,-1.8196,0.0,0.0,0.0,0.0,0.0,0.0,0.0,0.0,-1.5755,-1.5698,0.0,0.0,0.0,0.0,0.0,0.0,0.0,0.0,0.0,0.0,0.0,0.0,0.0,0.0,0.0,0.0,-1.5558,-1.7113,-1.7799,-1.8088,-1.7753,-1.64,-1.6169,-1.5638,-1.4402,-1.3983,-1.3881,-1.4096,-1.5343,-1.6271,-1.6631,0.0,0.0,0.0,0.0,-1.8102,-2.0071,-1.9901,-1.9925,-2.0187,-2.1703,-2.2605,-2.2893,-2.2893,-2.2893,-2.2893,-2.2893,-2.2893,-2.2893,-2.2893,-2.2893,-2.2756,-2.1242,-2.1553,-2.3,-2.3834,-2.4315,-2.4506,-2.4506,0.0,0.0,-2.4209,-2.4035,-2.3857,-2.3897,-2.3884,-2.3857,-2.3857,-2.3554,-2.3252,-2.3278,-2.3073,-2.284,-2.284,-2.2605,-2.2371,-2.2378,-2.2138,-2.181,-2.1256,-2.1136,-2.0949,-2.0397,-2.025,-2.0197,-2.0197,-2.0197,-1.9698,-1.8331,-1.9351,-1.9668,-1.8319,0.0,0.0,-2.0304,-2.0067,-1.9893,-1.9893,-1.9345,-1.8651,-1.7849,-1.7836,-1.7849,-1.7876,-1.8089,-1.8489,-1.905,-1.9399,-1.9736,-1.9933,-1.7476,-1.7235,0.0,0.0,0.0,0.0,0.0,0.0,0.0,0.0,0.0,0.0,0.0,0.0,0.0,0.0,0.0,-1.627,-1.7988,-1.8988,-1.8454,-1.9827,-2.0253,-1.8611,-1.7182,-1.6271,-1.6122,-1.5787,-1.5682,-1.5885,-1.6011,-1.673,-1.817,-1.7113,0.0,-2.1111,-1.9908,-2.0091,-2.1867,-2.2104,-2.2269,-2.2322,0.0,0.0,-2.2893,-2.2893,-2.2893,-2.2893,-2.2893,-2.2893,-2.2893,-2.2893,-2.2893,-2.2886,-2.2779,-2.2796,-2.2974,-2.3643,-2.3924,-2.3941,-2.3941,-2.4062,-2.4209,-2.4209,-2.4168,-2.4168,-2.4396,-2.4302,0.0,-2.4115,-2.3554,-2.3041,-2.3225,-2.2913,-2.2498,-2.2498,-2.2458,-2.2352,-2.2124,-2.1877,-2.1636,-2.1529,-2.1269,-2.1069,-2.0962,-2.0517,-2.0197,-2.0197,-2.0197,-2.0076,-1.9789,-2.0015,-2.0076,-1.9789,-2.0015,-2.0397,-2.0864,-2.0668,-2.0539,-2.0539,-1.996,-1.9452,-1.9067,-1.9252,-1.9479,-1.969,-1.9546,-1.9626,-1.9957,-2.0508,-2.0922,-2.1221,-2.0231,-2.0054,0.0,0.0,0.0,0.0,0.0,0.0,0.0,0.0,0.0,0.0,0.0,-1.3313,-1.4365,0.0,-1.7114,-1.8317,-1.9586,-2.0376,-2.0099,-2.1176,-2.1286,-1.943,-1.836,-1.784,-1.7893,-1.7586,-1.7423,-1.7541,-1.8188,-1.9051,-2.0086,-1.8594,-1.9017,-2.1912,-2.0591,-2.0721,-2.2632,-2.2827,-2.2893,-2.2893,-2.2893,-2.2893,-2.2893,-2.2893,-2.2893,-2.2893,-2.2893,-2.2893,-2.2893,-2.2893,-2.2987,-2.3113,-2.326,-2.3233,-2.3126,-2.3434,-2.3683,-2.3803,-2.3803,-2.3897,-2.3981,-2.3981,-2.3981,-2.4008,-2.4155,-2.4209,-2.4209,-2.4209,-2.3781,-2.3415,-2.3688,-2.3292,-2.2878,-2.306,-2.2859,-2.2605,-2.2492,-2.2117,-2.1796,-2.1796,-2.1657,-2.1496,-2.1349,-2.1082,-2.0842,-2.0695,-2.0637,-2.0637,-2.0637,-2.0637,-2.0637,-2.0637,-2.0637,-2.0735,-2.0882,-2.0793,-2.0833,-2.1127,-2.0695,-2.0321,-2.0057,-2.0294,-2.0588,-2.0882,-2.0895,-2.1109,-2.155,-2.2004,-2.2298,-2.2445,-2.2592,-2.2498,0.0,0.0,0.0,0.0,0.0,0.0,0.0,0.0,-1.2366,-1.3607,-1.4362,-1.5173,-1.6417,-1.7556,-1.8703,-1.98,-2.0655,-2.1323,-2.1703,-2.2071,-2.1731,-2.0111,-1.982,-1.9709,-1.9661,-1.9376,-1.9155,-1.9155,-2.0419,-2.1328,-2.1569,-2.0349,-2.0513,-2.2338,-2.1094,-2.122,-2.2893,-2.2893,-2.2893,-2.2893,-2.2893,-2.2893,-2.2893,-2.2893,-2.2893,-2.2893,-2.2893,-2.2934,-2.2987,-2.2987,-2.314,-2.3407,-2.3407,-2.3407,-2.3407,-2.3407,-2.3594,-2.3884,-2.383,-2.3843,-2.3897,-2.3928,-2.3897,-2.383,-2.3901,-2.4022,-2.4115,-2.4115,-2.3915,-2.379,-2.4048,-2.3728,-2.338,-2.3621,-2.3348,-2.2974,-2.2907,-2.2479,-2.2071,-2.2071,-2.2031,-2.1943,-2.1703,-2.1662,-2.1555,-2.1162,-2.1109,-2.1109,-2.1109,-2.1109,-2.1109,-2.1109,-2.1109,-2.1082,-2.1015,-2.1047,-2.1301,-2.189,-2.1617,-2.1349,-2.1141,-2.1323,-2.159,-2.193,-2.2124,-2.2512,-2.3081,-2.3354,-2.3492,-2.3559,-2.4332,-2.4279,-1.2492,-1.1806,-1.1637,-1.2368,-1.2194,-1.251,0.0,0.0,-1.4554,-1.6019,-1.678,-1.7328,-1.7742,-1.8783,-1.9813,-2.0498,-2.1127,-2.1729,-2.2245,-2.2151,-2.1951,-2.1747,-2.1714,-2.1575,-2.1357,-2.1035,-2.0832,-2.0832,-2.128,-2.1555,-2.1582,-2.1866,-2.215,-2.2385,-2.2502,-2.2648,-2.2893,-2.2893,-2.2893,-2.2893,-2.2893,-2.2893,-2.2893,-2.2893,-2.2893,-2.2893,-2.2893,-2.3054,-2.3273,-2.3273,-2.3447,-2.3728,-2.3728,-2.3728,-2.3728,-2.3728,-2.3901,-2.4115,-2.3897,-2.3977,-2.4195,-2.4412,-2.4195,-2.391,-2.4382,-2.4209,-2.3857,-2.3857,-2.3607,-2.3447,-2.3741,-2.3567,-2.3305,-2.3332,-2.3292,-2.3193,-2.296,-2.2605,-2.2378,-2.2378,-2.2164,-2.1977,-2.197,-2.197,-2.175,-2.1189,-2.1109,-2.1109,-2.1109,-2.1109,-2.1109,-2.1109,-2.1109,-2.1416,-2.2164,-2.2218,-2.2485,-2.3052,-2.2832,-2.2679,-2.2653,-2.2679,-2.284,-2.3092,-2.3132,-2.334,-2.371,-2.3968,-2.4235,-2.4466,-2.4863,-2.4836,-1.3807,-1.3534,-1.3534,-1.3734,-1.4129,-1.4772,-1.6016,-1.6019,-1.6142,-1.7475,-1.8076,-1.8557,-1.917,-1.9867,-2.0539,0.0,-2.1422,-2.1729,-2.2111,-2.2058,-2.1924,-2.1783,-2.1577,-2.143,-2.1309,-2.1189,-2.1109,-2.1109,-2.1422,-2.1662,-2.1823,-2.2191,-2.2498,-2.2672,-2.2827,-2.2893,-2.2893,-2.2893,-2.2893,-2.2893,-2.2893,-2.2893,-2.2893,-2.2893,-2.2893,-2.2893,-2.2893,-2.3033,-2.3292,-2.3292,-2.3607,-2.4022,-2.4022,-2.4128,-2.4235,-2.3937,-2.3884,-2.3928,-2.3843,-2.3884,-2.3968,-2.4088,-2.3968,-2.3857,-2.4062,-2.4075,-2.4062,-2.4222,-2.4146,-2.4119,-2.4462,-2.4182,-2.3834,-2.3834,-2.3581,-2.3252,-2.3166,-2.2886,-2.2672,-2.2672,-2.2612,-2.2479,-2.2271,-2.2231,-2.2098,-2.1683,-2.1764,-2.1817,-2.1643,-2.1911,-2.2158,-2.2158,-2.1977,-2.2164,-2.2852,-2.2905,-2.3092,-2.3554,-2.3496,-2.3429,-2.3429,-2.3429,-2.3527,-2.3834,-2.3834,-2.4062,-2.4566,-2.4649,-2.4863,-2.5119,-2.5451,-2.5569,-1.4421,-1.4616,-1.4972,-1.4874,-1.5712,-1.6632,-1.6953,-1.7168,-1.7635,-1.8744,-1.9199,-1.9599,-2.021,-2.0601,-2.0993,-2.1502,-2.1582,-2.1662,-2.1877,-2.1903,-2.1756,-2.1381,-2.1154,-2.0962,-2.0882,-2.0949,-2.1029,-2.1096,-2.1422,-2.1716,-2.201,-2.2258,-2.2552,-2.288,-2.2893,-2.2893,-2.2893,-2.2893,-2.2893,-2.2893,-2.2893,-2.2893,-2.2893,-2.2893,-2.2893,-2.2893,-2.2893,-2.3086,-2.3447,-2.3447,-2.3794,-2.4329,-2.4329,-2.4412,-2.4546,-2.4168,-2.4008,-2.4008,-2.4008,-2.4008,-2.4022,-2.4138,-2.4058,-2.3901,-2.3981,-2.4048,-2.4128,-2.4342,-2.4396,-2.4449,-2.4663,-2.4409,-2.4088,-2.4088,-2.3701,-2.3292,-2.3292,-2.3086,-2.2893,-2.2893,-2.2893,-2.2827,-2.2579,-2.2539,-2.2472,-2.2291,-2.2485,-2.2498,-2.2044,-2.2465,-2.2773,-2.2773,-2.2619,-2.2792,-2.3394,-2.3447,-2.3607,-2.3981,-2.4008,-2.4008,-2.4008,-2.4008,-2.4142,-2.4436,-2.4449,-2.469,-2.5197,-2.5197,-2.5344,-2.5638,-2.5891,-2.6078,-1.3786,-1.4309,-1.512,-1.5635,-1.646,-1.7448,-1.8584,-1.8823,-1.9076,-1.997,-2.0414,-2.0659,-2.0686,-2.0895,-2.1189,-2.1542,-2.1582,-2.1582,-2.1596,-2.1596,-2.1381,-2.0806,-2.0726,-2.0575,0.0,-2.0521,-2.0802,-2.1082,-2.1422,-2.1716,-2.201,-2.2258,-2.2552,-2.288,-2.2893,-2.2893,-2.2893,-2.2893,-2.2893,-2.2893,-2.2893,-2.2893,-2.2893,-2.2893,-2.2893,-2.2893,-2.2893,-2.3241,-2.379,-2.379,-2.4102,-2.4586,-2.4586,-2.4586,-2.4599,-2.4586,-2.4572,-2.4572,-2.4572,-2.4572,-2.4626,-2.4943,-2.4649,-2.4249,-2.4492,-2.4222,-2.3817,-2.383,-2.383,-2.383,-2.3843,-2.383,-2.3817,-2.3817,-2.3554,-2.3292,-2.3292,-2.3086,-2.2893,-2.2893,-2.2893,-2.2893,-2.288,-2.288,-2.288,-2.2867,-2.31,-2.2945,-2.2098,-2.2245,-2.2432,-2.2432,-2.2719,-2.3134,-2.3736,-2.379,-2.3995,-2.4532,-2.4572,-2.4572,-2.4572,-2.4572,-2.4719,-2.5088,-2.505,-2.5197,-2.5504,-2.5504,-2.5651,-2.5984,-2.5998,-2.6305,-1.4727,-1.5444,-1.6353,-1.7341,-1.8143,-1.8853,-1.9583,-1.9757,-1.985,-2.0144,-2.016,-2.007,-1.987,-2.004,-2.0267,-2.0405,-2.0753,-2.1007,-2.1007,-2.1007,-2.0828,-2.0428,-2.0374,0.0,0.0,0.0,0.0,-2.0802,-2.1096,-2.147,-2.1964,-2.2258,-2.2552,-2.288,-2.2893,-2.2893,-2.2893,-2.2893,-2.2893,-2.2893,-2.2893,-2.2893,-2.2893,-2.2893,-2.2893,-2.2907,-2.3086,-2.3407,-2.3817,-2.3981,-2.4289,-2.4599,-2.4599,-2.4599,-2.4599,-2.4599,-2.4599,-2.4599,-2.4599,-2.4599,-2.4613,-2.4719,-2.4613,-2.4479,-2.4572,-2.4466,-2.4382,-2.4583,-2.4673,-2.4673,-2.4673,-2.4489,-2.4302,-2.4102,-2.3834,-2.3621,-2.3621,-2.3576,-2.3442,-2.3207,-2.3166,-2.31,-2.2934,-2.2893,-2.2893,-2.2893,-2.3126,-2.3252,-2.318,-2.3086,-2.31,-2.33,-2.3233,-2.3407,-2.4008,-2.4062,-2.4222,-2.4572,-2.4823,-2.493,-2.493,-2.5117,-2.5264,-2.5371,-2.5371,-2.5518,-2.585,-2.585,-2.5998,-2.6292,-2.644,-2.664,-1.5829,-1.658,-1.7462,-1.8664,-1.9319,-1.98,-2.0281,-2.0277,-2.0197,-2.0197,-1.992,-1.9559,-1.9294,-1.9279,-1.9399,-1.9613,-2.0054,-2.0391,-2.0391,-2.0659,-2.0641,-2.0104,-2.0144,-2.0237,0.0,0.0,0.0,-2.0788,-2.0909,-2.1256,-2.1951,-2.2164,-2.2445,-2.288,-2.2893,-2.2893,-2.2893,-2.2893,-2.2893,-2.2893,-2.2893,-2.2893,-2.2893,-2.2893,-2.2893,-2.2907,-2.3073,-2.3394,-2.3817,-2.3968,-2.4275,-2.4599,-2.4599,-2.4599,-2.4599,-2.4599,-2.4599,-2.4599,-2.4599,-2.4599,-2.4599,-2.4599,-2.4599,-2.4599,-2.4599,-2.4599,-2.4639,-2.4863,-2.4917,-2.4917,-2.4917,-2.4746,-2.4559,-2.4359,-2.4142,-2.3928,-2.3928,-2.3884,-2.375,-2.3527,-2.3487,-2.342,-2.3255,-2.3308,-2.3375,-2.3375,-2.3688,-2.3834,-2.3522,-2.338,-2.3372,-2.3594,-2.3541,-2.3728,-2.4302,-2.4356,-2.4529,-2.4893,-2.513,-2.5237,-2.5237,-2.5411,-2.5558,-2.5665,-2.5678,-2.5812,-2.6145,-2.6145,-2.6305,-2.6547,-2.6734,-2.6934,-1.6926,-1.7675,-1.8356,-1.9546,-2.0054,-2.0304,-2.0646,-2.0441,-2.0184,-2.013,-1.9679,-1.9201,0.0,0.0,-1.8652,-1.9201,-1.9589,-1.98,-1.98,-2.0521,-2.0735,0.0,0.0,0.0,0.0,0.0,0.0,-2.1042,0.0,-2.1087,-2.1911,-2.1977,-2.2278,-2.2853,-2.2893,-2.2893,-2.2893,-2.2893,-2.2893,-2.2893,-2.2893,-2.2893,-2.2893,-2.2893,-2.2893,-2.2893,-2.292,-2.3255,-2.3803,-2.3817,-2.4128,-2.4599,-2.4599,-2.4599,-2.4599,-2.4599,-2.4599,-2.4599,-2.4599,-2.4599,-2.4599,-2.4599,-2.4599,-2.4599,-2.4599,-2.4599,-2.4599,-2.4599,-2.4599,-2.4599,-2.4599,-2.4599,-2.4599,-2.4599,-2.4422,-2.4222,-2.4222,-2.4008,-2.3843,-2.383,-2.3817,-2.3803,-2.3803,-2.3995,-2.4182,-2.4182,-2.4663,-2.4566,-2.3148,-2.322,-2.3372,-2.3359,-2.3647,-2.4048,-2.4572,-2.4626,-2.4866,-2.5478,-2.5531,-2.5531,-2.5531,-2.5545,-2.5692,-2.6011,-2.6011,-2.6158,-2.6413,-2.6413,-2.656,-2.6841,-2.6854,-2.7161,-1.7916,-1.8731,-1.9519,-2.0267,-2.0508,-2.0588,-2.0686,-2.0441,-1.9957,-1.9118,-1.8478,-1.7769,0.0,0.0,0.0,-1.7782,-1.892,0.0,-1.98,-1.9987,0.0,-2.009,0.0,-2.0264,-2.0441,-2.0485,0.0,0.0,-2.0842,-2.0993,-2.1662,-2.1903,-2.2151,-2.2525,-2.2786,-2.2893,-2.2893,-2.2893,-2.2893,-2.2893,-2.2893,-2.2893,-2.2893,-2.2893,-2.2893,-2.2907,-2.3113,-2.342,-2.383,-2.4008,-2.4302,-2.4599,-2.4599,-2.4599,-2.4599,-2.4599,-2.4599,-2.4599,-2.4599,-2.4599,-2.4599,-2.4599,-2.4599,-2.4599,-2.4599,-2.4599,-2.4599,-2.4599,-2.4599,-2.4599,-2.4599,-2.4599,-2.4599,-2.4599,-2.4546,-2.4492,-2.4492,-2.4426,-2.4356,-2.4142,-2.395,-2.3803,-2.3803,-2.387,-2.3888,-2.3888,-2.4195,-2.4289,-2.3915,-2.4315,-2.4556,-2.4292,-2.4332,-2.4569,-2.493,-2.497,-2.5117,-2.5491,-2.5718,-2.5877,-2.5877,-2.6052,-2.6199,-2.6319,-2.6319,-2.6426,-2.6707,-2.6707,-2.6867,-2.7202,-2.7375,-2.7562,-1.8971,-1.9706,-2.0294,-2.0748,-2.0806,-2.0605,-2.0217,-1.9773,-1.9092,-1.7782,-1.7034,-1.638,-1.5591,-1.6192,-1.6927,0.0,0.0,0.0,-1.976,-2.0027,-2.0201,0.0,-2.0317,0.0,-2.0686,-2.0712,-2.0748,0.0,-2.0806,-2.0967,-2.1588,-2.1863,-2.2124,-2.2371,-2.2746,-2.2893,-2.2893,-2.2893,-2.2893,-2.2893,-2.2893,-2.2893,-2.2893,-2.2893,-2.2893,-2.2907,0.0,-2.3367,-2.3817,-2.3941,-2.4262,-2.4599,-2.4599,-2.4599,-2.4599,-2.4599,-2.4599,-2.4599,-2.4599,-2.4599,-2.4599,-2.4599,-2.4599,-2.4599,-2.4599,-2.4599,-2.4599,-2.4599,-2.4599,-2.4599,-2.4599,-2.4599,-2.4599,-2.4599,-2.4599,-2.4599,-2.4599,-2.4599,-2.4559,-2.4386,-2.4262,-2.4195,-2.4365,-2.4379,-2.4379,-2.4379,-2.4703,-2.493,-2.4796,-2.4836,-2.4823,-2.4613,-2.4599,-2.4773,-2.5237,-2.5277,-2.5451,-2.5865,-2.6052,-2.6185,-2.6185,-2.6306,-2.6453,-2.6573,-2.6587,-2.672,-2.7014,-2.7014,-2.7175,-2.7455,-2.7629,-2.7762,-2.0,-2.0508,-2.0802,-2.1042,-2.0855,-2.0418,-1.9535,-1.8786,-1.7836,-1.6364,-1.5578,-1.507,-1.4812,-1.5297,-1.6128,-1.7354,0.0,-1.9116,-1.9773,-2.0294,-2.0535,-2.029,-2.0521,-2.0726,-2.0766,-2.0766,-2.0766,-2.0766,-2.0766,-2.0993,-2.1502,-2.1836,-2.2138,-2.2472,-2.276,-2.2893,-2.2893,-2.2893,-2.2893,-2.2893,-2.2893,-2.2893,-2.2893,-2.2893,-2.2893,-2.2893,0.0,0.0,-2.375,-2.379,-2.4088,-2.4546,-2.4586,-2.4599,-2.4599,-2.4599,-2.4599,-2.4599,-2.4599,-2.4599,-2.4599,-2.4599,-2.4599,-2.4599,-2.4599,-2.4599,-2.4599,-2.4599,-2.4599,-2.4599,-2.4599,-2.4599,-2.4599,-2.4599,-2.4599,-2.4599,-2.4599,-2.4599,-2.4599,-2.4599,-2.4599,-2.4679,-2.497,-2.5024,-2.5024,-2.5024,-2.5529,-2.5784,-2.5491,-2.5079,-2.4826,-2.4826,-2.4799,-2.4999,-2.5585,-2.5598,-2.5798,-2.636,-2.6386,-2.6413,-2.644,-2.6453,-2.6587,-2.6867,-2.6881,-2.7028,-2.7362,-2.7362,-2.751,-2.7762,-2.7762,-2.7923,-2.0414,-2.0815,-2.1042,-2.1096,-2.0677,-2.005,-1.9199,-1.7969,0.0,-1.5124,-1.4327,-1.3834,-1.3574,-1.4589,-1.5858,-1.706,-1.8183,-1.9183,-2.001,-2.021,-2.0374,0.0,-2.0641,-2.0806,-2.1015,-2.1029,0.0,0.0,0.0,-2.1082,-2.1176,-2.1697,-2.2265,-2.28,-2.2867,-2.2893,-2.2893,-2.2893,-2.2893,-2.2893,-2.2893,-2.2893,-2.2893,-2.2893,-2.2893,-2.2893,-2.2893,0.0,-2.342,-2.371,-2.3968,-2.4302,-2.4506,-2.4599,-2.4599,-2.4599,-2.4599,-2.4599,-2.4599,-2.4599,-2.4599,-2.4599,-2.4599,-2.4599,-2.4599,-2.4599,-2.4599,-2.4599,-2.4599,-2.4599,-2.4599,-2.4599,-2.4599,-2.4599,-2.4599,-2.4599,-2.4599,-2.4599,-2.4599,-2.4599,-2.4599,-2.4613,-2.4666,-2.4679,-2.4679,-2.4679,-2.501,-2.5248,-2.5157,-2.5705,-2.6092,-2.6092,-2.5904,-2.5904,-2.6213,-2.6051,-2.6065,-2.6373,-2.6386,-2.6493,-2.6734,-2.6747,-2.6881,-2.7229,-2.7229,-2.7335,-2.7629,-2.7629,-2.7817,-2.8112,-2.8112,-2.8272,-2.0748,-2.1002,-2.1069,-2.0922,-2.0334,-1.9426,-1.8076,0.0,0.0,-1.3707,-1.3007,-1.2719,-1.2732,-1.3674,-1.4901,-1.6246,-1.7074,-1.8009,-1.933,-1.9397,-1.9613,-2.0361,-2.0588,-2.082,0.0,-2.1109,0.0,0.0,0.0,-2.1109,-2.1109,-2.167,-2.2291,-2.288,-2.2893,-2.2893,-2.2893,-2.2893,-2.2893,-2.2893,-2.2893,-2.2893,-2.2893,-2.2893,-2.2893,-2.2893,-2.2893,0.0,-2.3319,-2.3647,-2.3977,-2.4235,-2.4492,-2.4599,-2.4599,-2.4599,-2.4599,-2.4599,-2.4599,-2.4599,-2.4599,-2.4599,-2.4599,-2.4599,-2.4599,-2.4599,-2.4599,-2.4599,-2.4599,-2.4599,-2.4599,-2.4599,-2.4599,-2.4599,-2.4599,-2.4599,-2.4599,-2.4599,-2.4599,-2.4599,-2.4599,-2.4599,-2.4599,-2.4599,-2.4599,-2.4599,-2.489,-2.5115,-2.5115,-2.5585,-2.5985,-2.6185,-2.6078,-2.6118,-2.636,-2.64,-2.6466,-2.66,-2.676,-2.6948,-2.7041,-2.7054,-2.7188,-2.7482,-2.7495,-2.7684,-2.7965,-2.7965,-2.8125,-2.8433,-2.8433,-2.8537,-2.0855,-2.1069,-2.1042,-2.0779,-2.0003,-1.8853,-1.7101,-1.5658,-1.4236,-1.2545,-1.1948,-1.1788,-1.2064,-1.278,-1.3834,0.0,-1.5952,-1.678,-1.8463,-1.8704,-1.9038,0.0,-2.0454,0.0,-2.1082,-2.1109,0.0,0.0,0.0,0.0,-2.1203,-2.1697,-2.2231,-2.2786,-2.2867,-2.2893,-2.2893,-2.2893,-2.2893,-2.2893,-2.2893,-2.2893,-2.2893,-2.2893,-2.2893,-2.2893,-2.2893,0.0,0.0,-2.3656,-2.3901,-2.4142,-2.4466,-2.4599,-2.4599,-2.4599,-2.4599,-2.4599,-2.4599,-2.4599,-2.4599,-2.4599,-2.4599,-2.4599,-2.4599,-2.4599,-2.4599,-2.4599,-2.4599,-2.4599,-2.4599,-2.4599,-2.4599,-2.4599,-2.4599,-2.4599,-2.4599,-2.4653,-2.4693,-2.4693,-2.4746,-2.4786,-2.4786,-2.4786,-2.4813,-2.4879,-2.5117,-2.5291,-2.5358,-2.5558,-2.5812,-2.6145,-2.6078,-2.6145,-2.6453,-2.6694,-2.6854,-2.6907,-2.7134,-2.7336,-2.7403,-2.7403,-2.7536,-2.7789,-2.7789,-2.7951,-2.8179,-2.8259,-2.8406,-2.8604,-2.8671,-2.8858,-2.0561,-2.0909,-2.1042,-2.0779,-1.9813,-1.8543,-1.7048,-1.5154,-1.3393,-1.2189,-1.148,-1.1169,-1.1432,-1.1993,0.0,0.0,0.0,-1.6368,-1.7862,-1.8798,-1.9455,-1.98,0.0,0.0,-2.1082,-2.1109,0.0,0.0,0.0,0.0,-2.1529,-2.185,-2.2124,-2.2445,-2.276,-2.2893,-2.2893,-2.2893,-2.2893,-2.2893,-2.2893,-2.2893,-2.2893,-2.2893,-2.2893,-2.2893,-2.2893,0.0,0.0,-2.3562,-2.3817,-2.3897,-2.4386,-2.4599,-2.4599,-2.4599,-2.4599,-2.4599,-2.4599,-2.4599,-2.4599,-2.4599,-2.4599,-2.4599,-2.4599,-2.4599,-2.4599,-2.4599,-2.4599,-2.4599,-2.4599,-2.4599,-2.4599,-2.4599,-2.4599,-2.4599,-2.4599,-2.485,-2.5037,-2.5037,-2.5251,-2.5438,-2.5438,-2.5438,-2.5531,-2.5837,-2.5891,-2.6011,-2.6239,-2.6293,-2.6426,-2.6707,-2.6266,-2.6225,-2.6734,-2.6814,-2.6934,-2.7242,-2.7296,-2.7429,-2.7642,-2.7655,-2.7844,-2.8138,-2.8138,-2.8165,-2.8179,-2.843,-2.8577,-2.8617,-2.8828,-2.9165,-2.0498,-2.0895,-2.1002,-2.0521,-1.9533,-1.8223,-1.6528,-1.4701,-1.302,-1.1833,-1.1159,-1.0838,-1.1116,-1.1356,-1.2037,-1.3661,0.0,0.0,-1.6435,-1.7168,-1.797,-1.9132,-1.9786,0.0,0.0,0.0,0.0,0.0,0.0,0.0,-2.1283,-2.1737,-2.2124,-2.2371,-2.2746,-2.2893,-2.2893,-2.2893,-2.2893,-2.2893,-2.2893,-2.2893,-2.2893,-2.2893,-2.2893,-2.2893,-2.2893,0.0,0.0,-2.3549,-2.3803,-2.387,-2.4372,-2.4599,-2.4599,-2.4599,-2.4599,-2.4599,-2.4599,-2.4599,-2.4599,-2.4599,-2.4599,-2.4599,-2.4599,-2.4599,-2.4599,-2.4599,-2.4599,-2.4599,-2.4599,-2.4599,-2.4639,-2.4863,-2.4903,-2.4957,-2.513,-2.5264,-2.5344,-2.5344,-2.5438,-2.5518,-2.5518,-2.5518,-2.5611,-2.5957,-2.5837,-2.5798,-2.6131,-2.6172,-2.6239,-2.6533,-2.6507,-2.664,-2.7054,-2.7255,-2.7402,-2.7522,-2.7737,-2.7884,-2.8005,-2.8005,-2.8058,-2.8179,-2.8179,-2.8272,-2.8417,-2.8551,-2.8791,-2.9138,-2.9245,-2.9459,-1.9947,-2.0494,-2.0677,-2.012,-1.9092,-1.7782,-1.6061,-1.4335,-1.2759,-1.1633,-1.0969,-1.0653,-1.0838,-1.0958,-1.1396,-1.2612,0.0,-1.3541,-1.5324,-1.6003,-1.6859,-1.8343,0.0,-1.976,0.0,0.0,0.0,0.0,0.0,0.0,0.0,-2.159,-2.1991,-2.2285,-2.2579,-2.2813,-2.2893,-2.2893,-2.2893,-2.2893,-2.2893,-2.2893,-2.2893,-2.2893,-2.2893,-2.2893,0.0,0.0,0.0,-2.342,-2.3688,-2.3857,-2.4315,-2.4519,-2.4599,-2.4599,-2.4599,-2.4599,-2.4599,-2.4599,-2.4599,-2.4599,-2.4599,-2.4599,-2.4599,-2.4599,-2.4599,-2.4599,-2.4599,-2.4613,-2.4706,-2.477,-2.4836,-2.513,-2.5211,-2.5264,-2.5464,-2.5585,-2.5638,-2.5638,-2.5718,-2.5772,-2.5772,-2.5772,-2.5865,-2.6212,-2.6039,-2.6012,-2.6346,-2.6453,-2.6586,-2.6747,-2.7041,-2.7268,-2.7429,-2.7655,-2.7871,-2.7871,-2.8072,-2.8179,-2.8179,-2.8179,-2.8232,-2.8326,-2.8326,-2.843,-2.8738,-2.8818,-2.9072,-2.9486,-2.9566,-2.9726,-1.8756,-1.9543,-2.0077,-1.9548,-1.8505,-1.7234,-1.5738,-1.407,-1.2543,-1.1593,-1.0969,-1.0602,-1.06,-1.0811,-1.1213,-1.1801,-1.2625,0.0,-1.4825,-1.5748,-1.6632,0.0,0.0,-1.8851,0.0,0.0,0.0,0.0,0.0,0.0,0.0,-2.1422,-2.1729,-2.201,-2.2271,-2.2565,-2.2893,-2.2893,-2.2893,-2.2893,-2.2893,-2.2893,-2.2893,-2.2893,-2.2893,0.0,0.0,0.0,0.0,-2.3207,-2.35,-2.383,-2.4088,-2.4382,-2.4599,-2.4599,-2.4599,-2.4599,-2.4599,-2.4599,-2.4599,-2.4599,-2.4599,-2.4599,-2.4599,-2.4599,-2.4599,-2.4599,-2.4599,-2.4666,-2.4997,-2.5077,-2.5144,-2.5438,-2.5504,-2.5504,-2.5518,-2.5745,-2.5998,-2.5998,-2.6225,-2.6386,-2.6386,-2.6386,-2.648,-2.6774,-2.6774,-2.6921,-2.7255,-2.7509,-2.7682,-2.7682,-2.7991,-2.8045,-2.7722,-2.8005,-2.8179,-2.8179,-2.8179,-2.8179,-2.8179,-2.8179,-2.8326,-2.8591,-2.8604,-2.8751,-2.8988,-2.9325,-2.9472,-2.9486,-2.978,-2.9913,-1.7301,-1.8036,-1.8516,-1.7742,-1.714,-1.6324,-1.4865,-1.3608,-1.2476,-1.1356,-1.0838,-1.0602,-1.0602,-1.0667,-1.1172,-1.2559,-1.3026,0.0,0.0,0.0,0.0,-1.7796,-1.9305,-2.0388,0.0,0.0,0.0,0.0,0.0,0.0,0.0,-2.1203,-2.139,-2.1716,-2.2164,-2.2458,-2.2565,-2.28,-2.2893,-2.2893,-2.2893,-2.2893,-2.2893,-2.2893,0.0,0.0,0.0,0.0,0.0,-2.3193,-2.3345,-2.3514,-2.4008,-2.4262,-2.4369,-2.4532,-2.4599,-2.4599,-2.4599,-2.4599,-2.4599,-2.4599,-2.4599,-2.4599,-2.4599,-2.4599,-2.4599,-2.4599,-2.4599,-2.4666,-2.4997,-2.5115,-2.5248,-2.5743,-2.585,-2.5904,-2.6066,-2.6186,-2.6253,-2.6253,-2.6333,-2.6386,-2.6386,-2.6386,-2.6493,-2.6774,-2.6653,-2.6627,-2.6921,-2.7041,-2.7175,-2.7375,-2.771,-2.7924,-2.8031,-2.8125,-2.8179,-2.8179,-2.8179,-2.8179,-2.8179,-2.8393,-2.8511,-2.8604,-2.8761,-2.9045,-2.9339,-2.9446,-2.9579,-2.978,-2.9873,-3.002,-1.5952,-1.678,-1.7195,-1.6515,-1.6072,-1.5454,-1.4068,-1.3086,-1.2181,-1.1213,-1.0801,-1.0602,-1.0602,-1.068,-1.1106,-1.2198,-1.2746,0.0,0.0,0.0,0.0,-1.8063,0.0,0.0,0.0,0.0,0.0,0.0,0.0,0.0,0.0,-2.1109,-2.1189,-2.1408,-2.1844,-2.2205,-2.2418,-2.2605,-2.2786,-2.2893,-2.2893,-2.2893,-2.2893,-2.2893,0.0,0.0,0.0,0.0,0.0,-2.3073,-2.322,-2.3345,-2.3848,-2.4102,-2.4235,-2.4492,-2.4599,-2.4599,-2.4599,-2.4599,-2.4599,-2.4599,-2.4599,-2.4599,-2.4599,-2.4599,-2.4626,-2.4733,-2.4796,-2.4903,-2.5342,-2.5449,-2.5569,-2.6051,-2.6158,-2.6212,-2.6346,-2.6386,-2.6386,-2.6386,-2.6386,-2.6386,-2.6386,-2.6386,-2.6453,-2.6627,-2.6507,-2.6453,-2.664,-2.6747,-2.6934,-2.7269,-2.7522,-2.7816,-2.8165,-2.8179,-2.8179,-2.8179,-2.8179,-2.8232,-2.8353,-2.8497,-2.8711,-2.8938,-2.9112,-2.9352,-2.9646,-2.9646,-2.974,-2.9913,-3.0034,-3.0181,0.0,-1.5601,-1.5963,-1.5608,-1.515,-1.4504,-1.3347,-1.2457,0.0,-1.1089,-1.0758,-1.06,-1.064,-1.0825,-1.1025,-1.1156,-1.2141,0.0,0.0,-1.5025,0.0,0.0,-1.9372,0.0,0.0,0.0,0.0,0.0,0.0,0.0,0.0,-2.1109,-2.1109,-2.1109,-2.1408,-2.1823,-2.2352,-2.2392,-2.2565,-2.2867,-2.288,-2.2893,-2.2893,-2.2893,0.0,0.0,0.0,0.0,0.0,-2.2893,-2.3033,-2.3327,-2.3647,-2.3941,-2.4209,-2.4479,-2.4599,-2.4599,-2.4599,-2.4599,-2.4599,-2.4599,-2.4599,-2.4599,-2.4599,-2.4599,-2.4666,-2.4997,-2.5115,-2.5248,-2.5837,-2.5998,-2.6065,-2.6319,-2.6386,-2.6386,-2.6386,-2.6386,-2.6386,-2.6386,-2.6386,-2.6386,-2.6386,-2.6386,-2.6386,-2.6386,-2.6386,-2.6386,-2.6386,-2.6627,-2.6907,-2.7269,-2.7509,-2.7789,-2.8165,-2.8179,-2.8179,-2.8179,-2.8205,-2.8353,-2.8591,-2.8644,-2.8925,-2.9472,-2.9499,-2.9646,-2.9913,-2.9913,-2.9913,-2.9927,-3.0221,-3.0413,-1.2457,0.0,-1.3494,-1.2952,-1.2885,-1.2746,0.0,-1.1659,-1.1369,-1.0814,-1.064,-1.0734,-1.1142,-1.0932,-1.1199,-1.274,0.0,-1.378,-1.4843,0.0,0.0,-1.9637,0.0,0.0,0.0,0.0,0.0,0.0,0.0,0.0,0.0,-2.1109,-2.1109,-2.1109,-2.1176,-2.139,-2.1783,-2.2191,-2.2458,-2.2525,-2.2786,-2.2893,-2.2893,-2.2893,0.0,0.0,0.0,0.0,-2.2893,-2.2893,-2.2934,-2.3054,-2.3603,-2.3843,-2.3928,-2.4412,-2.4599,-2.4599,-2.4599,-2.4599,-2.4599,-2.4599,-2.4599,-2.4599,-2.4599,-2.4599,-2.4666,-2.4997,-2.5115,-2.5248,-2.5837,-2.5998,-2.6065,-2.6319,-2.6386,-2.6386,-2.6386,-2.6386,-2.6386,-2.6386,-2.6386,-2.6386,-2.6386,-2.6386,-2.6386,-2.6386,-2.6386,-2.6386,-2.6386,-2.6453,-2.6694,-2.7255,-2.7362,-2.7617,-2.8138,-2.8179,-2.8179,-2.8179,-2.8406,-2.8537,-2.8604,-2.9032,-2.9339,-2.9486,-2.97,-2.9847,-2.9913,-2.9913,-2.9913,-2.9927,-3.0221,-3.052,-1.1216,-1.2051,-1.2722,-1.2382,-1.2422,-1.2377,-1.177,-1.1423,-1.1102,-1.068,-1.0602,-1.0734,-1.1142,-1.1076,-1.141,-1.278,-1.3333,0.0,0.0,0.0,-1.9078,-2.0077,0.0,0.0,0.0,0.0,0.0,0.0,0.0,0.0,0.0,-2.1109,-2.1109,-2.1109,-2.1109,-2.1256,-2.1614,-2.189,-2.2084,-2.2218,-2.2512,-2.2659,-2.2659,-2.284,-2.2893,0.0,0.0,0.0,-2.2893,-2.2893,-2.2893,-2.2947,-2.338,-2.3647,-2.3857,-2.4275,-2.4479,-2.4599,-2.4599,-2.4599,-2.4599,-2.4599,-2.4599,-2.4599,-2.4599,-2.4693,-2.4903,-2.5197,-2.5384,-2.5623,-2.6078,-2.6198,-2.6238,-2.636,-2.6386,-2.6386,-2.6386,-2.6386,-2.6386,-2.6386,-2.6386,-2.6386,-2.6386,-2.6386,-2.6386,-2.6386,-2.6386,-2.6386,-2.6386,-2.6386,-2.6613,-2.7242,-2.7309,-2.755,-2.8138,-2.8312,-2.8393,-2.8393,-2.8511,-2.8724,-2.8991,-2.9312,-2.9539,-2.9673,-2.9833,-2.9913,-2.9913,-2.9913,-2.998,-3.0127,-3.0421,-3.0715,-1.068,-1.1698,-1.2677,-1.2508,-1.2534,-1.2422,-1.1846,-1.1306,-1.0878,-1.064,-1.0626,-1.0774,-1.1129,-1.1379,0.0,0.0,0.0,0.0,-1.706,-1.8263,-1.9223,0.0,0.0,0.0,0.0,0.0,0.0,0.0,0.0,0.0,0.0,-2.1109,-2.1109,-2.1109,-2.1109,-2.1229,-2.1515,-2.1569,-2.1703,-2.1924,-2.2218,-2.2378,-2.2432,-2.2686,-2.2853,0.0,0.0,0.0,-2.2893,-2.2893,-2.2893,-2.2934,-2.3207,-2.3514,-2.3843,-2.4102,-2.4382,-2.4599,-2.4599,-2.4599,-2.4599,-2.4599,-2.4599,-2.4599,-2.4599,-2.4877,-2.5197,-2.5451,-2.5732,-2.6065,-2.6319,-2.6386,-2.6386,-2.6386,-2.6386,-2.6386,-2.6386,-2.6386,-2.6386,-2.6386,-2.6386,-2.6386,-2.6386,-2.6386,-2.6386,-2.6386,-2.6386,-2.6386,-2.6386,-2.6386,-2.66,-2.7134,-2.7242,-2.7496,-2.8125,-2.8433,-2.8591,-2.8738,-2.8738,-2.8978,-2.9526,-2.9553,-2.9659,-2.9913,-2.9913,-2.9913,-2.9913,-2.9913,-3.0074,-3.0413,-3.0662,-3.0942,-1.1022,-1.1824,-1.2149,-1.1176,-1.1279,-1.1476,-1.0921,-1.072,-1.064,-1.06,-1.0787,-1.1186,-1.1957,-1.2131,-1.2593,0.0,0.0,-1.6128,0.0,0.0,0.0,0.0,0.0,0.0,0.0,0.0,0.0,0.0,0.0,0.0,0.0,-2.1109,-2.1109,-2.1109,-2.1109,-2.1136,-2.1176,-2.1462,-2.1609,-2.1649,-2.1943,-2.2178,-2.2385,-2.2472,-2.2619,0.0,0.0,-2.2893,-2.2893,-2.2893,-2.2893,-2.2934,-2.3207,-2.3514,-2.3843,-2.4102,-2.4382,-2.4599,-2.4599,-2.4599,-2.4599,-2.4599,-2.4599,-2.4599,-2.4599,-2.4973,-2.5451,-2.5504,-2.5732,-2.6065,-2.6319,-2.6386,-2.6386,-2.6386,-2.6386,-2.6386,-2.6386,-2.6386,-2.6386,-2.6386,-2.6386,-2.6386,-2.6386,-2.6386,-2.6386,-2.6386,-2.6386,-2.6386,-2.6386,-2.6386,-2.652,-2.6854,-2.6894,-2.7228,-2.8112,-2.8232,-2.858,-2.9299,-2.9352,-2.9499,-2.9833,-2.9847,-2.9873,-2.9913,-2.9913,-2.9913,-2.9913,-2.9913,-3.0074,-3.0413,-3.0662,-3.0942,-1.0552,-1.1142,-1.1543,-1.1363,-1.1957,-1.25,-1.2091,-1.1748,-1.152,-1.152,-1.1627,-1.1917,-1.2652,0.0,-1.3801,-1.5431,0.0,-1.7181,0.0,0.0,0.0,0.0,0.0,0.0,0.0,0.0,0.0,0.0,0.0,0.0,0.0,0.0,-2.1109,-2.1109,-2.1109,-2.1109,-2.1109,-2.1243,-2.1341,-2.1309,-2.1649,-2.185,-2.1997,-2.2271,-2.2485,-2.2632,0.0,-2.2893,-2.2893,-2.2893,-2.2893,-2.2907,-2.3054,-2.326,-2.3581,-2.4035,-2.4382,-2.4599,-2.4599,-2.4599,-2.4599,-2.4599,-2.4599,-2.4626,-2.4823,-2.517,-2.5545,-2.5705,-2.5998,-2.6265,-2.636,-2.6386,-2.6386,-2.6386,-2.6386,-2.6386,-2.6386,-2.6386,-2.6386,-2.6386,-2.6386,-2.6386,-2.6386,-2.6386,-2.6386,-2.6386,-2.6386,-2.6386,-2.6386,-2.6533,-2.6734,-2.7028,-2.7348,-2.7776,-2.8393,-2.8727,-2.9088,-2.9459,-2.9633,-2.978,-2.9913,-2.9913,-2.9913,-2.9913,-2.9913,-2.9913,-2.9913,-3.0074,-3.0301,-3.0595,-3.0889,-3.1183,-1.0339,-1.0701,-1.1172,-1.1828,-1.2526,-1.312,-1.326,-1.2786,-1.2385,-1.2665,-1.2719,-1.2879,0.0,-1.4162,0.0,-1.6673,-1.7408,0.0,0.0,0.0,0.0,0.0,0.0,0.0,0.0,0.0,0.0,0.0,0.0,0.0,0.0,0.0,-2.1109,-2.1109,-2.1109,-2.1109,-2.1109,-2.1109,-2.1109,-2.1109,-2.1368,-2.1515,-2.1596,-2.2017,-2.2285,-2.2398,-2.2659,-2.284,-2.2893,-2.2893,-2.2893,-2.2893,-2.2893,-2.31,-2.3487,-2.4008,-2.4382,-2.4599,-2.4599,-2.4599,-2.4599,-2.4599,-2.4599,-2.4653,-2.4997,-2.5277,-2.5571,-2.5917,-2.6198,-2.6386,-2.6386,-2.6386,-2.6386,-2.6386,-2.6386,-2.6386,-2.6386,-2.6386,-2.6386,-2.6386,-2.6386,-2.6386,-2.6386,-2.6386,-2.6386,-2.6386,-2.6386,-2.6413,-2.648,-2.668,-2.6934,-2.7269,-2.771,-2.8165,-2.8564,-2.9205,-2.9579,-2.9579,-2.9793,-2.9913,-2.9913,-2.9913,-2.9913,-2.9913,-2.9913,-2.9913,-2.9913,-3.0266,-3.056,-3.0795,-3.1089,-3.1383,-1.1019,-1.1169,-1.1196,-1.2064,-1.1913,-1.1908,-1.3267,-1.2913,-1.2612,-1.3734,-1.3961,-1.4055,0.0,-1.5555,-1.674,-1.7408,-1.8023,0.0,0.0,0.0,0.0,0.0,0.0,0.0,0.0,0.0,0.0,0.0,0.0,0.0,0.0,0.0,0.0,-2.1109,-2.1109,-2.1109,-2.1109,-2.1109,-2.1109,-2.1109,-2.1136,-2.1283,-2.1582,-2.1622,-2.1943,-2.2385,-2.2445,-2.2605,-2.2893,-2.2893,-2.2893,-2.2893,-2.2893,-2.3255,-2.3817,-2.4088,-2.4382,-2.4599,-2.4599,-2.4599,-2.4599,-2.4599,-2.4599,-2.4653,-2.4997,-2.5277,-2.5571,-2.5917,-2.6198,-2.6386,-2.6386,-2.6386,-2.6386,-2.6386,-2.6386,-2.6386,-2.6386,-2.6386,-2.6386,-2.6386,-2.6386,-2.6386,-2.6386,-2.6386,-2.6386,-2.6386,-2.6386,-2.6493,-2.676,-2.6814,-2.6934,-2.7269,-2.7349,-2.7724,-2.8537,-2.9392,-2.9887,-2.9887,-2.99,-2.9913,-2.9913,-2.9913,-2.9913,-2.9913,-2.9913,-2.9913,-2.9913,-3.0266,-3.056,-3.0795,-3.1089,-3.1383,-1.0472,-1.0795,-1.1209,-1.2078,-1.2406,-1.2753,-1.3707,-1.4082,-1.4456,-1.5307,-1.5591,-1.5752,0.0,0.0,-1.7193,-1.7756,-1.8357,0.0,0.0,0.0,0.0,0.0,0.0,0.0,0.0,0.0,0.0,0.0,0.0,0.0,0.0,0.0,0.0,-2.1096,-2.1109,-2.1109,-2.1109,-2.1109,-2.1109,-2.1109,-2.1109,-2.1162,-2.1315,-2.1502,-2.1796,-2.2164,-2.2338,-2.2592,-2.2893,-2.2893,-2.2893,-2.2893,-2.2893,-2.3268,-2.3817,-2.3888,-2.4235,-2.4599,-2.4599,-2.4599,-2.4599,-2.4599,-2.4599,-2.4693,-2.5211,-2.5424,-2.5611,-2.6092,-2.6306,-2.6386,-2.6386,-2.6386,-2.6386,-2.6386,-2.6386,-2.6386,-2.6386,-2.6386,-2.6386,-2.6386,-2.6386,-2.6386,-2.6386,-2.6386,-2.6453,-2.6627,-2.6653,-2.676,-2.7054,-2.7255,-2.7415,-2.7522,-2.7869,-2.839,-2.9098,-2.9459,-2.9726,-2.99,-2.9913,-2.9913,-2.9913,-2.9913,-2.9913,-2.9913,-2.9913,-3.0007,-3.0194,-3.0533,-3.0782,-3.1076,-3.137,-3.1557,-1.0301,-1.057,-1.1065,-1.1824,-1.2545,-1.334,-1.4282,-1.4963,-1.5645,-1.6538,-1.6792,-1.6846,-1.6727,0.0,0.0,0.0,0.0,0.0,0.0,0.0,0.0,0.0,0.0,0.0,0.0,0.0,0.0,0.0,0.0,0.0,0.0,0.0,0.0,0.0,-2.0975,-2.1015,-2.1109,-2.1109,-2.1109,-2.1109,-2.1109,-2.1109,-2.1122,-2.1355,-2.1609,-2.1903,-2.2151,-2.2445,-2.276,-2.2853,-2.2893,-2.2893,-2.2893,-2.3268,-2.3803,-2.3803,-2.4142,-2.4599,-2.4599,-2.4599,-2.4599,-2.4599,-2.4599,-2.4706,-2.5331,-2.5518,-2.5638,-2.6226,-2.6386,-2.6386,-2.6386,-2.6386,-2.6386,-2.6386,-2.6386,-2.6386,-2.6386,-2.6386,-2.6386,-2.6386,-2.6386,-2.6386,-2.6386,-2.6466,-2.66,-2.6747,-2.6907,-2.7068,-2.7403,-2.7575,-2.7736,-2.7871,-2.8297,-2.8778,-2.9179,-2.9379,-2.9566,-2.9766,-2.986,-2.9913,-2.9913,-2.9913,-2.9913,-2.9913,-2.9913,-3.006,-3.04,-3.0648,-3.0942,-3.1236,-3.153,-3.1711,-1.0747,-1.06,-1.0747,-1.1272,-1.2122,-1.3266,-1.5003,-1.5404,-1.5818,-1.7314,-1.7381,-1.7086,-1.6767,-1.7194,0.0,0.0,0.0,0.0,0.0,0.0,0.0,0.0,0.0,0.0,0.0,0.0,0.0,0.0,0.0,0.0,0.0,0.0,0.0,0.0,-2.0699,-2.0815,-2.1096,-2.1109,-2.1109,-2.1109,-2.1109,-2.1109,-2.1109,-2.1109,-2.1269,-2.1596,-2.189,-2.2151,-2.2445,-2.2773,-2.2893,-2.2893,-2.2893,-2.3268,-2.3803,-2.3803,-2.4142,-2.4599,-2.4599,-2.4599,-2.4599,-2.4599,-2.4599,-2.4706,-2.5331,-2.5518,-2.5638,-2.6226,-2.6386,-2.6386,-2.6386,-2.6386,-2.6386,-2.6386,-2.6386,-2.6386,-2.6386,-2.6386,-2.6386,-2.6386,-2.6386,-2.6386,-2.6386,-2.6627,-2.6787,-2.6787,-2.7081,-2.7416,-2.7669,-2.7696,-2.7816,-2.8152,-2.846,-2.8604,-2.8604,-2.9138,-2.9472,-2.9486,-2.9753,-2.9913,-2.9913,-2.9913,-2.9913,-2.9913,-2.9913,-3.0074,-3.0413,-3.0662,-3.0942,-3.1189,-3.153,-3.1711,-1.0354,-1.0701,-1.1303,-1.1904,-1.3333,-1.4879,-1.5829,-1.6166,-1.6687,-1.7956,-1.7836,-1.7448,-1.7341,0.0,0.0,0.0,0.0,0.0,0.0,0.0,0.0,0.0,0.0,0.0,0.0,0.0,0.0,0.0,0.0,0.0,0.0,0.0,0.0,0.0,-2.033,-2.0508,-2.0833,-2.0802,-2.0909,-2.1109,-2.1109,-2.1109,-2.1109,-2.1109,-2.1269,-2.1582,-2.1676,-2.1997,-2.2445,-2.2773,-2.2893,-2.2893,-2.2893,-2.3113,-2.3487,-2.3688,-2.4008,-2.4369,-2.4532,-2.4599,-2.4599,-2.4599,-2.4599,-2.4706,-2.5331,-2.5518,-2.5638,-2.6226,-2.6386,-2.6386,-2.6386,-2.6386,-2.6386,-2.6386,-2.6386,-2.6386,-2.6386,-2.6386,-2.6386,-2.6386,-2.6386,-2.6386,-2.6386,-2.6627,-2.6894,-2.7108,-2.7388,-2.7724,-2.8018,-2.8045,-2.8085,-2.8179,-2.8272,-2.8406,-2.8591,-2.8764,-2.9045,-2.9459,-2.9566,-2.97,-2.9913,-2.9913,-2.9913,-2.9913,-3.0127,-3.0368,-3.0662,-3.0955,-3.1249,-3.1543,-3.1623,-3.1711,-1.0795,-1.1289,-1.1979,-1.2946,-1.4215,-1.5494,-1.6431,-1.6872,-1.7261,0.0,-1.7862,-1.7608,-1.7608,-1.7608,0.0,0.0,0.0,0.0,0.0,0.0,0.0,0.0,0.0,0.0,0.0,0.0,0.0,0.0,0.0,0.0,0.0,0.0,0.0,0.0,-2.0024,-2.0201,-2.0494,-2.0494,-2.0655,-2.0935,-2.0935,-2.1002,-2.1109,-2.1109,-2.1203,-2.1422,-2.1649,-2.1991,-2.2445,-2.2773,-2.2893,-2.2893,-2.2893,-2.3046,-2.3332,-2.3696,-2.3955,-2.4249,-2.4492,-2.4599,-2.4599,-2.4599,-2.4599,-2.4693,-2.5197,-2.5424,-2.5611,-2.6079,-2.6346,-2.6386,-2.6386,-2.6386,-2.6386,-2.6386,-2.6386,-2.6386,-2.6386,-2.6386,-2.6386,-2.6386,-2.6386,-2.6386,-2.6386,-2.672,-2.7054,-2.7282,-2.7657,-2.7978,-2.8165,-2.8179,-2.8179,-2.8179,-2.8179,-2.8259,-2.8446,-2.8537,-2.8804,-2.9272,-2.9419,-2.9619,-2.99,-2.9913,-2.9913,-2.9913,-3.0207,-3.0547,-3.0795,-3.1089,-3.1383,-3.1711,-3.1711,-3.1711,-1.1654,-1.2037,-1.2652,-1.4127,-1.483,-1.5494,-1.6884,-1.7394,-1.7608,-1.7608,0.0,-1.7608,-1.7608,0.0,0.0,0.0,0.0,0.0,0.0,0.0,0.0,0.0,0.0,0.0,0.0,0.0,0.0,0.0,0.0,0.0,0.0,0.0,0.0,-1.976,-1.976,-1.9907,-2.0157,-2.0157,-2.0347,0.0,-2.0699,-2.0846,-2.1069,-2.1096,-2.1109,-2.1136,-2.1697,-2.2111,-2.2405,-2.2733,-2.2867,-2.2893,-2.2893,-2.3033,-2.3292,-2.3621,-2.3915,-2.4209,-2.4452,-2.4572,-2.4599,-2.4599,-2.4599,-2.4653,-2.4997,-2.5277,-2.5571,-2.5917,-2.6198,-2.6386,-2.6386,-2.6386,-2.6386,-2.6386,-2.6386,-2.6386,-2.6386,-2.6386,-2.6386,-2.6386,-2.6386,-2.64,-2.6426,-2.6934,-2.7322,-2.7376,-2.7844,-2.8179,-2.8179,-2.8179,-2.8179,-2.8179,-2.8179,-2.8179,-2.8179,-2.8404,-2.8698,-2.8975,-2.9299,-2.9579,-2.99,-2.9913,-2.9927,-2.9953,-3.0247,-3.0587,-3.0835,-3.1129,-3.141,-3.1711,-3.1711,-3.1711,-1.1106,-1.173,-1.2652,-1.4127,-1.5431,-1.6498,-1.7072,-1.7394,-1.7608,-1.7608,-1.7608,-1.7608,-1.7608,0.0,0.0,0.0,0.0,0.0,0.0,0.0,0.0,0.0,0.0,0.0,0.0,0.0,0.0,0.0,0.0,0.0,0.0,0.0,0.0,-1.9481,-1.9495,-1.9599,-1.9893,-1.9893,-2.004,0.0,-2.0561,-2.0739,-2.0775,-2.1002,-2.1109,-2.1122,-2.1515,-2.1836,-2.2098,-2.2392,-2.2645,-2.2893,-2.2893,-2.2934,-2.3027,-2.3313,-2.3607,-2.3901,-2.4195,-2.4412,-2.4599,-2.4599,-2.4599,-2.4653,-2.4997,-2.5277,-2.5571,-2.5917,-2.6198,-2.6386,-2.6386,-2.6386,-2.6386,-2.6386,-2.6386,-2.6386,-2.6386,-2.6386,-2.6386,-2.6386,-2.6386,-2.6466,-2.6694,-2.7028,-2.7469,-2.7924,-2.8098,-2.8179,-2.8179,-2.8179,-2.8179,-2.8179,-2.8179,-2.8179,-2.8179,-2.8245,-2.847,-2.8961,-2.9055,-2.9366,-2.99,-2.9913,-3.002,-3.0306,-3.0555,-3.0849,-3.1129,-3.1436,-3.161,-3.1711,-3.1711,-3.1711,-1.1373,-1.2171,-1.316,-1.4923,-1.6032,-1.678,-1.7113,-1.7313,-1.7434,-1.7582,-1.7608,-1.7608,0.0,0.0,0.0,0.0,0.0,0.0,0.0,0.0,0.0,0.0,0.0,0.0,0.0,0.0,0.0,0.0,0.0,0.0,0.0,-1.9401,-1.9401,-1.9401,-1.9401,-1.9468,-1.9615,-1.9629,-1.9733,-1.9997,-2.0187,-2.0431,-2.0712,-2.0975,-2.1109,-2.1122,-2.1462,-2.1756,-2.2004,-2.2298,-2.2592,-2.2893,-2.2893,-2.2893,-2.2934,-2.3207,-2.3514,-2.3843,-2.4102,-2.4396,-2.4599,-2.4599,-2.4599,-2.4626,-2.4823,-2.517,-2.5545,-2.5705,-2.6052,-2.6386,-2.6386,-2.6386,-2.6386,-2.6386,-2.6386,-2.6386,-2.6386,-2.6386,-2.6386,-2.6386,-2.6386,-2.648,-2.6734,-2.7188,-2.767,-2.8125,-2.8179,-2.8179,-2.8179,-2.8179,-2.8179,-2.8179,-2.8179,-2.8179,-2.8179,-2.8179,-2.8379,-2.8761,-2.8921,-2.9202,-2.9686,-2.998,-3.0207,-3.04,-3.0648,-3.0942,-3.1176,-3.153,-3.1711,-3.1711,-3.1711,-3.1711,-1.165,-1.2746,-1.386,-1.5762,-1.642,-1.67,-1.6991,-1.7125,-1.7273,-1.7488,-1.7568,0.0,0.0,0.0,0.0,0.0,0.0,0.0,0.0,0.0,0.0,0.0,0.0,0.0,0.0,0.0,0.0,0.0,0.0,0.0,-1.9401,-1.9401,-1.9401,-1.9401,-1.9401,-1.9401,-1.9401,-1.9401,-1.9522,-1.972,-1.9773,-2.0107,-2.0712,-2.0922,-2.1069,-2.1122,-2.1395,-2.1676,-2.1937,-2.2218,-2.2525,-2.2827,-2.288,-2.2893,-2.2934,-2.3153,-2.3474,-2.3843,-2.4048,-2.4356,-2.4599,-2.4599,-2.4599,-2.4599,-2.4599,-2.5013,-2.5518,-2.5518,-2.5932,-2.6386,-2.6386,-2.6386,-2.6386,-2.6386,-2.6386,-2.6386,-2.6386,-2.6386,-2.6386,-2.6386,-2.6466,-2.6613,-2.6854,-2.7388,-2.7898,-2.8152,-2.8179,-2.8179,-2.8179,-2.8179,-2.8179,-2.8179,-2.8179,-2.8179,-2.8179,-2.8179,-2.8312,-2.8591,-2.8831,-2.9098,-2.9392,-2.9972,-3.0279,-3.0333,-3.0675,-3.1009,-3.1303,-3.1557,-3.1711,-3.1711,-3.1711,-3.1711,-1.0969,-1.2719,-1.4567,-1.5608,-1.6112,-1.6364,-1.6404,0.0,-1.7206,0.0,-1.7434,0.0,0.0,0.0,0.0,0.0,0.0,0.0,0.0,0.0,0.0,0.0,0.0,0.0,0.0,0.0,0.0,0.0,0.0,0.0,-1.9401,-1.9401,-1.9401,-1.9401,-1.9401,-1.9401,-1.9401,-1.9401,-1.9415,-1.9455,-1.9679,-2.0107,-2.0712,-2.0753,-2.0869,-2.1109,-2.1149,-2.1336,-2.1662,-2.1924,-2.2218,-2.2498,-2.28,-2.2893,-2.2893,-2.2947,-2.3322,-2.3817,-2.3843,-2.4182,-2.4599,-2.4599,-2.4599,-2.4599,-2.4599,-2.5013,-2.5518,-2.5518,-2.5932,-2.6386,-2.6386,-2.6386,-2.6386,-2.6386,-2.6386,-2.6386,-2.6386,-2.6386,-2.6386,-2.6386,-2.68,-2.7202,-2.7242,-2.7737,-2.8138,-2.8179,-2.8179,-2.8179,-2.8179,-2.8179,-2.8179,-2.8179,-2.8179,-2.8179,-2.8179,-2.8179,-2.8312,-2.8591,-2.8644,-2.8791,-2.9041,-2.9419,-2.9713,-2.9967,-3.0755,-3.1316,-3.161,-3.1698,-3.1711,-3.1711,-3.1711,-3.1711,-1.156,-1.3126,-1.4522,-1.5541,-1.5901,-1.6072,-1.6257,-1.6498,-1.6725,-1.6886,0.0,0.0,0.0,0.0,0.0,0.0,0.0,0.0,0.0,0.0,0.0,0.0,0.0,0.0,0.0,0.0,0.0,0.0,0.0,-1.9118,-1.9118,-1.9308,-1.9401,-1.9401,-1.9401,-1.9401,-1.9401,-1.9401,-1.9401,-1.9401,-1.9666,-2.0027,-2.0428,-2.0601,-2.0842,-2.1109,-2.1109,-2.1283,-2.1609,-2.1903,-2.2151,-2.2411,-2.2786,-2.2893,-2.2893,-2.2893,-2.3281,-2.3803,-2.3803,-2.4155,-2.4599,-2.4599,-2.4599,-2.4599,-2.4599,-2.5013,-2.5518,-2.5518,-2.5932,-2.6386,-2.6386,-2.6386,-2.6386,-2.6386,-2.6386,-2.6386,-2.6386,-2.6386,-2.6386,-2.6386,-2.6907,-2.7309,-2.7309,-2.7791,-2.8179,-2.8179,-2.8179,-2.8179,-2.8179,-2.8179,-2.8179,-2.8179,-2.8179,-2.8179,-2.8179,-2.8179,-2.8245,-2.8379,-2.8511,-2.8671,-2.8791,-2.9392,-2.978,-2.9913,-3.0621,-3.1129,-3.1423,-3.1583,-3.1711,-3.1711,-3.1711,-3.1711,-1.1855,-1.2979,-1.3862,-1.5141,-1.5475,-1.5595,0.0,0.0,-1.6246,0.0,0.0,0.0,0.0,0.0,0.0,0.0,0.0,0.0,0.0,0.0,0.0,0.0,0.0,0.0,0.0,0.0,0.0,0.0,-1.8651,-1.881,-1.889,-1.9132,-1.9321,-1.9388,-1.9401,-1.9401,-1.9401,-1.9401,-1.9401,-1.9401,-1.9586,-1.988,-2.021,-2.0468,-2.0762,-2.1109,-2.1109,-2.1229,-2.1502,-2.1783,-2.2044,-2.2338,-2.2632,-2.2827,-2.2893,-2.2893,-2.3228,-2.371,-2.3777,-2.4102,-2.4506,-2.4572,-2.4599,-2.4599,-2.4599,-2.5013,-2.5518,-2.5518,-2.5932,-2.6386,-2.6386,-2.6386,-2.6386,-2.6386,-2.6386,-2.6386,-2.6386,-2.6386,-2.6413,-2.6493,-2.6921,-2.7322,-2.7403,-2.7844,-2.8179,-2.8179,-2.8179,-2.8179,-2.8179,-2.8179,-2.8179,-2.8179,-2.8179,-2.8179,-2.8179,-2.8179,-2.8179,-2.8179,-2.8406,-2.8524,-2.8604,-2.9299,-2.9726,-2.9806,-3.0381,-3.0862,-3.1176,-3.145,-3.1644,-3.1711,-3.1711,-3.1711,-1.1072,-1.173,-1.2417,-1.4127,-1.4567,-1.4794,0.0,0.0,0.0,0.0,0.0,0.0,0.0,0.0,0.0,0.0,0.0,0.0,0.0,0.0,0.0,0.0,0.0,0.0,0.0,0.0,0.0,0.0,-1.8316,-1.8637,-1.8876,-1.8916,-1.9078,-1.9388,-1.9401,-1.9401,-1.9401,-1.9401,-1.9401,-1.9401,-1.9415,-1.9679,-2.0197,-2.0224,-2.0544,-2.1109,-2.1109,-2.1122,-2.1149,-2.1489,-2.1783,-2.2031,-2.2325,-2.2619,-2.2893,-2.2893,-2.3073,-2.3359,-2.3674,-2.3968,-2.4275,-2.4506,-2.4599,-2.4599,-2.4599,-2.5013,-2.5518,-2.5518,-2.5932,-2.6386,-2.6386,-2.6386,-2.6386,-2.6386,-2.6386,-2.6386,-2.6386,-2.6386,-2.6466,-2.6747,-2.7054,-2.7389,-2.7629,-2.7978,-2.8179,-2.8179,-2.8179,-2.8179,-2.8179,-2.8179,-2.8179,-2.8179,-2.8179,-2.8179,-2.8179,-2.8179,-2.8179,-2.8179,-2.8205,-2.8339,-2.8591,-2.8868,-2.9219,-2.9499,-3.0132,-3.0662,-3.1176,-3.1236,-3.1396,-3.1711,-3.1711,-3.1711,-1.0637,-1.1373,-1.2176,-1.3373,-1.4087,-1.4634,-1.5186,-1.5541,-1.5835,0.0,0.0,0.0,0.0,0.0,0.0,0.0,0.0,0.0,0.0,0.0,0.0,0.0,0.0,0.0,0.0,0.0,0.0,0.0,0.0,-1.8223,-1.8329,-1.8689,-1.8971,-1.9078,-1.9294,-1.9401,-1.9401,-1.9401,-1.9401,-1.9401,-1.9401,-1.9602,-1.996,-2.0117,-2.0454,-2.0842,-2.1029,-2.1109,-2.1136,-2.1462,-2.1756,-2.2017,-2.2311,-2.2605,-2.2893,-2.2893,-2.306,-2.3332,-2.3661,-2.3968,-2.4249,-2.4506,-2.4599,-2.4599,-2.4599,-2.5013,-2.5518,-2.5518,-2.5932,-2.6386,-2.6386,-2.6386,-2.6386,-2.6386,-2.6386,-2.644,-2.6627,-2.6667,-2.6694,-2.676,-2.7215,-2.7575,-2.7682,-2.7991,-2.8125,-2.7924,-2.8058,-2.8112,-2.7924,-2.8072,-2.8179,-2.8179,-2.8179,-2.8179,-2.8179,-2.8179,-2.8179,-2.8179,-2.8366,-2.8484,-2.8604,-2.9072,-2.9379,-2.9486,-2.9873,-3.0274,-3.0675,-3.1049,-3.1276,-3.1383,-3.1583,-3.1711,-1.0022,-1.0704,-1.1587,0.0,-1.3267,-1.3767,-1.4977,0.0,-1.5185,0.0,0.0,0.0,0.0,0.0,0.0,0.0,0.0,0.0,0.0,0.0,0.0,0.0,0.0,0.0,0.0,0.0,0.0,0.0,0.0,0.0,-1.8009,-1.8383,-1.8689,-1.889,-1.9241,-1.9401,-1.9401,-1.9401,-1.9401,-1.9401,-1.9401,-1.9548,-1.9813,-2.0064,-2.0401,-2.0726,-2.0989,-2.1109,-2.1122,-2.1355,-2.1662,-2.2004,-2.2205,-2.2512,-2.2893,-2.2893,-2.2993,-2.3233,-2.3669,-2.3937,-2.4115,-2.4479,-2.4599,-2.4613,-2.4719,-2.513,-2.5531,-2.5638,-2.6012,-2.6386,-2.6386,-2.6386,-2.6386,-2.6386,-2.6386,-2.6466,-2.672,-2.6787,-2.684,-2.7081,-2.7428,-2.7736,-2.7829,-2.8058,-2.8112,-2.7924,-2.8058,-2.8112,-2.7911,-2.8058,-2.8179,-2.8179,-2.8179,-2.8179,-2.8179,-2.8179,-2.8179,-2.8179,-2.843,-2.8644,-2.8751,-2.9219,-2.9526,-2.9633,-2.982,-3.0007,-3.0207,-3.0702,-3.0982,-3.1089,-3.1383,-3.157,0.0,0.0,0.0,0.0,0.0,0.0,-1.5034,0.0,0.0,0.0,0.0,0.0,0.0,0.0,0.0,0.0,0.0,0.0,0.0,0.0,0.0,0.0,0.0,0.0,0.0,0.0,0.0,0.0,-1.7608,-1.7702,-1.7956,-1.8009,-1.8303,-1.8876,-1.9241,-1.9401,-1.9401,-1.9401,-1.9401,-1.9401,-1.9401,-1.9548,-1.98,-2.0064,-2.0388,-2.0712,-2.0975,-2.1109,-2.1109,-2.1109,-2.1456,-2.1991,-2.1991,-2.2372,-2.2893,-2.2893,-2.2907,-2.3,-2.3603,-2.3817,-2.391,-2.4412,-2.4599,-2.4653,-2.4997,-2.5277,-2.5571,-2.5917,-2.6198,-2.6386,-2.6386,-2.6386,-2.6386,-2.6386,-2.64,-2.648,-2.6774,-2.68,-2.7014,-2.7589,-2.7709,-2.7802,-2.8138,-2.8179,-2.8179,-2.8179,-2.8165,-2.8165,-2.8165,-2.8165,-2.8179,-2.8179,-2.8179,-2.8179,-2.8179,-2.8179,-2.8192,-2.8205,-2.8444,-2.8751,-2.9001,-2.9339,-2.9633,-2.9913,-2.9913,-2.9913,-2.9913,-3.0266,-3.0547,-3.0782,-3.1089,-3.1383,-0.9204,0.0,0.0,0.0,0.0,0.0,0.0,0.0,0.0,0.0,0.0,0.0,0.0,0.0,0.0,0.0,0.0,0.0,0.0,0.0,0.0,0.0,0.0,0.0,0.0,0.0,0.0,0.0,-1.7608,-1.7622,-1.7702,-1.813,-1.8544,-1.889,-1.9241,-1.9401,-1.9401,-1.9401,-1.9401,-1.9401,-1.9401,-1.9441,-1.9535,-1.997,-2.025,-2.0388,-2.0895,-2.1109,-2.1109,-2.1109,-2.1456,-2.1991,-2.1991,-2.2372,-2.2893,-2.2893,-2.3006,-2.326,-2.3669,-2.395,-2.4142,-2.4479,-2.4599,-2.4653,-2.4997,-2.5277,-2.5571,-2.5917,-2.6198,-2.6386,-2.6386,-2.6386,-2.6386,-2.6386,-2.6547,-2.6787,-2.7081,-2.7308,-2.7509,-2.7669,-2.7911,-2.8085,-2.8165,-2.8179,-2.8112,-2.7856,-2.7816,-2.7816,-2.7816,-2.7816,-2.7938,-2.8165,-2.8179,-2.8179,-2.8179,-2.8179,-2.8286,-2.847,-2.8751,-2.9015,-2.9352,-2.9646,-2.9833,-2.9913,-2.9913,-2.9913,-2.9913,-3.0266,-3.044,-3.0533,-3.0996,-3.1383,-0.9511,0.0,0.0,0.0,0.0,0.0,0.0,-1.2623,0.0,0.0,0.0,0.0,0.0,0.0,0.0,0.0,0.0,0.0,0.0,0.0,0.0,0.0,0.0,0.0,0.0,-1.7608,-1.7608,-1.7608,-1.7608,-1.7608,-1.7608,-1.8036,-1.8437,-1.8731,-1.9025,-1.9267,-1.9401,-1.9401,-1.9401,-1.9401,-1.9401,-1.9401,-1.9415,-1.9973,-2.0197,-2.0237,-2.0855,-2.1109,-2.1109,-2.1109,-2.1456,-2.1991,-2.1991,-2.2372,-2.2893,-2.2893,-2.306,-2.3332,-2.3661,-2.3968,-2.4249,-2.4506,-2.4599,-2.4679,-2.513,-2.5384,-2.5598,-2.6065,-2.6305,-2.6386,-2.6386,-2.6386,-2.6413,-2.6547,-2.6694,-2.6934,-2.7348,-2.7575,-2.7736,-2.7856,-2.8072,-2.8179,-2.8179,-2.8179,-2.8125,-2.7951,-2.7924,-2.7924,-2.7924,-2.7924,-2.7991,-2.8165,-2.8179,-2.8179,-2.8179,-2.8179,-2.8312,-2.8591,-2.8841,-2.9135,-2.9472,-2.9766,-2.9913,-2.9913,-2.9913,-2.998,-3.01,-3.0319,-3.0533,-3.0728,-3.1062,-3.145,-1.0048,-1.0238,0.0,0.0,0.0,0.0,-1.3059,-1.2698,-1.2363,0.0,0.0,0.0,0.0,0.0,0.0,0.0,0.0,0.0,0.0,0.0,0.0,0.0,0.0,0.0,-1.7608,-1.7608,-1.7608,-1.7608,-1.7608,-1.7608,-1.7608,-1.7849,-1.8143,-1.8437,-1.8758,-1.9052,-1.9348,-1.9388,-1.9401,-1.9401,-1.9401,-1.9401,-1.9415,-1.9973,-2.0197,-2.0237,-2.0855,-2.1109,-2.1109,-2.1109,-2.1456,-2.1991,-2.1991,-2.2372,-2.2893,-2.2893,-2.3086,-2.342,-2.371,-2.3981,-2.4289,-2.4519,-2.4599,-2.4706,-2.5331,-2.5518,-2.5638,-2.6226,-2.6386,-2.6386,-2.6386,-2.6386,-2.6466,-2.6747,-2.6854,-2.7028,-2.7575,-2.7722,-2.7829,-2.8138,-2.8179,-2.8179,-2.8179,-2.8179,-2.8179,-2.8179,-2.8152,-2.8152,-2.8179,-2.8152,-2.8152,-2.8179,-2.8179,-2.8179,-2.8179,-2.8179,-2.8326,-2.8631,-2.8855,-2.9148,-2.9526,-2.978,-2.9913,-2.9913,-2.9913,-3.0074,-3.0453,-3.0426,-3.0635,-3.1183,-3.1203,-3.157,-1.0782,-1.0822,-1.0905,-1.0868,0.0,0.0,-1.0691,-1.1049,-1.1606,0.0,0.0,0.0,0.0,0.0,0.0,0.0,0.0,0.0,0.0,0.0,0.0,0.0,0.0,0.0,-1.7582,-1.7608,-1.7608,-1.7608,-1.7608,-1.7608,-1.7608,-1.7849,-1.8022,-1.8103,-1.8623,-1.893,-1.9011,-1.9281,-1.9401,-1.9401,-1.9401,-1.9401,-1.9415,-1.9973,-2.0197,-2.0237,-2.0855,-2.1109,-2.1109,-2.1109,-2.1456,-2.1991,-2.1991,-2.2372,-2.2893,-2.2893,-2.3241,-2.3688,-2.379,-2.4115,-2.4519,-2.4586,-2.4599,-2.4706,-2.5331,-2.5518,-2.5638,-2.6226,-2.6386,-2.6386,-2.6386,-2.6386,-2.6466,-2.6747,-2.7001,-2.7268,-2.7629,-2.7924,-2.8112,-2.8179,-2.8179,-2.8179,-2.8179,-2.8179,-2.8179,-2.8179,-2.7978,-2.7911,-2.8152,-2.7978,-2.7924,-2.8165,-2.8179,-2.8179,-2.8179,-2.8179,-2.8419,-2.8881,-2.8961,-2.9228,-2.9806,-2.9887,-2.9913,-2.9913,-2.9913,-3.0181,-3.0702,-3.052,-3.0587,-3.0889,-3.1356,-3.177,-1.1352,-1.1316,-1.148,-1.1662,0.0,0.0,0.0,0.0,0.0,0.0,0.0,0.0,0.0,0.0,0.0,0.0,0.0,0.0,0.0,0.0,0.0,0.0,0.0,0.0,-1.7367,-1.7394,-1.7448,-1.7595,-1.7608,-1.7608,-1.7608,-1.7729,-1.7862,-1.7995,-1.8449,-1.8743,-1.889,-1.9225,-1.9401,-1.9401,-1.9401,-1.9401,-1.9415,-1.9973,-2.0197,-2.0237,-2.0855,-2.1109,-2.1109,-2.1109,-2.1456,-2.1991,-2.1991,-2.2372,-2.2893,-2.2893,-2.3281,-2.3803,-2.3803,-2.4155,-2.4599,-2.4599,-2.4599,-2.4706,-2.5331,-2.5718,-2.6012,-2.6306,-2.6386,-2.6386,-2.6386,-2.6386,-2.6493,-2.6934,-2.7202,-2.7429,-2.7871,-2.8085,-2.8179,-2.8179,-2.8179,-2.8179,-2.8179,-2.8179,-2.8179,-2.8179,-2.8058,-2.8018,-2.8165,-2.8058,-2.8018,-2.8165,-2.8179,-2.8179,-2.8179,-2.8179,-2.8446,-2.8961,-2.9001,-2.9255,-2.9887,-2.9913,-2.9913,-2.9913,-2.9913,-3.0207,-3.0795,-3.0648,-3.0795,-3.1236,-3.1677,-3.2038,0.0,0.0,0.0,0.0,0.0,-1.1444,0.0,0.0,0.0,0.0,0.0,0.0,0.0,0.0,0.0,0.0,0.0,0.0,0.0,0.0,0.0,0.0,0.0,0.0,0.0,-1.6993,-1.7086,-1.7501,-1.7421,-1.7434,-1.7595,-1.7608,-1.7702,-1.7929,-1.8303,-1.8597,-1.881,-1.9214,-1.9401,-1.9401,-1.9401,-1.9401,-1.9415,-1.9973,-2.0197,-2.0237,-2.0855,-2.1109,-2.1109,-2.1176,-2.151,-2.1991,-2.1991,-2.2372,-2.2893,-2.2893,-2.3281,-2.3803,-2.3803,-2.4155,-2.4599,-2.4599,-2.4679,-2.4866,-2.5438,-2.5972,-2.6386,-2.6386,-2.6386,-2.6386,-2.6386,-2.6426,-2.6613,-2.7175,-2.7349,-2.7536,-2.8072,-2.8179,-2.8179,-2.8179,-2.8179,-2.8179,-2.8179,-2.8179,-2.8179,-2.8179,-2.8179,-2.8179,-2.8179,-2.8179,-2.8179,-2.8179,-2.8179,-2.8179,-2.8179,-2.8232,-2.8457,-2.8961,-2.9055,-2.9322,-2.99,-2.9913,-2.9913,-2.9913,-2.9913,-3.0207,-3.0795,-3.0795,-3.1129,-3.1757,-3.2051,-3.2393,0.0,0.0,0.0,0.0,-1.3046,0.0,0.0,0.0,0.0,0.0,0.0,0.0,0.0,0.0,0.0,0.0,0.0,0.0,0.0,0.0,0.0,0.0,0.0,0.0,0.0,-1.6262,-1.6313,-1.7192,-1.6739,-1.6779,-1.7568,-1.7608,-1.7595,-1.7635,-1.8196,-1.8504,-1.8544,-1.912,-1.9401,-1.9401,-1.9401,-1.9401,-1.9415,-1.9973,-2.0197,-2.0237,-2.0855,-2.1109,-2.1136,-2.1422,-2.1729,-2.1991,-2.1991,-2.2372,-2.2893,-2.2893,-2.3281,-2.3803,-2.3803,-2.4155,-2.4599,-2.4599,-2.4946,-2.5478,-2.5837,-2.6172,-2.6386,-2.6386,-2.6386,-2.6386,-2.6386,-2.6587,-2.6854,-2.7229,-2.7455,-2.7736,-2.8112,-2.8179,-2.8179,-2.8179,-2.8179,-2.8179,-2.8179,-2.8179,-2.8179,-2.8179,-2.8179,-2.8179,-2.8179,-2.8179,-2.8179,-2.8179,-2.8179,-2.8179,-2.8179,-2.8433,-2.8698,-2.8975,-2.9285,-2.9579,-2.99,-2.9913,-2.9913,-2.9913,-2.9913,-3.0207,-3.0795,-3.0795,-3.1223,-3.2064,-3.2407,-3.2701,0.0,0.0,0.0,0.0,0.0,0.0,-1.144,0.0,-1.1136,0.0,0.0,0.0,0.0,0.0,0.0,0.0,0.0,0.0,0.0,0.0,0.0,0.0,0.0,0.0,0.0,0.0,0.0,0.0,-1.6353,-1.6406,-1.7314,-1.738,-1.7434,-1.7608,-1.8197,-1.849,-1.849,-1.9107,-1.9401,-1.9401,-1.9401,-1.9481,-1.9669,-2.001,-2.029,-2.0508,-2.0922,-2.1109,-2.1136,-2.1462,-2.1756,-2.2004,-2.2164,-2.2532,-2.292,-2.306,-2.3407,-2.383,-2.3968,-2.4289,-2.4626,-2.4836,-2.517,-2.5571,-2.5904,-2.6198,-2.6386,-2.6386,-2.6386,-2.6426,-2.66,-2.6734,-2.6934,-2.7402,-2.7602,-2.7776,-2.8125,-2.8179,-2.8179,-2.8179,-2.8179,-2.8179,-2.8179,-2.8179,-2.8179,-2.8179,-2.8179,-2.8179,-2.8179,-2.8179,-2.8179,-2.8179,-2.8179,-2.8179,-2.8179,-2.843,-2.8724,-2.8975,-2.9472,-2.9793,-2.9913,-2.9913,-2.9913,-2.9913,-2.9913,-3.0127,-3.0587,-3.0587,-3.1076,-3.2104,-3.246,-3.2755,-1.4683,0.0,0.0,0.0,0.0,0.0,0.0,0.0,0.0,0.0,0.0,0.0,0.0,0.0,0.0,0.0,0.0,0.0,0.0,0.0,0.0,0.0,0.0,0.0,0.0,0.0,0.0,0.0,0.0,-1.5965,-1.7139,-1.7206,-1.7314,-1.7595,-1.8197,-1.849,-1.849,-1.9107,-1.9401,-1.9401,-1.9401,-1.9548,-1.9813,-2.0064,-2.0401,-2.0726,-2.0989,-2.1109,-2.1136,-2.1555,-2.1823,-2.205,-2.2392,-2.2672,-2.2934,-2.3207,-2.3514,-2.3843,-2.4102,-2.4396,-2.4666,-2.5077,-2.5344,-2.5585,-2.5998,-2.6265,-2.6386,-2.6386,-2.6386,-2.6453,-2.6747,-2.6881,-2.7068,-2.7575,-2.7762,-2.7883,-2.8138,-2.8179,-2.8179,-2.8179,-2.8179,-2.8179,-2.8179,-2.8179,-2.8179,-2.8179,-2.8179,-2.8179,-2.8179,-2.8179,-2.8179,-2.8179,-2.8179,-2.8219,-2.8312,-2.8551,-2.8841,-2.9215,-2.9673,-2.9913,-2.9913,-2.9913,-2.9913,-2.9913,-2.9913,-3.006,-3.04,-3.048,-3.1036,-3.2104,-3.2367,-3.2714,0.0,0.0,0.0,-1.3634,0.0,0.0,0.0,0.0,-1.1873,0.0,0.0,0.0,0.0,0.0,0.0,0.0,0.0,0.0,0.0,0.0,0.0,0.0,0.0,0.0,0.0,0.0,0.0,0.0,0.0,0.0,-1.7112,-1.7206,-1.7314,-1.7595,-1.8197,-1.849,-1.849,-1.9107,-1.9401,-1.9401,-1.9401,-1.9548,-1.9813,-2.0064,-2.0401,-2.0726,-2.0989,-2.1109,-2.1149,-2.1737,-2.1977,-2.2044,-2.2653,-2.2893,-2.2934,-2.3207,-2.3514,-2.3843,-2.4102,-2.4396,-2.4693,-2.528,-2.5504,-2.5625,-2.6199,-2.6386,-2.6386,-2.6386,-2.6386,-2.6453,-2.6747,-2.7041,-2.7362,-2.7629,-2.7965,-2.8179,-2.8179,-2.8179,-2.8179,-2.8179,-2.8179,-2.8179,-2.8179,-2.8179,-2.8179,-2.8179,-2.8179,-2.8179,-2.8179,-2.8179,-2.8179,-2.8179,-2.8179,-2.8312,-2.8564,-2.8815,-2.9228,-2.9847,-2.99,-2.9913,-2.9913,-2.9913,-2.9913,-2.9913,-2.9913,-3.006,-3.04,-3.0635,-3.1236,-3.2104,-3.2118,-3.2572,0.0,0.0,-1.5845,-1.4691,0.0,0.0,0.0,0.0,0.0,0.0,0.0,0.0,0.0,0.0,0.0,0.0,0.0,0.0,0.0,0.0,0.0,0.0,0.0,0.0,0.0,0.0,0.0,0.0,-1.4661,0.0,0.0,-1.6779,-1.702,-1.734,-1.8103,-1.849,-1.849,-1.9107,-1.9401,-1.9401,-1.9401,-1.9626,-2.0064,-2.0157,-2.0464,-2.0962,-2.1069,-2.1109,-2.1149,-2.175,-2.1991,-2.2044,-2.2666,-2.2893,-2.296,-2.3434,-2.3688,-2.387,-2.4329,-2.4676,-2.4997,-2.5384,-2.5651,-2.5879,-2.6266,-2.6386,-2.6386,-2.6386,-2.6533,-2.6747,-2.7041,-2.7335,-2.7629,-2.7965,-2.8112,-2.8179,-2.8179,-2.8179,-2.8179,-2.8179,-2.8179,-2.8179,-2.8179,-2.8179,-2.8179,-2.8179,-2.8179,-2.8179,-2.8179,-2.8179,-2.8179,-2.8179,-2.8179,-2.8312,-2.8577,-2.9058,-2.9499,-2.9887,-2.9913,-2.9913,-2.9913,-2.9913,-2.9913,-2.9913,-2.9913,-2.9967,-3.0074,-3.0368,-3.0862,-3.153,-3.173,-3.2291,-1.6377,-1.6458,0.0,-1.536,-1.4696,0.0,-1.2772,0.0,0.0,0.0,0.0,0.0,0.0,0.0,0.0,0.0,0.0,0.0,0.0,0.0,0.0,0.0,0.0,0.0,0.0,0.0,-1.3701,-1.4616,-1.4274,0.0,0.0,0.0,-1.6847,-1.7192,-1.805,-1.849,-1.849,-1.9107,-1.9401,-1.9401,-1.9495,-1.9773,-2.021,-2.0317,-2.0655,-2.1109,-2.1109,-2.1162,-2.1309,-2.179,-2.2044,-2.2191,-2.2706,-2.296,-2.3086,-2.3629,-2.3937,-2.4128,-2.4466,-2.4836,-2.513,-2.5424,-2.5718,-2.6051,-2.6306,-2.6386,-2.6413,-2.652,-2.668,-2.6907,-2.7308,-2.7562,-2.7776,-2.8112,-2.8179,-2.8179,-2.8179,-2.8179,-2.8179,-2.8179,-2.8179,-2.8179,-2.8179,-2.8179,-2.8179,-2.8179,-2.8179,-2.8179,-2.8179,-2.8179,-2.8232,-2.8339,-2.8353,-2.8513,-2.8885,-2.9366,-2.9713,-2.99,-2.9913,-2.9913,-2.9913,-2.9913,-2.9913,-2.9913,-2.9913,-2.9967,-3.0074,-3.0368,-3.0808,-3.1396,-3.169,-3.2131]},{"header":{"parameterUnit":"m.s-1","parameterCategory":1,"la1":30.6,"la2":29.2853,"lo1":-89.7004,"lo2":-87.6739,"dy":0.0162,"dx":0.0183,"nx":112,"ny":82,"refTime":"2026-02-27T00:00:00:Z","depth":0,"parameterNumber":3,"parameterNumberName":"V-component_of_WINDS"},"data":[0.0,0.0,0.0,0.0,0.0,0.0,0.0,0.0,0.0,0.0,0.0,0.0,0.0,0.0,0.0,0.0,0.0,0.0,0.0,0.0,0.0,0.0,0.0,0.0,0.0,0.0,0.0,0.0,0.0,0.0,0.0,0.0,0.0,0.0,0.0,0.0,0.0,0.0,0.0,0.0,0.0,0.0,0.0,0.0,0.0,0.0,0.0,0.0,0.0,0.0,0.0,0.0,0.0,0.0,0.0,0.0,0.0,0.0,0.0,0.0,0.0,0.0,0.0,0.0,0.0,0.0,0.0,0.0,0.0,0.0,0.0,0.0,0.0,0.0,0.0,0.0,0.0,0.0,0.0,0.0,0.0,0.0,0.0,0.0,0.0,0.0,0.0,0.0,0.0,0.0,0.0,3.8521,4.2868,4.5594,4.5594,4.5475,4.3282,3.8315,0.0,0.0,0.0,0.0,0.0,0.0,0.0,0.0,0.0,0.0,0.0,0.0,0.0,0.0,0.0,0.0,0.0,0.0,0.0,0.0,0.0,0.0,0.0,0.0,0.0,0.0,0.0,0.0,0.0,0.0,0.0,0.0,0.0,0.0,0.0,0.0,0.0,0.0,0.0,0.0,0.0,0.0,0.0,0.0,0.0,0.0,0.0,0.0,0.0,0.0,0.0,0.0,0.0,0.0,0.0,0.0,0.0,0.0,0.0,0.0,0.0,0.0,0.0,0.0,0.0,0.0,0.0,0.0,0.0,0.0,0.0,0.0,0.0,0.0,0.0,0.0,0.0,0.0,0.0,0.0,0.0,0.0,0.0,0.0,0.0,0.0,0.0,0.0,0.0,0.0,0.0,0.0,0.0,0.0,0.0,0.0,0.0,0.0,0.0,0.0,0.0,0.0,0.0,0.0,3.6614,4.2659,4.4692,4.5594,4.5594,4.4936,4.2624,3.8277,0.0,0.0,0.0,0.0,0.0,0.0,0.0,0.0,0.0,0.0,0.0,0.0,0.0,0.0,0.0,0.0,0.0,0.0,0.0,0.0,0.0,0.0,0.0,0.0,0.0,0.0,0.0,0.0,0.0,0.0,0.0,0.0,0.0,0.0,0.0,0.0,0.0,0.0,0.0,0.0,0.0,0.0,0.0,0.0,0.0,0.0,0.0,0.0,0.0,0.0,0.0,0.0,0.0,0.0,0.0,0.0,0.0,0.0,0.0,0.0,0.0,0.0,0.0,0.0,0.0,0.0,0.0,0.0,0.0,0.0,0.0,0.0,0.0,0.0,0.0,0.0,0.0,0.0,0.0,0.0,0.0,0.0,0.0,0.0,0.0,0.0,0.0,0.0,0.0,0.0,0.0,0.0,0.0,0.0,0.0,0.0,0.0,0.0,0.0,0.0,0.0,0.0,0.0,3.5484,3.8278,4.4346,4.5359,4.5594,4.5594,4.5244,4.3012,3.8315,3.6427,0.0,0.0,0.0,0.0,0.0,0.0,0.0,0.0,0.0,0.0,0.0,0.0,0.0,0.0,0.0,0.0,0.0,0.0,0.0,0.0,0.0,0.0,0.0,0.0,0.0,0.0,0.0,0.0,0.0,0.0,0.0,0.0,0.0,0.0,0.0,0.0,0.0,0.0,0.0,0.0,0.0,0.0,0.0,0.0,0.0,0.0,0.0,0.0,0.0,0.0,0.0,0.0,0.0,0.0,0.0,0.0,0.0,0.0,0.0,0.0,0.0,0.0,0.0,0.0,0.0,0.0,0.0,0.0,0.0,0.0,0.0,0.0,0.0,0.0,0.0,0.0,0.0,0.0,0.0,0.0,0.0,0.0,0.0,0.0,0.0,0.0,0.0,0.0,0.0,0.0,0.0,0.0,0.0,0.0,0.0,0.0,0.0,0.0,0.0,0.0,0.0,0.0,3.8789,4.0893,4.5158,4.5594,4.5594,4.5594,4.5051,4.2782,3.8277,3.585,0.0,0.0,0.0,0.0,0.0,0.0,0.0,0.0,0.0,0.0,0.0,0.0,0.0,0.0,0.0,0.0,0.0,0.0,0.0,0.0,0.0,0.0,0.0,0.0,0.0,0.0,0.0,0.0,0.0,0.0,0.0,0.0,0.0,0.0,0.0,0.0,0.0,0.0,0.0,0.0,0.0,0.0,0.0,0.0,0.0,0.0,0.0,0.0,0.0,0.0,0.0,0.0,0.0,0.0,0.0,0.0,0.0,0.0,0.0,0.0,0.0,0.0,0.0,0.0,0.0,0.0,0.0,0.0,0.0,0.0,0.0,0.0,0.0,0.0,0.0,0.0,0.0,0.0,0.0,0.0,0.0,0.0,0.0,0.0,0.0,0.0,0.0,0.0,0.0,0.0,0.0,0.0,0.0,0.0,0.0,0.0,0.0,0.0,0.0,0.0,0.0,0.0,4.0381,4.4269,4.5475,4.5594,4.5594,4.5594,4.3431,4.0889,3.8161,3.4199,0.0,0.0,0.0,0.0,0.0,0.0,0.0,0.0,0.0,0.0,0.0,0.0,0.0,0.0,0.0,0.0,0.0,0.0,0.0,0.0,0.0,0.0,0.0,0.0,0.0,0.0,0.0,0.0,0.0,0.0,0.0,0.0,0.0,0.0,0.0,0.0,0.0,0.0,0.0,0.0,0.0,0.0,0.0,0.0,0.0,0.0,0.0,0.0,0.0,0.0,0.0,0.0,0.0,0.0,0.0,0.0,0.0,0.0,0.0,0.0,0.0,0.0,0.0,0.0,0.0,0.0,0.0,0.0,0.0,0.0,0.0,0.0,0.0,0.0,0.0,0.0,0.0,0.0,0.0,0.0,0.0,0.0,0.0,0.0,0.0,0.0,0.0,0.0,0.0,0.0,0.0,0.0,0.0,0.0,0.0,0.0,0.0,0.0,0.0,0.0,0.0,0.0,3.895,4.2727,0.0,4.5594,4.5594,4.5594,4.4705,4.2393,3.8277,0.0,0.0,0.0,0.0,0.0,0.0,0.0,0.0,0.0,0.0,0.0,0.0,0.0,0.0,0.0,0.0,0.0,0.0,0.0,0.0,0.0,0.0,0.0,0.0,0.0,0.0,0.0,0.0,0.0,0.0,0.0,0.0,0.0,0.0,0.0,0.0,0.0,0.0,0.0,0.0,0.0,0.0,0.0,0.0,0.0,0.0,0.0,0.0,0.0,0.0,0.0,0.0,0.0,0.0,0.0,0.0,0.0,0.0,0.0,0.0,0.0,0.0,0.0,0.0,0.0,0.0,0.0,0.0,0.0,0.0,0.0,0.0,0.0,0.0,0.0,0.0,0.0,0.0,0.0,0.0,0.0,0.0,0.0,0.0,0.0,0.0,0.0,0.0,0.0,0.0,0.0,0.0,0.0,0.0,0.0,0.0,0.0,0.0,0.0,0.0,0.0,0.0,3.4945,3.9393,4.3178,0.0,4.5859,4.5898,4.5633,4.4859,4.2431,3.7892,0.0,0.0,0.0,0.0,0.0,0.0,0.0,0.0,0.0,0.0,0.0,0.0,0.0,0.0,0.0,0.0,0.0,0.0,0.0,0.0,0.0,0.0,0.0,0.0,0.0,0.0,0.0,0.0,0.0,0.0,0.0,0.0,0.0,0.0,0.0,0.0,0.0,0.0,0.0,0.0,0.0,0.0,0.0,0.0,0.0,0.0,0.0,0.0,0.0,0.0,0.0,0.0,0.0,0.0,0.0,0.0,0.0,0.0,0.0,0.0,0.0,0.0,0.0,0.0,0.0,0.0,0.0,0.0,0.0,0.0,0.0,0.0,0.0,0.0,0.0,0.0,0.0,0.0,0.0,0.0,0.0,0.0,0.0,0.0,0.0,0.0,0.0,0.0,0.0,0.0,0.0,0.0,0.0,0.0,0.0,0.0,0.0,0.0,0.0,0.0,0.0,0.0,3.5998,4.2426,4.6586,4.5706,4.6394,4.6547,4.5706,4.3316,4.0389,0.0,0.0,0.0,0.0,0.0,0.0,0.0,0.0,0.0,0.0,0.0,0.0,0.0,0.0,0.0,0.0,0.0,0.0,0.0,0.0,0.0,0.0,0.0,0.0,0.0,0.0,0.0,0.0,0.0,0.0,0.0,0.0,0.0,0.0,0.0,0.0,0.0,0.0,0.0,0.0,0.0,0.0,0.0,0.0,0.0,0.0,0.0,0.0,0.0,0.0,0.0,0.0,0.0,0.0,0.0,0.0,0.0,0.0,0.0,0.0,0.0,0.0,0.0,0.0,0.0,0.0,0.0,0.0,0.0,0.0,0.0,0.0,0.0,0.0,0.0,0.0,0.0,0.0,0.0,0.0,0.0,0.0,0.0,0.0,0.0,0.0,0.0,0.0,0.0,0.0,0.0,0.0,0.0,0.0,0.0,0.0,0.0,0.0,0.0,0.0,0.0,0.0,0.0,3.5998,4.2426,4.6812,4.6547,4.7235,4.7428,4.6586,4.5812,4.3158,3.7969,0.0,0.0,0.0,0.0,0.0,0.0,0.0,0.0,0.0,0.0,0.0,0.0,0.0,0.0,0.0,0.0,0.0,0.0,0.0,0.0,0.0,0.0,0.0,0.0,0.0,0.0,0.0,0.0,0.0,0.0,0.0,0.0,0.0,0.0,0.0,0.0,0.0,0.0,0.0,0.0,0.0,0.0,0.0,0.0,0.0,0.0,0.0,0.0,0.0,0.0,0.0,0.0,0.0,0.0,0.0,0.0,0.0,0.0,0.0,0.0,0.0,0.0,0.0,0.0,0.0,0.0,0.0,0.0,0.0,0.0,0.0,0.0,0.0,0.0,0.0,0.0,0.0,0.0,0.0,0.0,0.0,0.0,0.0,0.0,0.0,0.0,0.0,0.0,0.0,0.0,0.0,0.0,0.0,0.0,0.0,0.0,0.0,0.0,0.0,0.0,0.0,0.0,3.6909,4.3116,4.7389,4.7389,4.812,4.8159,4.7005,4.6889,4.435,3.8392,0.0,0.0,0.0,0.0,0.0,0.0,0.0,0.0,0.0,0.0,0.0,0.0,0.0,0.0,0.0,0.0,0.0,0.0,0.0,0.0,0.0,0.0,0.0,0.0,0.0,0.0,0.0,0.0,0.0,0.0,0.0,0.0,0.0,0.0,0.0,0.0,0.0,0.0,0.0,0.0,0.0,0.0,0.0,0.0,0.0,0.0,0.0,0.0,0.0,0.0,0.0,0.0,0.0,0.0,0.0,0.0,0.0,0.0,0.0,0.0,0.0,0.0,0.0,0.0,0.0,0.0,0.0,0.0,0.0,0.0,0.0,0.0,0.0,0.0,0.0,0.0,0.0,0.0,0.0,0.0,0.0,0.0,0.0,0.0,0.0,0.0,0.0,0.0,0.0,0.0,0.0,0.0,0.0,0.0,0.0,0.0,0.0,0.0,0.0,0.0,0.0,0.0,3.8305,4.4236,4.8235,4.8235,4.9009,4.8856,4.7274,4.7043,4.4581,3.8815,0.0,0.0,0.0,0.0,0.0,0.0,0.0,0.0,0.0,0.0,0.0,0.0,0.0,0.0,0.0,0.0,0.0,0.0,0.0,0.0,0.0,0.0,0.0,0.0,0.0,0.0,0.0,0.0,0.0,0.0,0.0,0.0,0.0,0.0,0.0,0.0,0.0,0.0,0.0,0.0,0.0,0.0,0.0,0.0,0.0,0.0,0.0,0.0,0.0,0.0,0.0,0.0,0.0,0.0,0.0,0.0,0.0,0.0,0.0,0.0,3.5374,0.0,0.0,0.0,0.0,0.0,0.0,0.0,0.0,0.0,0.0,0.0,0.0,0.0,0.0,0.0,0.0,0.0,0.0,0.0,0.0,0.0,0.0,0.0,0.0,0.0,0.0,0.0,0.0,0.0,0.0,0.0,0.0,0.0,0.0,0.0,0.0,0.0,0.0,0.0,0.0,0.0,3.857,4.4849,4.9125,4.9125,4.9899,5.0014,4.8971,4.824,4.6197,4.2277,3.8504,0.0,0.0,0.0,0.0,0.0,0.0,0.0,0.0,0.0,0.0,0.0,0.0,0.0,0.0,0.0,0.0,0.0,0.0,0.0,0.0,0.0,0.0,0.0,0.0,0.0,0.0,0.0,0.0,0.0,0.0,0.0,0.0,0.0,0.0,0.0,0.0,0.0,0.0,0.0,0.0,0.0,0.0,0.0,0.0,0.0,0.0,0.0,0.0,0.0,0.0,0.0,0.0,0.0,0.0,0.0,0.0,0.0,0.0,0.0,0.0,3.8234,0.0,0.0,0.0,0.0,0.0,0.0,0.0,0.0,0.0,0.0,0.0,0.0,0.0,0.0,0.0,0.0,0.0,0.0,0.0,0.0,0.0,0.0,0.0,0.0,0.0,0.0,0.0,0.0,0.0,0.0,0.0,0.0,0.0,0.0,0.0,0.0,0.0,0.0,0.0,0.0,3.9785,4.5524,4.9548,4.9976,5.0438,5.0361,4.9471,4.8971,4.7471,4.4474,4.1046,0.0,0.0,0.0,0.0,0.0,0.0,0.0,0.0,0.0,0.0,0.0,0.0,0.0,0.0,0.0,0.0,0.0,0.0,0.0,0.0,0.0,0.0,0.0,0.0,0.0,0.0,0.0,0.0,0.0,0.0,0.0,0.0,0.0,0.0,0.0,0.0,0.0,0.0,0.0,0.0,0.0,0.0,0.0,0.0,0.0,0.0,0.0,0.0,0.0,0.0,0.0,0.0,0.0,4.4845,4.6201,4.6163,4.9283,5.0317,4.9471,4.6274,4.4543,4.3773,0.0,0.0,0.0,0.0,0.0,0.0,0.0,0.0,0.0,0.0,0.0,0.0,0.0,0.0,0.0,0.0,0.0,0.0,0.0,0.0,0.0,0.0,0.0,0.0,0.0,4.5086,4.4836,0.0,0.0,0.0,0.0,0.0,0.0,0.0,0.0,0.0,0.0,0.0,0.0,4.1484,4.6541,5.0034,5.0527,5.0599,5.0271,4.9491,4.9294,4.833,4.6402,4.3593,4.1169,0.0,0.0,0.0,0.0,0.0,0.0,0.0,0.0,0.0,0.0,0.0,0.0,0.0,0.0,0.0,0.0,0.0,0.0,0.0,0.0,0.0,0.0,0.0,0.0,0.0,0.0,0.0,0.0,0.0,0.0,0.0,0.0,2.9857,3.0753,0.0,0.0,0.0,0.0,0.0,0.0,0.0,0.0,0.0,0.0,0.0,0.0,0.0,4.0015,4.3035,4.6247,4.7986,4.8255,5.2274,5.3823,5.3203,5.5131,5.5939,5.5862,5.678,0.0,4.7265,4.5242,0.0,0.0,0.0,0.0,0.0,0.0,0.0,0.0,0.0,0.0,0.0,0.0,0.0,0.0,0.0,0.0,0.0,0.0,0.0,0.0,0.0,0.0,5.0101,4.9625,5.0317,5.0572,0.0,4.3291,3.7915,3.5576,0.0,0.0,0.0,0.0,0.0,0.0,0.0,0.0,4.3521,4.8414,5.1221,5.0283,5.0177,4.9986,4.9522,4.8806,4.8528,4.8871,4.5204,4.3165,4.3541,3.8904,0.0,0.0,0.0,0.0,0.0,0.0,0.0,0.0,0.0,0.0,0.0,0.0,0.0,0.0,0.0,0.0,0.0,0.0,0.0,0.0,0.0,0.0,0.0,0.0,0.0,0.0,0.0,0.0,0.0,3.0402,3.2389,3.2907,3.2909,3.2057,0.0,0.0,0.0,0.0,0.0,0.0,0.0,0.0,0.0,4.3431,4.447,4.6355,4.9279,5.1702,5.3433,5.4434,5.7242,5.8632,5.8825,6.0012,6.055,6.0589,6.1314,5.9473,5.5626,5.1434,4.8001,4.519,0.0,0.0,0.0,0.0,4.3322,4.3693,4.7036,4.7751,0.0,0.0,0.0,0.0,0.0,0.0,0.0,0.0,0.0,0.0,0.0,0.0,0.0,5.3972,5.489,5.5275,5.44,5.0816,4.6211,0.0,3.9107,3.6825,3.2045,0.0,0.0,0.0,0.0,4.2333,4.5067,4.9007,5.1341,5.0822,5.0772,5.071,5.0518,4.9549,4.9067,4.943,4.7697,4.6645,4.6542,4.2885,3.9889,0.0,0.0,0.0,0.0,0.0,0.0,0.0,0.0,0.0,0.0,0.0,0.0,0.0,0.0,0.0,0.0,0.0,0.0,0.0,0.0,0.0,0.0,0.0,0.0,0.0,0.0,0.0,0.0,3.2821,3.4929,3.5038,3.5972,3.537,0.0,0.0,0.0,0.0,0.0,0.0,4.1336,4.2911,4.5504,4.9356,5.0702,5.2587,5.5126,5.6588,5.7973,5.9281,6.0742,6.1781,6.2441,6.3281,6.3622,6.366,6.3852,6.3512,6.2326,5.7011,5.3393,5.1,4.8684,4.7659,4.7694,4.953,4.9875,5.0048,5.4196,5.4994,5.3988,5.2643,0.0,4.7702,4.3299,0.0,0.0,0.0,0.0,4.6259,4.9879,5.2625,5.4935,5.6824,5.7941,5.8323,5.7455,5.5796,5.2658,0.0,4.4694,4.2339,3.6523,0.0,0.0,0.0,0.0,4.4878,4.7287,5.0143,5.177,5.1351,5.1292,5.1258,5.1197,5.0522,5.0033,4.9854,4.9963,4.9714,4.8912,4.664,4.4257,4.1764,0.0,0.0,0.0,0.0,0.0,0.0,0.0,0.0,0.0,0.0,0.0,0.0,0.0,0.0,0.0,0.0,0.0,0.0,0.0,0.0,0.0,0.0,0.0,0.0,0.0,0.0,0.0,0.0,0.0,3.7362,3.9789,0.0,0.0,0.0,0.0,3.855,4.1114,4.4097,4.7202,4.8428,5.1323,5.6324,5.6555,5.7824,6.0402,6.1325,6.1826,6.1903,6.2781,6.3198,6.3275,6.4122,6.4551,6.4589,6.5397,6.5282,6.4205,6.0666,5.841,5.7097,5.5358,5.4696,5.4683,5.4836,5.5028,5.5419,5.6467,5.6769,5.6966,5.8417,5.6565,5.3346,5.1361,4.9115,0.0,0.0,4.9617,5.1396,5.3499,5.5936,5.7909,5.8018,5.866,5.9029,5.8216,5.6061,5.3731,0.0,4.95,4.6911,4.3943,0.0,4.336,4.4524,4.6622,4.8806,5.078,5.2571,5.3075,5.1467,5.1297,5.1156,5.0851,5.1491,5.1544,5.0762,5.147,5.1497,5.0679,4.9797,4.817,4.5662,4.1605,0.0,0.0,0.0,0.0,0.0,0.0,0.0,0.0,0.0,0.0,0.0,0.0,0.0,0.0,0.0,0.0,0.0,0.0,0.0,0.0,0.0,0.0,0.0,0.0,0.0,0.0,0.0,0.0,4.18,4.4357,0.0,4.1864,4.3247,4.4462,4.4786,4.7784,5.0793,5.3585,5.4594,5.6703,6.0171,6.0287,6.0979,6.2391,6.2942,6.294,6.2418,6.2917,6.3172,6.3218,6.442,6.5257,6.5824,6.6991,6.7321,6.6853,6.4589,6.2208,5.9889,5.8737,5.8113,5.7927,5.8457,5.8766,5.898,5.978,5.9853,5.9462,5.8739,5.7292,5.5528,5.3829,5.3091,5.288,5.3125,5.4595,5.6348,5.7565,5.9197,6.0496,6.0468,6.0694,6.0845,6.0543,5.8913,5.718,5.6087,5.3421,5.0397,4.751,4.8706,4.9284,4.7011,4.8965,5.0854,5.1235,5.2288,5.279,5.2192,5.2119,5.2093,5.1964,5.1526,5.1096,5.0839,5.1583,5.1877,5.1573,5.1289,5.0225,4.8316,4.4782,4.0487,0.0,0.0,0.0,0.0,0.0,0.0,0.0,0.0,0.0,0.0,0.0,0.0,0.0,0.0,0.0,0.0,0.0,0.0,0.0,0.0,0.0,0.0,0.0,0.0,0.0,0.0,4.4009,4.5064,4.8167,4.9219,4.6703,4.8356,5.0024,5.1024,5.3472,5.6011,5.8594,5.9092,6.0335,6.2612,6.242,6.2643,6.3442,6.3434,6.3268,6.3001,6.3072,6.3265,6.3577,6.4512,6.5217,6.5779,6.6643,6.7064,6.6949,6.584,6.4091,6.2045,6.178,6.14,6.1175,6.2296,6.2598,6.248,6.3025,6.2653,6.1698,6.0318,5.9246,5.8222,5.6835,5.6894,5.742,5.7257,5.8216,5.9387,5.9933,6.0906,6.165,6.1389,6.1538,6.165,6.1389,6.0454,5.937,5.8295,5.5856,5.3178,5.0637,5.2193,5.2815,4.9844,5.1239,5.2552,5.2401,5.2739,5.2985,5.2985,5.2875,5.2919,5.3179,5.2227,5.161,5.161,5.1867,5.1767,5.1216,5.1179,5.0408,4.8793,4.5287,4.136,3.711,0.0,0.0,0.0,0.0,0.0,0.0,0.0,0.0,0.0,0.0,0.0,0.0,0.0,0.0,0.0,0.0,0.0,0.0,0.0,0.0,0.0,0.0,0.0,3.9063,4.3372,4.6562,4.7174,5.1181,5.3136,5.1177,5.3236,5.5352,5.7016,5.7934,5.9506,6.1968,6.1594,6.2064,6.3695,6.3009,6.3017,6.3771,6.3017,6.3009,6.3748,6.3285,6.3512,6.4304,6.4351,6.4398,6.4436,6.4455,6.4502,6.4464,6.4426,6.4106,6.3691,6.4614,6.4731,6.4596,6.6103,6.6357,6.5921,6.5958,6.4893,6.3569,6.365,6.2844,6.1741,6.0845,6.0853,6.1113,6.0647,6.0493,6.0456,6.0456,6.1006,6.1374,6.0603,6.1006,6.1337,6.0566,6.0382,5.9905,5.8327,5.6776,5.522,5.3523,5.3588,5.3717,5.3271,5.3579,0.0,5.4396,5.4057,5.3758,5.3758,5.3424,5.3544,5.4326,5.3654,5.3214,5.3214,5.2417,5.1253,4.9757,4.9647,4.8866,4.7259,4.3223,4.0406,3.8791,0.0,0.0,0.0,0.0,0.0,0.0,0.0,0.0,0.0,0.0,0.0,0.0,0.0,0.0,0.0,0.0,0.0,0.0,0.0,0.0,0.0,3.8951,4.2265,4.2972,4.6855,5.0392,5.2565,5.504,5.6696,5.706,5.8009,5.9205,6.0583,6.0902,6.1453,6.2428,6.2099,6.2056,6.2429,6.3112,6.3416,6.3303,6.3304,6.3146,6.278,6.2267,6.2125,6.2407,6.343,6.4219,6.4817,6.579,6.6229,6.6116,6.4879,6.4089,6.3669,6.3896,6.4075,6.415,6.3953,6.4216,6.4697,6.5274,6.5188,6.4807,6.482,6.4598,6.429,6.4031,6.3652,6.3248,6.3112,6.2218,6.1263,6.1263,6.1006,6.0676,6.0456,6.0566,6.0676,6.0456,5.993,5.9233,5.8217,5.7177,5.6061,5.4727,5.5119,5.5165,5.3847,5.426,0.0,5.3667,5.3424,5.3369,5.3369,5.3272,5.3544,5.4326,5.3654,5.3214,5.3214,5.1903,5.1169,5.1326,5.0765,5.0251,4.9801,4.5223,4.2323,0.0,0.0,0.0,0.0,0.0,0.0,0.0,0.0,0.0,0.0,0.0,0.0,0.0,0.0,0.0,0.0,0.0,0.0,0.0,0.0,0.0,0.0,4.3319,4.709,4.869,5.1027,5.3626,5.6505,5.8061,5.9413,6.0679,6.0742,6.1141,6.222,6.183,6.1758,6.2287,6.2102,6.2045,6.2108,6.2682,6.2909,6.2772,6.2624,6.2491,6.2353,6.1832,6.1777,6.212,6.2934,6.359,0.0,6.4856,6.5159,6.5122,6.4118,6.355,0.0,0.0,0.0,0.0,0.0,6.4861,6.5681,6.6145,6.6072,6.5802,6.5802,6.5582,6.5288,6.5288,6.4971,6.4604,6.4604,6.3649,6.2671,6.2671,6.2034,6.1398,6.1398,6.1153,6.0896,6.0896,6.026,5.938,5.8217,5.7629,0.0,5.5484,5.5677,5.5687,5.4694,5.501,5.5091,5.4525,5.4317,5.4265,5.4447,5.4307,5.4399,5.4851,5.4179,0.0,0.0,0.0,5.1059,5.0472,4.9994,0.0,0.0,0.0,0.0,0.0,0.0,0.0,0.0,4.3359,4.313,0.0,0.0,0.0,0.0,0.0,0.0,0.0,0.0,0.0,0.0,0.0,0.0,0.0,0.0,0.0,0.0,4.7353,5.1612,5.4881,5.5362,5.6413,5.9135,6.021,6.1157,6.2382,6.1797,6.166,6.2452,6.1393,6.0992,6.1664,0.0,0.0,0.0,0.0,6.1981,6.2234,6.1591,6.1665,6.2361,6.1932,6.2108,6.2793,6.2793,6.2793,6.2793,6.2793,6.2793,6.2793,6.2793,6.2793,6.2842,6.337,6.3265,6.3086,6.5485,6.6806,6.7444,6.7444,0.0,0.0,6.6512,6.6035,6.5435,6.5545,6.5508,6.5435,6.5435,6.4714,6.3992,6.4066,6.3392,6.2646,6.2646,6.2108,6.1569,6.1484,6.0823,5.982,5.84,5.807,5.7556,5.6136,5.5732,5.5585,5.5585,5.5585,5.5722,5.6105,5.5802,5.5733,5.6067,0.0,0.0,5.5879,5.5133,5.4656,5.4656,5.3151,5.1242,4.8957,4.892,4.904,4.9114,4.9784,5.0886,5.2428,5.3298,5.4132,5.4766,4.8095,4.7352,0.0,0.0,0.0,0.0,0.0,0.0,0.0,0.0,0.0,0.0,0.0,0.0,0.0,0.0,0.0,4.5706,5.036,5.4564,5.7543,5.82,5.8714,5.9706,6.0295,6.0992,6.192,6.1321,6.1186,6.1981,6.1222,6.0584,6.0372,6.068,0.0,5.9822,6.1384,6.2063,6.175,6.2205,6.2561,6.2708,0.0,0.0,6.2793,6.2793,6.2793,6.2793,6.2793,6.2793,6.2793,6.2793,6.2793,6.2879,6.3664,6.3492,6.3013,6.4848,6.5618,6.5778,6.5778,6.6109,6.6512,6.6512,6.6402,6.6402,6.7026,6.6769,0.0,6.6256,6.4714,6.3196,6.3919,6.2952,6.1814,6.1814,6.1704,6.141,6.0786,6.0003,5.9343,5.9049,5.8437,5.7886,5.7593,5.6466,5.5585,5.5585,5.5585,5.5629,5.569,5.5651,5.5629,5.569,5.5651,5.6136,5.7421,5.6785,5.6334,5.6334,5.484,5.3445,5.2297,5.2894,5.3518,5.419,5.3702,5.3922,5.4924,5.6345,5.7483,5.8205,5.5489,5.5097,0.0,0.0,0.0,0.0,0.0,0.0,0.0,0.0,0.0,0.0,0.0,3.6516,3.9334,0.0,4.7021,5.0241,5.3812,5.6849,5.8685,5.9799,6.0423,6.0471,6.0763,6.1081,6.1513,6.0829,6.051,6.0923,5.9958,5.9403,5.9597,5.9997,6.0315,6.0406,6.1652,6.2268,6.2181,6.2609,6.2793,6.2793,6.2793,6.2793,6.2793,6.2793,6.2793,6.2793,6.2793,6.2793,6.2793,6.2793,6.305,6.3503,6.3906,6.3833,6.3539,6.4383,6.4958,6.5288,6.5288,6.5545,6.5888,6.5888,6.5888,6.5962,6.6366,6.6512,6.6512,6.6512,6.5338,6.4224,6.5081,6.4103,6.2964,6.3356,6.2805,6.2108,6.1692,6.0664,5.9783,5.9783,5.9501,5.9061,5.8657,5.7923,5.7262,5.6859,5.6796,5.6796,5.6796,5.6796,5.6796,5.6796,5.6796,5.6969,5.7373,5.7031,5.7141,5.7948,5.6859,5.5831,5.5012,5.5757,5.6565,5.7373,5.7409,5.7997,5.9208,6.0456,6.1263,6.1667,6.2071,6.1814,0.0,0.0,0.0,0.0,0.0,0.0,0.0,0.0,3.4034,3.7448,3.946,4.1617,4.503,4.8316,5.1473,5.4399,5.6748,5.8584,5.9526,6.0639,6.126,6.0988,6.1001,6.0996,6.0848,6.0078,5.9615,5.9615,5.8781,5.8499,5.9159,5.9838,6.0648,6.1581,6.2142,6.2512,6.2793,6.2793,6.2793,6.2793,6.2793,6.2793,6.2793,6.2793,6.2793,6.2793,6.2793,6.2903,6.305,6.305,6.3576,6.431,6.431,6.431,6.431,6.431,6.4824,6.5508,6.5362,6.5398,6.5545,6.5742,6.5545,6.5362,6.5668,6.5999,6.6256,6.6256,6.5705,6.5251,6.6072,6.5191,6.4237,6.4897,6.404,6.3013,6.2829,6.1655,6.0639,6.0639,6.0529,6.0187,5.9526,5.9416,5.9123,5.8143,5.7997,5.7997,5.7997,5.7997,5.7997,5.7997,5.7997,5.7923,5.774,5.7728,5.8425,6.004,5.9391,5.8657,5.7985,5.8584,5.9318,6.015,6.0786,6.1851,6.3306,6.4163,6.4653,6.4837,6.6966,6.6819,3.4321,3.2492,3.1971,3.3867,3.339,3.4314,0.0,0.0,4.0055,4.4011,4.6104,4.7609,4.883,5.1693,5.4436,5.6223,5.7948,5.96,6.1117,6.086,6.0517,6.0466,6.0478,6.0195,5.9485,5.8688,5.8221,5.8221,5.8766,5.9123,5.9196,6.0589,6.1483,6.1606,6.2353,6.2757,6.2793,6.2793,6.2793,6.2793,6.2793,6.2793,6.2793,6.2793,6.2793,6.2793,6.2793,6.3233,6.3943,6.3943,6.442,6.5191,6.5191,6.5191,6.5191,6.5191,6.5668,6.6256,6.5545,6.5765,6.6476,6.7187,6.6476,6.5582,6.699,6.6512,6.5435,6.5435,6.4861,6.442,6.5228,6.4751,6.4139,6.4213,6.4103,6.3723,6.2976,6.2108,6.1484,6.1484,6.0896,6.0382,6.026,6.026,5.9758,5.8217,5.7997,5.7997,5.7997,5.7997,5.7997,5.7997,5.7997,5.8841,6.0896,6.1043,6.1777,6.3442,6.2732,6.2205,6.2132,6.2205,6.2646,6.3552,6.3662,6.4127,6.5031,6.5852,6.6586,6.7333,6.8311,6.8238,3.7999,3.7184,3.7184,3.7734,3.8755,4.0516,4.3929,4.4011,4.4424,4.8012,4.9664,5.0986,5.2758,5.4583,5.6334,0.0,5.8756,5.96,6.075,6.0603,6.0236,5.9747,5.9281,5.8877,5.8547,5.8217,5.7997,5.7997,5.8756,5.9416,5.9857,6.097,6.1814,6.2291,6.2609,6.2793,6.2793,6.2793,6.2793,6.2793,6.2793,6.2793,6.2793,6.2793,6.2793,6.2793,6.2793,6.3282,6.4103,6.4103,6.4861,6.5999,6.5999,6.6292,6.6586,6.5655,6.5508,6.5742,6.5398,6.5508,6.5852,6.6182,6.5852,6.5435,6.6109,6.6145,6.6109,6.6549,6.6452,6.6379,6.721,6.6439,6.5485,6.5485,6.4787,6.3992,6.3649,6.2879,6.2291,6.2291,6.2022,6.1655,6.119,6.108,6.0713,5.9575,5.9795,5.9942,5.9465,6.0199,6.0774,6.0774,6.0382,6.0896,6.2891,6.3038,6.3552,6.4714,6.4444,6.4261,6.4261,6.4261,6.464,6.5485,6.5485,6.6109,6.738,6.7724,6.8311,6.9132,6.9926,7.0132,3.9688,4.0157,4.1067,4.0936,4.3167,4.5617,4.6498,4.7168,4.8453,5.1499,5.2747,5.3849,5.5622,5.6602,5.7581,5.8976,5.9196,5.9416,6.0003,6.0077,5.9673,5.8646,5.8022,5.7593,5.7373,5.7556,5.7776,5.796,5.8756,5.9563,6.037,6.1153,6.1961,6.2756,6.2793,6.2793,6.2793,6.2793,6.2793,6.2793,6.2793,6.2793,6.2793,6.2793,6.2793,6.2793,6.2793,6.3429,6.442,6.442,6.5375,6.6843,6.6843,6.7187,6.7554,6.6402,6.5962,6.5962,6.5962,6.5962,6.5999,6.6206,6.5985,6.5668,6.5888,6.6072,6.6292,6.688,6.7026,6.7173,6.776,6.7063,6.6182,6.6182,6.5118,6.4103,6.4103,6.3429,6.2793,6.2793,6.2793,6.2609,6.2034,6.1924,6.1741,6.1141,6.1777,6.1814,6.0566,6.1618,6.2462,6.2462,6.2144,6.2622,6.4273,6.442,6.4861,6.5888,6.5962,6.5962,6.5962,6.5962,6.6329,6.7136,6.7173,6.7834,6.9229,6.9229,6.9633,7.044,7.1013,7.1527,3.8006,3.9313,4.147,4.3029,4.5223,4.7856,5.1059,5.1803,5.2501,5.4961,5.6088,5.6664,5.6737,5.7409,5.8217,5.9086,5.9196,5.9196,5.9233,5.9233,5.8646,5.7068,5.6847,5.6528,0.0,5.6381,5.7152,5.7923,5.8756,5.9563,6.037,6.1153,6.1961,6.2756,6.2793,6.2793,6.2793,6.2793,6.2793,6.2793,6.2793,6.2793,6.2793,6.2793,6.2793,6.2793,6.2793,6.3747,6.5251,6.5251,6.6219,6.7664,6.7664,6.7664,6.77,6.7664,6.7627,6.7627,6.7627,6.7627,6.7774,6.8531,6.7724,6.6623,6.7407,6.6549,6.5325,6.5362,6.5362,6.5362,6.5398,6.5362,6.5325,6.5325,6.4714,6.4103,6.4103,6.3429,6.2793,6.2793,6.2793,6.2793,6.2756,6.2756,6.2756,6.2719,6.3466,6.3148,6.0713,6.1117,6.163,6.163,6.2316,6.3453,6.5105,6.5251,6.5925,6.7517,6.7627,6.7627,6.7627,6.7627,6.8031,6.8811,6.8825,6.9229,7.0073,7.0073,7.0477,7.127,7.1307,7.2151,4.0532,4.2433,4.4929,4.7645,4.9764,5.1709,5.3896,5.4373,5.463,5.5438,5.539,5.5049,5.4499,5.506,5.5684,5.5967,5.6921,5.7618,5.7618,5.7618,5.7226,5.6124,5.5978,0.0,0.0,0.0,0.0,5.7152,5.796,5.8988,6.0346,6.1153,6.1961,6.2756,6.2793,6.2793,6.2793,6.2793,6.2793,6.2793,6.2793,6.2793,6.2793,6.2793,6.2793,6.2829,6.3429,6.431,6.5325,6.5888,6.6733,6.77,6.77,6.77,6.77,6.77,6.77,6.77,6.77,6.77,6.7737,6.8031,6.7737,6.737,6.7627,6.7333,6.699,6.754,6.7674,6.7674,6.7674,6.7283,6.6769,6.6219,6.5485,6.4897,6.4897,6.4664,6.4297,6.3759,6.3649,6.3466,6.2903,6.2793,6.2793,6.2793,6.3539,6.3992,6.3686,6.3429,6.3466,6.4016,6.3833,6.431,6.5962,6.6109,6.6549,6.7627,6.8201,6.8495,6.8495,6.9009,6.9412,6.9706,6.9706,7.011,7.0903,7.0903,7.1307,7.2114,7.2642,7.3193,4.3415,4.5553,4.7976,5.1279,5.3078,5.4399,5.5721,5.5805,5.5585,5.5585,5.473,5.3739,5.292,5.2968,5.3298,5.3885,5.5097,5.593,5.593,5.6664,5.6712,5.5328,5.5438,5.5695,0.0,0.0,0.0,5.7116,5.7446,5.84,6.0309,6.0896,6.1667,6.2756,6.2793,6.2793,6.2793,6.2793,6.2793,6.2793,6.2793,6.2793,6.2793,6.2793,6.2793,6.2829,6.3392,6.4273,6.5325,6.5852,6.6696,6.77,6.77,6.77,6.77,6.77,6.77,6.77,6.77,6.77,6.77,6.77,6.77,6.77,6.77,6.77,6.7811,6.8311,6.8458,6.8458,6.8458,6.8104,6.759,6.704,6.6329,6.5742,6.5742,6.5508,6.5141,6.464,6.453,6.4347,6.3783,6.393,6.4114,6.4114,6.5081,6.5485,6.4517,6.4237,6.4323,6.4824,6.4677,6.5191,6.6769,6.6916,6.7393,6.8508,6.9045,6.9339,6.9339,6.9816,7.022,7.0513,7.055,7.0917,7.1711,7.1711,7.2151,7.2936,7.345,7.4001,4.6425,4.848,5.0518,5.3702,5.5097,5.5879,5.6627,5.6161,5.5548,5.5401,5.4069,5.2664,0.0,0.0,5.1159,5.2664,5.3728,5.4399,5.4399,5.6381,5.6969,0.0,0.0,0.0,0.0,0.0,0.0,5.7813,0.0,5.7838,6.0199,6.0382,6.1104,6.2683,6.2793,6.2793,6.2793,6.2793,6.2793,6.2793,6.2793,6.2793,6.2793,6.2793,6.2793,6.2793,6.2866,6.3783,6.5288,6.5325,6.6292,6.77,6.77,6.77,6.77,6.77,6.77,6.77,6.77,6.77,6.77,6.77,6.77,6.77,6.77,6.77,6.77,6.77,6.77,6.77,6.77,6.77,6.77,6.77,6.71,6.6549,6.6549,6.5962,6.5398,6.5362,6.5325,6.5288,6.5288,6.5925,6.6439,6.6439,6.776,6.738,6.349,6.3796,6.4323,6.4286,6.4971,6.6072,6.7627,6.7774,6.8435,7.0,7.0146,7.0146,7.0146,7.0183,7.0587,7.1344,7.1344,7.1747,7.2569,7.2569,7.2973,7.3744,7.378,7.4625,4.914,5.1463,5.3628,5.5684,5.6345,5.6565,5.6737,5.6161,5.4924,5.2527,5.0682,4.8737,0.0,0.0,0.0,4.869,5.1893,0.0,5.4399,5.4913,0.0,5.5291,0.0,5.5768,5.6161,5.6187,0.0,0.0,5.7262,5.7581,5.9416,6.0077,6.086,6.1887,6.2499,6.2793,6.2793,6.2793,6.2793,6.2793,6.2793,6.2793,6.2793,6.2793,6.2793,6.2829,6.3503,6.4347,6.5362,6.5962,6.6769,6.77,6.77,6.77,6.77,6.77,6.77,6.77,6.77,6.77,6.77,6.77,6.77,6.77,6.77,6.77,6.77,6.77,6.77,6.77,6.77,6.77,6.77,6.77,6.7554,6.7407,6.7407,6.7223,6.6916,6.6329,6.5692,6.5288,6.5288,6.5472,6.5632,6.5632,6.6476,6.6733,6.5705,6.6806,6.7467,6.6856,6.6966,6.7504,6.8495,6.8605,6.9009,7.0036,7.066,7.0977,7.0977,7.1578,7.1982,7.2188,7.2188,7.2606,7.3377,7.3377,7.3817,7.461,7.5212,7.5726,5.2123,5.4142,5.5757,5.7005,5.7068,5.6517,5.5453,5.4326,5.2454,4.8857,4.6801,4.5002,4.2837,4.4488,4.6507,0.0,0.0,0.0,5.4289,5.5023,5.55,0.0,5.5915,0.0,5.6737,5.6811,5.7005,0.0,5.7068,5.7508,5.9111,5.9967,6.0786,6.1569,6.2389,6.2793,6.2793,6.2793,6.2793,6.2793,6.2793,6.2793,6.2793,6.2793,6.2793,6.2829,0.0,6.42,6.5325,6.5778,6.6659,6.77,6.77,6.77,6.77,6.77,6.77,6.77,6.77,6.77,6.77,6.77,6.77,6.77,6.77,6.77,6.77,6.77,6.77,6.77,6.77,6.77,6.77,6.77,6.77,6.77,6.77,6.77,6.759,6.7113,6.6659,6.6476,6.683,6.6866,6.6866,6.6866,6.7871,6.8495,6.8128,6.8238,6.8201,6.7737,6.77,6.8178,6.9339,6.9449,6.9926,7.1064,7.1578,7.1821,7.1821,7.2275,7.2679,7.301,7.3046,7.3413,7.4221,7.4221,7.4661,7.5432,7.5909,7.6276,5.495,5.6345,5.7152,5.7813,5.7299,5.6003,5.3581,5.1526,4.9003,4.4883,4.28,4.1405,4.0626,4.2029,4.4387,4.7599,0.0,5.2611,5.4326,5.5757,5.6418,5.5842,5.6381,5.6847,5.6957,5.6957,5.6957,5.6957,5.6957,5.7581,5.8976,5.9893,6.0823,6.1741,6.2426,6.2793,6.2793,6.2793,6.2793,6.2793,6.2793,6.2793,6.2793,6.2793,6.2793,6.2793,0.0,0.0,6.5141,6.5251,6.6182,6.7554,6.7664,6.77,6.77,6.77,6.77,6.77,6.77,6.77,6.77,6.77,6.77,6.77,6.77,6.77,6.77,6.77,6.77,6.77,6.77,6.77,6.77,6.77,6.77,6.77,6.77,6.77,6.77,6.77,6.77,6.7921,6.8605,6.8752,6.8752,6.8752,7.0022,7.072,7.0036,6.9022,6.8325,6.8325,6.8251,6.8802,7.0293,7.033,7.0881,7.2422,7.2496,7.2569,7.2642,7.2679,7.3046,7.3817,7.3854,7.4258,7.505,7.505,7.5454,7.6276,7.6276,7.6717,5.6088,5.7189,5.7813,5.796,5.6907,5.5181,5.2747,4.937,0.0,4.1552,3.9431,3.8072,3.7294,4.0084,4.3571,4.6792,4.9958,5.2795,5.5071,5.5622,5.5978,0.0,5.6712,5.7068,5.774,5.7776,0.0,0.0,0.0,5.7923,5.818,5.9612,6.1068,6.2536,6.2719,6.2793,6.2793,6.2793,6.2793,6.2793,6.2793,6.2793,6.2793,6.2793,6.2793,6.2793,6.2793,0.0,6.4347,6.5031,6.5852,6.6769,6.7444,6.77,6.77,6.77,6.77,6.77,6.77,6.77,6.77,6.77,6.77,6.77,6.77,6.77,6.77,6.77,6.77,6.77,6.77,6.77,6.77,6.77,6.77,6.77,6.77,6.77,6.77,6.77,6.77,6.7737,6.7884,6.7921,6.7921,6.7921,6.8715,6.9252,6.9119,7.0624,7.1688,7.1688,7.105,7.105,7.2018,7.1454,7.149,7.2459,7.2496,7.2789,7.345,7.3487,7.3854,7.4683,7.4683,7.5102,7.5909,7.5909,7.6298,7.7105,7.7105,7.7546,5.7005,5.7703,5.7886,5.7483,5.5868,5.3371,4.9664,0.0,0.0,3.7661,3.5796,3.4945,3.4981,3.7632,4.1009,4.4635,4.6911,4.9481,5.3198,5.3382,5.3885,5.5941,5.6565,5.7104,0.0,5.7997,0.0,0.0,0.0,5.7997,5.7997,5.9538,6.1141,6.2756,6.2793,6.2793,6.2793,6.2793,6.2793,6.2793,6.2793,6.2793,6.2793,6.2793,6.2793,6.2793,6.2793,0.0,6.4176,6.4971,6.5765,6.6586,6.7407,6.77,6.77,6.77,6.77,6.77,6.77,6.77,6.77,6.77,6.77,6.77,6.77,6.77,6.77,6.77,6.77,6.77,6.77,6.77,6.77,6.77,6.77,6.77,6.77,6.77,6.77,6.77,6.77,6.77,6.77,6.77,6.77,6.77,6.8385,6.8885,6.8885,7.0293,7.1394,7.1821,7.1527,7.1637,7.2422,7.2532,7.2716,7.3083,7.3523,7.3913,7.4294,7.4331,7.4698,7.5506,7.5542,7.5931,7.6702,7.6702,7.7142,7.7986,7.7986,7.8405,5.7299,5.7886,5.7813,5.6994,5.4866,5.1709,4.6985,4.302,3.9048,3.4468,3.2773,3.2332,3.3146,3.5172,3.8072,0.0,4.3828,4.6104,5.0812,5.1389,5.2307,0.0,5.6198,0.0,5.7923,5.7997,0.0,0.0,0.0,0.0,5.8253,5.9612,6.108,6.2499,6.2719,6.2793,6.2793,6.2793,6.2793,6.2793,6.2793,6.2793,6.2793,6.2793,6.2793,6.2793,6.2793,0.0,0.0,6.4884,6.5668,6.6329,6.7333,6.77,6.77,6.77,6.77,6.77,6.77,6.77,6.77,6.77,6.77,6.77,6.77,6.77,6.77,6.77,6.77,6.77,6.77,6.77,6.77,6.77,6.77,6.77,6.77,6.7847,6.7958,6.7958,6.8104,6.8214,6.8214,6.8214,6.8288,6.8471,6.9009,6.9486,6.9669,7.022,7.0917,7.1711,7.1527,7.1711,7.2679,7.334,7.378,7.3927,7.4551,7.4977,7.516,7.516,7.5527,7.635,7.635,7.6665,7.7289,7.7509,7.7913,7.8589,7.8772,7.9286,5.6492,5.7446,5.7813,5.6994,5.4436,5.1032,4.6838,4.1707,3.6861,3.3433,3.1488,3.0687,3.1464,3.3006,0.0,0.0,0.0,4.5048,4.9243,5.1646,5.3361,5.4399,0.0,0.0,5.7923,5.7997,0.0,0.0,0.0,0.0,5.9049,5.993,6.0786,6.1667,6.2426,6.2793,6.2793,6.2793,6.2793,6.2793,6.2793,6.2793,6.2793,6.2793,6.2793,6.2793,6.2793,0.0,0.0,6.4628,6.5325,6.5545,6.7113,6.77,6.77,6.77,6.77,6.77,6.77,6.77,6.77,6.77,6.77,6.77,6.77,6.77,6.77,6.77,6.77,6.77,6.77,6.77,6.77,6.77,6.77,6.77,6.77,6.8274,6.8788,6.8788,6.9376,6.9889,6.9889,6.9889,7.0146,7.0866,7.1013,7.1344,7.2092,7.2239,7.2606,7.3377,7.2165,7.1931,7.345,7.367,7.4001,7.472,7.4867,7.5234,7.5946,7.5983,7.6371,7.7179,7.7179,7.7252,7.7289,7.8112,7.8516,7.8626,7.9339,8.0131,5.6223,5.7409,5.7703,5.6381,5.3665,5.0068,4.5489,4.0459,3.5833,3.2565,3.0607,2.9726,3.054,3.1201,3.3073,3.747,0.0,0.0,4.5232,4.7168,4.9287,5.2564,5.4363,0.0,0.0,0.0,0.0,0.0,0.0,0.0,5.8474,5.9722,6.0786,6.1569,6.2389,6.2793,6.2793,6.2793,6.2793,6.2793,6.2793,6.2793,6.2793,6.2793,6.2793,6.2793,6.2793,0.0,0.0,6.4591,6.5288,6.5472,6.7076,6.77,6.77,6.77,6.77,6.77,6.77,6.77,6.77,6.77,6.77,6.77,6.77,6.77,6.77,6.77,6.77,6.77,6.77,6.77,6.7811,6.8311,6.8421,6.8568,6.9045,6.9412,6.9633,6.9633,6.9889,7.011,7.011,7.011,7.0367,7.1197,7.0866,7.0881,7.1674,7.1784,7.2092,7.2899,7.2826,7.3193,7.4331,7.4882,7.5285,7.5616,7.6078,7.6481,7.6812,7.6812,7.6959,7.7289,7.7289,7.7546,7.8075,7.8442,7.9103,8.0057,8.0351,8.0938,5.4803,5.6308,5.6907,5.528,5.2454,4.8857,4.4204,3.9386,3.5055,3.2015,3.0136,2.917,2.9726,3.0057,3.1311,3.4651,0.0,3.714,4.2103,4.3892,4.6241,5.0398,0.0,5.4289,0.0,0.0,0.0,0.0,0.0,0.0,0.0,5.9318,6.0419,6.1227,6.2034,6.2572,6.2793,6.2793,6.2793,6.2793,6.2793,6.2793,6.2793,6.2793,6.2793,6.2793,0.0,0.0,0.0,6.4347,6.5081,6.5435,6.6806,6.748,6.77,6.77,6.77,6.77,6.77,6.77,6.77,6.77,6.77,6.77,6.77,6.77,6.77,6.77,6.77,6.7737,6.7994,6.8054,6.8238,6.9045,6.9265,6.9412,6.9963,7.0293,7.044,7.044,7.066,7.0807,7.0807,7.0807,7.1064,7.1894,7.1541,7.1468,7.2261,7.2555,7.2922,7.3487,7.4294,7.4918,7.5234,7.5983,7.6445,7.6445,7.6995,7.7289,7.7289,7.7289,7.7436,7.7693,7.7693,7.8112,7.8956,7.9176,7.9874,8.1012,8.1232,8.1672,5.162,5.3786,5.5254,5.3618,5.0755,4.7269,4.324,3.8527,3.4344,3.1904,3.0136,2.8981,2.9023,2.9653,3.0754,3.2369,3.4688,0.0,4.0663,4.3195,4.5617,0.0,0.0,5.1793,0.0,0.0,0.0,0.0,0.0,0.0,0.0,5.8756,5.96,6.037,6.119,6.1998,6.2793,6.2793,6.2793,6.2793,6.2793,6.2793,6.2793,6.2793,6.2793,0.0,0.0,0.0,0.0,6.3759,6.4567,6.5362,6.6182,6.699,6.77,6.77,6.77,6.77,6.77,6.77,6.77,6.77,6.77,6.77,6.77,6.77,6.77,6.77,6.77,6.7884,6.8678,6.8898,6.9082,6.9889,7.0073,7.0073,7.011,7.0734,7.1307,7.1307,7.1931,7.2496,7.2496,7.2496,7.2753,7.356,7.3685,7.3964,7.4757,7.5579,7.6056,7.6056,7.6775,7.6922,7.6166,7.6812,7.7289,7.7289,7.7289,7.7289,7.7289,7.7289,7.7693,7.8552,7.8589,7.8993,7.9779,8.0571,8.0975,8.1012,8.1819,8.2186,4.7535,4.9637,5.0959,4.8746,4.7012,4.4773,4.0773,3.7323,3.416,3.1201,2.9726,2.8981,2.8981,2.9207,3.0644,3.4504,3.5789,0.0,0.0,0.0,0.0,4.8976,5.3041,5.6014,0.0,0.0,0.0,0.0,0.0,0.0,0.0,5.8253,5.8767,5.9563,6.0896,6.1704,6.1998,6.2536,6.2793,6.2793,6.2793,6.2793,6.2793,6.2793,0.0,0.0,0.0,0.0,0.0,6.3723,6.4249,6.4604,6.5962,6.6659,6.6953,6.7517,6.77,6.77,6.77,6.77,6.77,6.77,6.77,6.77,6.77,6.77,6.77,6.77,6.77,6.7884,6.8678,6.8885,6.9252,7.061,7.0903,7.105,7.1615,7.1945,7.2129,7.2129,7.2349,7.2496,7.2496,7.2496,7.2789,7.356,7.323,7.3156,7.3964,7.4294,7.4661,7.5212,7.6004,7.6592,7.6885,7.7142,7.7289,7.7289,7.7289,7.7289,7.7289,7.7876,7.8332,7.8589,7.9155,7.98,8.0608,8.0901,8.1269,8.1819,8.2076,8.248,4.3828,4.6104,4.7324,4.5452,4.4158,4.2388,3.8652,3.5892,3.3353,3.0754,2.9574,2.8981,2.8981,2.9244,3.046,3.3513,3.5018,0.0,0.0,0.0,0.0,4.9711,0.0,0.0,0.0,0.0,0.0,0.0,0.0,0.0,0.0,5.7997,5.8217,5.8719,6.0015,6.1006,6.1594,6.2108,6.2499,6.2793,6.2793,6.2793,6.2793,6.2793,0.0,0.0,0.0,0.0,0.0,6.3392,6.3796,6.4249,6.5521,6.6219,6.6586,6.7407,6.77,6.77,6.77,6.77,6.77,6.77,6.77,6.77,6.77,6.77,6.7774,6.8068,6.8128,6.8421,6.9509,6.9802,7.0132,7.1454,7.1747,7.1894,7.2386,7.2496,7.2496,7.2496,7.2496,7.2496,7.2496,7.2496,7.2679,7.3156,7.2826,7.2679,7.3193,7.3487,7.4001,7.4793,7.5616,7.6423,7.7252,7.7289,7.7289,7.7289,7.7289,7.7436,7.7766,7.8295,7.8883,7.9507,7.9984,8.0645,8.1452,8.1452,8.1709,8.2186,8.2517,8.292,0.0,4.2791,4.3782,4.2955,4.1625,3.9782,3.667,3.4167,0.0,3.0467,2.9506,2.9023,2.9133,2.969,3.024,3.065,3.3243,0.0,0.0,4.1422,0.0,0.0,5.3225,0.0,0.0,0.0,0.0,0.0,0.0,0.0,0.0,5.7997,5.7997,5.7997,5.8719,5.9857,6.141,6.152,6.1998,6.2719,6.2756,6.2793,6.2793,6.2793,0.0,0.0,0.0,0.0,0.0,6.2793,6.3282,6.409,6.4971,6.5778,6.6512,6.737,6.77,6.77,6.77,6.77,6.77,6.77,6.77,6.77,6.77,6.77,6.7884,6.8678,6.8885,6.9252,7.0866,7.1307,7.149,7.2312,7.2496,7.2496,7.2496,7.2496,7.2496,7.2496,7.2496,7.2496,7.2496,7.2496,7.2496,7.2496,7.2496,7.2496,7.2496,7.3156,7.3927,7.4793,7.5579,7.635,7.7252,7.7289,7.7289,7.7289,7.7362,7.7766,7.8552,7.8699,7.947,8.0975,8.1048,8.1452,8.2186,8.2186,8.2186,8.2223,8.303,8.3418,3.4167,0.0,3.6949,3.5525,3.5341,3.5018,0.0,3.2088,3.1237,2.961,2.9133,2.939,3.0613,2.9983,3.0717,3.5062,0.0,3.7925,4.0781,0.0,0.0,5.4043,0.0,0.0,0.0,0.0,0.0,0.0,0.0,0.0,0.0,5.7997,5.7997,5.7997,5.818,5.8767,5.9747,6.097,6.1704,6.1887,6.2499,6.2793,6.2793,6.2793,0.0,0.0,0.0,0.0,6.2793,6.2793,6.2903,6.3233,6.4738,6.5398,6.5742,6.7187,6.77,6.77,6.77,6.77,6.77,6.77,6.77,6.77,6.77,6.77,6.7884,6.8678,6.8885,6.9252,7.0866,7.1307,7.149,7.2312,7.2496,7.2496,7.2496,7.2496,7.2496,7.2496,7.2496,7.2496,7.2496,7.2496,7.2496,7.2496,7.2496,7.2496,7.2496,7.2679,7.334,7.4757,7.505,7.5747,7.7179,7.7289,7.7289,7.7289,7.7913,7.8405,7.8589,7.9764,8.0608,8.1012,8.1599,8.2003,8.2186,8.2186,8.2186,8.2223,8.303,8.3711,3.0711,3.2943,3.4777,3.3903,3.4014,3.3947,3.2339,3.1384,3.0503,2.9244,2.8981,2.939,3.0613,3.043,3.1347,3.5172,3.6758,0.0,0.0,0.0,5.2417,5.5254,0.0,0.0,0.0,0.0,0.0,0.0,0.0,0.0,0.0,5.7997,5.7997,5.7997,5.7997,5.84,5.9184,6.004,6.0676,6.1043,6.1851,6.2254,6.2254,6.2646,6.2793,0.0,0.0,0.0,6.2793,6.2793,6.2793,6.2939,6.4237,6.4971,6.5435,6.6696,6.737,6.77,6.77,6.77,6.77,6.77,6.77,6.77,6.77,6.7958,6.8421,6.9229,6.9743,7.0279,7.1527,7.1857,7.1967,7.2422,7.2496,7.2496,7.2496,7.2496,7.2496,7.2496,7.2496,7.2496,7.2496,7.2496,7.2496,7.2496,7.2496,7.2496,7.2496,7.2496,7.312,7.472,7.4903,7.5564,7.7179,7.7656,7.7876,7.7876,7.8332,7.8919,7.9653,8.0534,8.1158,8.1525,8.1966,8.2186,8.2186,8.2186,8.237,8.2774,8.3581,8.4389,2.9244,3.2032,3.4711,3.419,3.4264,3.4014,3.2436,3.1011,2.9837,2.9133,2.9097,2.95,3.0577,3.1317,0.0,0.0,0.0,0.0,4.6792,5.0178,5.2905,0.0,0.0,0.0,0.0,0.0,0.0,0.0,0.0,0.0,0.0,5.7997,5.7997,5.7997,5.7997,5.8327,5.9013,5.9159,5.9526,6.0236,6.1043,6.1484,6.163,6.2328,6.2683,0.0,0.0,0.0,6.2793,6.2793,6.2793,6.2903,6.3759,6.4604,6.5398,6.6219,6.699,6.77,6.77,6.77,6.77,6.77,6.77,6.77,6.77,6.8348,6.9229,6.9926,7.0697,7.149,7.2312,7.2496,7.2496,7.2496,7.2496,7.2496,7.2496,7.2496,7.2496,7.2496,7.2496,7.2496,7.2496,7.2496,7.2496,7.2496,7.2496,7.2496,7.2496,7.2496,7.3083,7.4551,7.472,7.5417,7.7142,7.7986,7.8552,7.8956,7.8956,7.9617,8.1122,8.1195,8.1489,8.2186,8.2186,8.2186,8.2186,8.2186,8.2627,8.3418,8.4242,8.5013,3.0283,3.2485,3.3323,3.0601,3.0938,3.1531,2.9904,2.9354,2.9133,2.9023,2.9537,3.0681,3.2852,3.333,3.4658,0.0,0.0,4.4387,0.0,0.0,0.0,0.0,0.0,0.0,0.0,0.0,0.0,0.0,0.0,0.0,0.0,5.7997,5.7997,5.7997,5.7997,5.807,5.818,5.8866,5.9269,5.938,6.0187,6.0933,6.1606,6.1741,6.2144,0.0,0.0,6.2793,6.2793,6.2793,6.2793,6.2903,6.3759,6.4604,6.5398,6.6219,6.699,6.77,6.77,6.77,6.77,6.77,6.77,6.77,6.77,6.8728,6.9926,7.0073,7.0697,7.149,7.2312,7.2496,7.2496,7.2496,7.2496,7.2496,7.2496,7.2496,7.2496,7.2496,7.2496,7.2496,7.2496,7.2496,7.2496,7.2496,7.2496,7.2496,7.2496,7.2496,7.2863,7.378,7.3891,7.4808,7.7105,7.7436,7.839,8.0498,8.0645,8.1048,8.1966,8.2003,8.2076,8.2186,8.2186,8.2186,8.2186,8.2186,8.2627,8.3418,8.4242,8.5013,2.9041,3.0613,3.1715,3.1115,3.2852,3.4401,3.322,3.2222,3.1598,3.1598,3.1892,3.2742,3.4761,0.0,3.7918,4.2396,0.0,4.7205,0.0,0.0,0.0,0.0,0.0,0.0,0.0,0.0,0.0,0.0,0.0,0.0,0.0,0.0,5.7997,5.7997,5.7997,5.7997,5.7997,5.8364,5.8535,5.8547,5.938,5.993,6.0334,6.119,6.1777,6.2181,0.0,6.2793,6.2793,6.2793,6.2793,6.2829,6.3233,6.3906,6.4787,6.6035,6.699,6.77,6.77,6.77,6.77,6.77,6.77,6.7774,6.8201,6.9155,7.0183,7.0624,7.1307,7.2041,7.2422,7.2496,7.2496,7.2496,7.2496,7.2496,7.2496,7.2496,7.2496,7.2496,7.2496,7.2496,7.2496,7.2496,7.2496,7.2496,7.2496,7.2496,7.2496,7.2899,7.345,7.4258,7.5139,7.6313,7.7876,7.8794,7.9784,8.0938,8.1415,8.1819,8.2186,8.2186,8.2186,8.2186,8.2186,8.2186,8.2186,8.2627,8.3251,8.4058,8.4866,8.5673,2.8453,2.9402,3.0644,3.2442,3.4474,3.617,3.6494,3.5128,3.4027,3.4798,3.4945,3.5385,0.0,3.8909,0.0,4.581,4.7829,0.0,0.0,0.0,0.0,0.0,0.0,0.0,0.0,0.0,0.0,0.0,0.0,0.0,0.0,0.0,5.7997,5.7997,5.7997,5.7997,5.7997,5.7997,5.7997,5.7997,5.8609,5.9013,5.9233,6.0493,6.1227,6.1643,6.2254,6.2646,6.2793,6.2793,6.2793,6.2793,6.2793,6.3466,6.453,6.5962,6.699,6.77,6.77,6.77,6.77,6.77,6.77,6.7847,6.8678,6.9449,7.0257,7.1087,7.1857,7.2496,7.2496,7.2496,7.2496,7.2496,7.2496,7.2496,7.2496,7.2496,7.2496,7.2496,7.2496,7.2496,7.2496,7.2496,7.2496,7.2496,7.2496,7.2569,7.2753,7.3303,7.4001,7.4793,7.6004,7.7252,7.8479,8.0241,8.1269,8.1269,8.1856,8.2186,8.2186,8.2186,8.2186,8.2186,8.2186,8.2186,8.2186,8.3014,8.3821,8.4609,8.5416,8.6224,3.0326,3.0687,3.076,3.3146,3.2786,3.2829,3.6574,3.5539,3.4651,3.7734,3.8358,3.8615,0.0,4.2808,4.5993,4.7829,4.9517,0.0,0.0,0.0,0.0,0.0,0.0,0.0,0.0,0.0,0.0,0.0,0.0,0.0,0.0,0.0,0.0,5.7997,5.7997,5.7997,5.7997,5.7997,5.7997,5.7997,5.807,5.8474,5.9196,5.9306,6.0187,6.1606,6.1667,6.2108,6.2793,6.2793,6.2793,6.2793,6.2793,6.3783,6.5325,6.6182,6.699,6.77,6.77,6.77,6.77,6.77,6.77,6.7847,6.8678,6.9449,7.0257,7.1087,7.1857,7.2496,7.2496,7.2496,7.2496,7.2496,7.2496,7.2496,7.2496,7.2496,7.2496,7.2496,7.2496,7.2496,7.2496,7.2496,7.2496,7.2496,7.2496,7.2789,7.3523,7.367,7.4001,7.4793,7.5014,7.6041,7.8405,8.0755,8.2113,8.2113,8.215,8.2186,8.2186,8.2186,8.2186,8.2186,8.2186,8.2186,8.2186,8.3014,8.3821,8.4609,8.5416,8.6224,2.882,2.9659,3.0797,3.3183,3.4144,3.5099,3.7661,3.8689,3.9717,4.1984,4.2837,4.3277,0.0,0.0,4.7159,4.8783,5.0435,0.0,0.0,0.0,0.0,0.0,0.0,0.0,0.0,0.0,0.0,0.0,0.0,0.0,0.0,0.0,0.0,5.796,5.7997,5.7997,5.7997,5.7997,5.7997,5.7997,5.7997,5.8143,5.8462,5.8976,5.9783,6.0896,6.1374,6.2071,6.2793,6.2793,6.2793,6.2793,6.2793,6.382,6.5325,6.5632,6.6586,6.77,6.77,6.77,6.77,6.77,6.77,6.7958,6.9265,6.9853,7.0367,7.1688,7.2275,7.2496,7.2496,7.2496,7.2496,7.2496,7.2496,7.2496,7.2496,7.2496,7.2496,7.2496,7.2496,7.2496,7.2496,7.2496,7.2679,7.3156,7.323,7.3523,7.4331,7.4882,7.5322,7.5616,7.657,7.8002,7.9947,8.0938,8.1672,8.215,8.2186,8.2186,8.2186,8.2186,8.2186,8.2186,8.2186,8.2443,8.2957,8.3748,8.4572,8.538,8.6187,8.6701,2.8301,2.8992,3.035,3.2485,3.4468,3.6589,3.9239,4.1111,4.2983,4.536,4.6058,4.6205,4.5957,0.0,0.0,0.0,0.0,0.0,0.0,0.0,0.0,0.0,0.0,0.0,0.0,0.0,0.0,0.0,0.0,0.0,0.0,0.0,0.0,0.0,5.7629,5.774,5.7997,5.7997,5.7997,5.7997,5.7997,5.7997,5.8033,5.8572,5.9269,6.0077,6.086,6.1667,6.2426,6.2683,6.2793,6.2793,6.2793,6.382,6.5288,6.5288,6.6329,6.77,6.77,6.77,6.77,6.77,6.77,6.7994,6.9596,7.011,7.044,7.2055,7.2496,7.2496,7.2496,7.2496,7.2496,7.2496,7.2496,7.2496,7.2496,7.2496,7.2496,7.2496,7.2496,7.2496,7.2496,7.2716,7.3083,7.3611,7.3927,7.4368,7.516,7.5763,7.6203,7.6445,7.7745,7.9066,8.0167,8.0718,8.1232,8.1782,8.2039,8.2186,8.2186,8.2186,8.2186,8.2186,8.2186,8.259,8.3381,8.4205,8.5013,8.582,8.6628,8.6978,2.9427,2.9023,2.9427,3.1023,3.325,3.6325,4.1222,4.2323,4.3461,4.7489,4.7672,4.6865,4.6067,4.7241,0.0,0.0,0.0,0.0,0.0,0.0,0.0,0.0,0.0,0.0,0.0,0.0,0.0,0.0,0.0,0.0,0.0,0.0,0.0,0.0,5.6774,5.7189,5.796,5.7997,5.7997,5.7997,5.7997,5.7997,5.7997,5.7997,5.8437,5.9233,6.004,6.086,6.1667,6.2462,6.2793,6.2793,6.2793,6.382,6.5288,6.5288,6.6329,6.77,6.77,6.77,6.77,6.77,6.77,6.7994,6.9596,7.011,7.044,7.2055,7.2496,7.2496,7.2496,7.2496,7.2496,7.2496,7.2496,7.2496,7.2496,7.2496,7.2496,7.2496,7.2496,7.2496,7.2496,7.3156,7.3722,7.3722,7.4404,7.5197,7.6019,7.6093,7.6423,7.7215,7.806,7.8589,7.8589,8.0057,8.0975,8.1012,8.1746,8.2186,8.2186,8.2186,8.2186,8.2186,8.2186,8.2627,8.3418,8.4242,8.5013,8.5837,8.6628,8.6978,2.8448,2.9402,3.1054,3.2706,3.6633,4.081,4.3415,4.4415,4.5847,4.9334,4.892,4.7856,4.7645,0.0,0.0,0.0,0.0,0.0,0.0,0.0,0.0,0.0,0.0,0.0,0.0,0.0,0.0,0.0,0.0,0.0,0.0,0.0,0.0,0.0,5.5952,5.6345,5.7141,5.7152,5.7446,5.7997,5.7997,5.7997,5.7997,5.7997,5.8437,5.9196,5.9453,6.0334,6.1667,6.2462,6.2793,6.2793,6.2793,6.3503,6.453,6.5081,6.5962,6.6953,6.7517,6.77,6.77,6.77,6.77,6.7994,6.9596,7.011,7.044,7.2055,7.2496,7.2496,7.2496,7.2496,7.2496,7.2496,7.2496,7.2496,7.2496,7.2496,7.2496,7.2496,7.2496,7.2496,7.2496,7.3156,7.3891,7.4478,7.5249,7.6041,7.6848,7.6922,7.7032,7.7289,7.7546,7.7913,7.8552,7.9029,7.98,8.0938,8.1232,8.1599,8.2186,8.2186,8.2186,8.2186,8.2774,8.3434,8.4242,8.5049,8.5857,8.6664,8.6885,8.6978,2.9659,3.1017,3.2969,3.5569,3.9056,4.2498,4.5067,4.6278,4.7425,0.0,4.8994,4.8296,4.8296,4.8296,0.0,0.0,0.0,0.0,0.0,0.0,0.0,0.0,0.0,0.0,0.0,0.0,0.0,0.0,0.0,0.0,0.0,0.0,0.0,0.0,5.5108,5.55,5.6308,5.6308,5.6748,5.7519,5.7519,5.7703,5.7997,5.7997,5.8253,5.8756,5.938,6.0419,6.1667,6.2462,6.2793,6.2793,6.2793,6.3319,6.4213,6.4995,6.5815,6.6623,6.7407,6.77,6.77,6.77,6.77,6.7958,6.9229,6.9853,7.0367,7.1651,7.2261,7.2496,7.2496,7.2496,7.2496,7.2496,7.2496,7.2496,7.2496,7.2496,7.2496,7.2496,7.2496,7.2496,7.2496,7.3413,7.4331,7.483,7.5858,7.6738,7.7252,7.7289,7.7289,7.7289,7.7289,7.7509,7.8023,7.8405,7.914,8.0424,8.0828,8.1379,8.215,8.2186,8.2186,8.2186,8.2994,8.3785,8.4609,8.5416,8.6224,8.6978,8.6978,8.6978,3.1965,3.3073,3.4761,3.888,4.0744,4.2498,4.6232,4.7709,4.8296,4.8296,0.0,4.8296,4.8296,0.0,0.0,0.0,0.0,0.0,0.0,0.0,0.0,0.0,0.0,0.0,0.0,0.0,0.0,0.0,0.0,0.0,0.0,0.0,0.0,5.4289,5.4289,5.4693,5.5475,5.5475,5.5904,0.0,5.6774,5.7178,5.7886,5.796,5.7997,5.807,5.9612,6.075,6.1557,6.2352,6.2719,6.2793,6.2793,6.3282,6.4103,6.4897,6.5705,6.6512,6.7297,6.7627,6.77,6.77,6.77,6.7847,6.8678,6.9449,7.0257,7.1087,7.1857,7.2496,7.2496,7.2496,7.2496,7.2496,7.2496,7.2496,7.2496,7.2496,7.2496,7.2496,7.2496,7.2532,7.2606,7.3876,7.494,7.5087,7.6371,7.7289,7.7289,7.7289,7.7289,7.7289,7.7289,7.7289,7.7289,7.8038,7.8846,7.9743,8.0498,8.1269,8.215,8.2186,8.2223,8.2296,8.3104,8.3895,8.4719,8.5527,8.6297,8.6978,8.6978,8.6978,3.046,3.2228,3.4761,3.888,4.2396,4.525,4.6746,4.7709,4.8296,4.8296,4.8296,4.8296,4.8296,0.0,0.0,0.0,0.0,0.0,0.0,0.0,0.0,0.0,0.0,0.0,0.0,0.0,0.0,0.0,0.0,0.0,0.0,0.0,0.0,5.3434,5.3471,5.3849,5.4656,5.4656,5.506,0.0,5.6492,5.6884,5.7079,5.7703,5.7997,5.8033,5.9013,5.9893,6.0713,6.152,6.2218,6.2793,6.2793,6.2903,6.316,6.4053,6.4861,6.5668,6.6476,6.7187,6.77,6.77,6.77,6.7847,6.8678,6.9449,7.0257,7.1087,7.1857,7.2496,7.2496,7.2496,7.2496,7.2496,7.2496,7.2496,7.2496,7.2496,7.2496,7.2496,7.2496,7.2716,7.334,7.4258,7.5344,7.6592,7.7069,7.7289,7.7289,7.7289,7.7289,7.7289,7.7289,7.7289,7.7289,7.7472,7.8222,7.9706,7.9963,8.0681,8.215,8.2186,8.248,8.3124,8.3948,8.4756,8.5527,8.6371,8.6848,8.6978,8.6978,8.6978,3.1194,3.344,3.6156,4.1001,4.4048,4.6104,4.6938,4.7406,4.7819,4.8223,4.8296,4.8296,0.0,0.0,0.0,0.0,0.0,0.0,0.0,0.0,0.0,0.0,0.0,0.0,0.0,0.0,0.0,0.0,0.0,0.0,0.0,5.3214,5.3214,5.3214,5.3214,5.3398,5.3801,5.3838,5.4216,5.5034,5.5464,5.604,5.6811,5.7629,5.7997,5.8033,5.8866,5.9673,6.0456,6.1263,6.2071,6.2793,6.2793,6.2793,6.2903,6.3759,6.4604,6.5398,6.6219,6.7026,6.77,6.77,6.77,6.7774,6.8201,6.9155,7.0183,7.0624,7.1578,7.2496,7.2496,7.2496,7.2496,7.2496,7.2496,7.2496,7.2496,7.2496,7.2496,7.2496,7.2496,7.2753,7.3575,7.4698,7.5894,7.7142,7.7289,7.7289,7.7289,7.7289,7.7289,7.7289,7.7289,7.7289,7.7289,7.7289,7.7839,7.9155,7.9596,8.0367,8.1562,8.237,8.2994,8.3381,8.4205,8.5013,8.58,8.6628,8.6978,8.6978,8.6978,8.6978,3.2008,3.5018,3.8146,4.3232,4.5112,4.5883,4.6526,4.6892,4.7296,4.7966,4.8186,0.0,0.0,0.0,0.0,0.0,0.0,0.0,0.0,0.0,0.0,0.0,0.0,0.0,0.0,0.0,0.0,0.0,0.0,0.0,5.3214,5.3214,5.3214,5.3214,5.3214,5.3214,5.3214,5.3214,5.3544,5.4179,5.4326,5.5244,5.6811,5.7483,5.7886,5.8033,5.8682,5.9453,6.0272,6.1043,6.1887,6.2609,6.2756,6.2793,6.2903,6.3613,6.4494,6.5398,6.6072,6.6916,6.77,6.77,6.77,6.77,6.77,6.8839,7.011,7.011,7.1248,7.2496,7.2496,7.2496,7.2496,7.2496,7.2496,7.2496,7.2496,7.2496,7.2496,7.2496,7.2716,7.312,7.378,7.5249,7.6518,7.7215,7.7289,7.7289,7.7289,7.7289,7.7289,7.7289,7.7289,7.7289,7.7289,7.7289,7.7656,7.8552,7.9213,7.9947,8.0755,8.2207,8.3051,8.3197,8.4278,8.5196,8.6004,8.6701,8.6978,8.6978,8.6978,8.6978,3.0136,3.4945,4.0092,4.2955,4.4268,4.4883,4.4993,0.0,4.7113,0.0,4.7819,0.0,0.0,0.0,0.0,0.0,0.0,0.0,0.0,0.0,0.0,0.0,0.0,0.0,0.0,0.0,0.0,0.0,0.0,0.0,5.3214,5.3214,5.3214,5.3214,5.3214,5.3214,5.3214,5.3214,5.3251,5.3361,5.4069,5.5244,5.6811,5.6921,5.7336,5.7997,5.8107,5.8621,5.9416,6.0236,6.1043,6.1814,6.2536,6.2793,6.2793,6.2939,6.3967,6.5325,6.5398,6.6439,6.77,6.77,6.77,6.77,6.77,6.8839,7.011,7.011,7.1248,7.2496,7.2496,7.2496,7.2496,7.2496,7.2496,7.2496,7.2496,7.2496,7.2496,7.2496,7.3634,7.461,7.472,7.6078,7.7179,7.7289,7.7289,7.7289,7.7289,7.7289,7.7289,7.7289,7.7289,7.7289,7.7289,7.7289,7.7656,7.8552,7.8699,7.9103,7.9926,8.0828,8.1636,8.2333,8.4499,8.604,8.6848,8.6941,8.6978,8.6978,8.6978,8.6978,3.1708,3.6002,3.99,4.2772,4.3763,4.4158,4.459,4.525,4.5874,4.6315,0.0,0.0,0.0,0.0,0.0,0.0,0.0,0.0,0.0,0.0,0.0,0.0,0.0,0.0,0.0,0.0,0.0,0.0,0.0,5.2527,5.2527,5.2957,5.3214,5.3214,5.3214,5.3214,5.3214,5.3214,5.3214,5.3214,5.4032,5.5023,5.6124,5.6602,5.7262,5.7997,5.7997,5.8474,5.9269,6.0077,6.086,6.1679,6.2499,6.2793,6.2793,6.2793,6.3857,6.5288,6.5288,6.6366,6.77,6.77,6.77,6.77,6.77,6.8839,7.011,7.011,7.1248,7.2496,7.2496,7.2496,7.2496,7.2496,7.2496,7.2496,7.2496,7.2496,7.2496,7.2496,7.3802,7.4903,7.4903,7.6225,7.7289,7.7289,7.7289,7.7289,7.7289,7.7289,7.7289,7.7289,7.7289,7.7289,7.7289,7.7289,7.7472,7.7839,7.8332,7.8772,7.9103,8.0755,8.1819,8.2186,8.4132,8.5527,8.6334,8.6775,8.6978,8.6978,8.6978,8.6978,3.2516,3.5598,3.8021,4.167,4.2588,4.2919,0.0,0.0,4.4635,0.0,0.0,0.0,0.0,0.0,0.0,0.0,0.0,0.0,0.0,0.0,0.0,0.0,0.0,0.0,0.0,0.0,0.0,0.0,5.1242,5.1767,5.1987,5.2564,5.2994,5.3177,5.3214,5.3214,5.3214,5.3214,5.3214,5.3214,5.3812,5.462,5.5622,5.6235,5.7042,5.7997,5.7997,5.8327,5.8976,5.9747,6.0566,6.1374,6.2181,6.2609,6.2793,6.2793,6.371,6.5031,6.5215,6.6219,6.7444,6.7627,6.77,6.77,6.77,6.8839,7.011,7.011,7.1248,7.2496,7.2496,7.2496,7.2496,7.2496,7.2496,7.2496,7.2496,7.2496,7.2569,7.2789,7.3964,7.494,7.516,7.6371,7.7289,7.7289,7.7289,7.7289,7.7289,7.7289,7.7289,7.7289,7.7289,7.7289,7.7289,7.7289,7.7289,7.7289,7.7913,7.8369,7.8589,8.0498,8.1672,8.1893,8.3471,8.4792,8.58,8.6407,8.6794,8.6978,8.6978,8.6978,3.0473,3.2228,3.4057,3.888,4.0092,4.0716,0.0,0.0,0.0,0.0,0.0,0.0,0.0,0.0,0.0,0.0,0.0,0.0,0.0,0.0,0.0,0.0,0.0,0.0,0.0,0.0,0.0,0.0,5.0408,5.1206,5.195,5.206,5.2417,5.3177,5.3214,5.3214,5.3214,5.3214,5.3214,5.3214,5.3251,5.4069,5.5585,5.5658,5.6539,5.7997,5.7997,5.8033,5.8107,5.8939,5.9747,6.0529,6.1337,6.2144,6.2793,6.2793,6.3392,6.4286,6.5044,6.5852,6.6696,6.7444,6.77,6.77,6.77,6.8839,7.011,7.011,7.1248,7.2496,7.2496,7.2496,7.2496,7.2496,7.2496,7.2496,7.2496,7.2496,7.2716,7.3487,7.4331,7.5124,7.5909,7.6738,7.7289,7.7289,7.7289,7.7289,7.7289,7.7289,7.7289,7.7289,7.7289,7.7289,7.7289,7.7289,7.7289,7.7289,7.7362,7.7729,7.8552,7.9449,8.0277,8.1048,8.2647,8.4242,8.58,8.582,8.6261,8.6978,8.6978,8.6978,2.9176,3.1194,3.3396,3.6743,3.877,4.0275,4.1654,4.2772,4.3579,0.0,0.0,0.0,0.0,0.0,0.0,0.0,0.0,0.0,0.0,0.0,0.0,0.0,0.0,0.0,0.0,0.0,0.0,0.0,0.0,5.0151,5.0445,5.1436,5.2123,5.2417,5.292,5.3214,5.3214,5.3214,5.3214,5.3214,5.3214,5.3765,5.484,5.5365,5.6198,5.7262,5.7776,5.7997,5.807,5.8866,5.9673,6.0493,6.13,6.2108,6.2793,6.2793,6.3356,6.4213,6.5007,6.5852,6.6623,6.7444,6.77,6.77,6.77,6.8839,7.011,7.011,7.1248,7.2496,7.2496,7.2496,7.2496,7.2496,7.2496,7.2642,7.3156,7.3266,7.334,7.3648,7.4771,7.5763,7.6056,7.6775,7.7142,7.6592,7.6959,7.7105,7.6592,7.6995,7.7289,7.7289,7.7289,7.7289,7.7289,7.7289,7.7289,7.7289,7.7803,7.8259,7.8589,7.9874,8.0718,8.1012,8.2076,8.3177,8.4278,8.5306,8.593,8.6224,8.6775,8.6978,2.7488,2.9359,3.1782,0.0,3.645,3.7889,4.1148,0.0,4.1862,0.0,0.0,0.0,0.0,0.0,0.0,0.0,0.0,0.0,0.0,0.0,0.0,0.0,0.0,0.0,0.0,0.0,0.0,0.0,0.0,0.0,4.9564,5.0592,5.1436,5.1987,5.2774,5.3214,5.3214,5.3214,5.3214,5.3214,5.3214,5.3618,5.4436,5.5218,5.6051,5.6847,5.7666,5.7997,5.8033,5.8572,5.9416,6.0456,6.1006,6.1851,6.2793,6.2793,6.3172,6.3833,6.4921,6.5655,6.6256,6.737,6.77,6.7737,6.8031,6.9045,7.0146,7.044,7.1468,7.2496,7.2496,7.2496,7.2496,7.2496,7.2496,7.2716,7.3538,7.3722,7.3868,7.4404,7.5359,7.6203,7.646,7.6959,7.7105,7.6592,7.6959,7.7105,7.6555,7.6959,7.7289,7.7289,7.7289,7.7289,7.7289,7.7289,7.7289,7.7289,7.8112,7.8699,7.8993,8.0277,8.1122,8.1415,8.1929,8.2443,8.2994,8.4352,8.5123,8.5416,8.6224,8.6738,0.0,0.0,0.0,0.0,0.0,0.0,4.1377,0.0,0.0,0.0,0.0,0.0,0.0,0.0,0.0,0.0,0.0,0.0,0.0,0.0,0.0,0.0,0.0,0.0,0.0,0.0,0.0,0.0,4.8296,4.8636,4.9417,4.9564,5.0372,5.195,5.2774,5.3214,5.3214,5.3214,5.3214,5.3214,5.3214,5.3618,5.4399,5.5218,5.6014,5.6811,5.7629,5.7997,5.7997,5.7997,5.8951,6.0419,6.0419,6.1361,6.2793,6.2793,6.2829,6.3086,6.4738,6.5325,6.5582,6.7187,6.77,6.7847,6.8678,6.9449,7.0257,7.1087,7.1857,7.2496,7.2496,7.2496,7.2496,7.2496,7.2532,7.2753,7.356,7.3758,7.4221,7.5799,7.613,7.6387,7.7179,7.7289,7.7289,7.7289,7.7252,7.7252,7.7252,7.7252,7.7289,7.7289,7.7289,7.7289,7.7289,7.7289,7.7326,7.7362,7.8148,7.8993,7.9816,8.0608,8.1415,8.2186,8.2186,8.2186,8.2186,8.3014,8.3785,8.4572,8.5416,8.6224,2.5416,0.0,0.0,0.0,0.0,0.0,0.0,0.0,0.0,0.0,0.0,0.0,0.0,0.0,0.0,0.0,0.0,0.0,0.0,0.0,0.0,0.0,0.0,0.0,0.0,0.0,0.0,0.0,4.8296,4.8416,4.8636,4.9811,5.0949,5.1987,5.2774,5.3214,5.3214,5.3214,5.3214,5.3214,5.3214,5.3324,5.3581,5.4961,5.5732,5.6014,5.7409,5.7997,5.7997,5.7997,5.8951,6.0419,6.0419,6.1361,6.2793,6.2793,6.3209,6.3906,6.4921,6.5692,6.6329,6.737,6.77,6.7847,6.8678,6.9449,7.0257,7.1087,7.1857,7.2496,7.2496,7.2496,7.2496,7.2496,7.2936,7.3597,7.4404,7.5028,7.5579,7.6019,7.6555,7.7032,7.7252,7.7289,7.7105,7.6533,7.6423,7.6423,7.6423,7.6423,7.6628,7.7252,7.7289,7.7289,7.7289,7.7289,7.7582,7.8222,7.8993,7.9853,8.0645,8.1452,8.1966,8.2186,8.2186,8.2186,8.2186,8.3014,8.3491,8.3748,8.5159,8.6224,2.6177,0.0,0.0,0.0,0.0,0.0,0.0,3.4564,0.0,0.0,0.0,0.0,0.0,0.0,0.0,0.0,0.0,0.0,0.0,0.0,0.0,0.0,0.0,0.0,0.0,4.8296,4.8296,4.8296,4.8296,4.8296,4.8296,4.9554,5.0655,5.1463,5.227,5.2847,5.3214,5.3214,5.3214,5.3214,5.3214,5.3214,5.3251,5.4876,5.5585,5.5695,5.7299,5.7997,5.7997,5.7997,5.8951,6.0419,6.0419,6.1361,6.2793,6.2793,6.3356,6.4213,6.5007,6.5852,6.6623,6.7444,6.77,6.7921,6.9045,6.9743,7.033,7.149,7.2151,7.2496,7.2496,7.2496,7.2569,7.2936,7.334,7.4001,7.5139,7.5763,7.6203,7.6533,7.6995,7.7289,7.7289,7.7289,7.7142,7.6665,7.6592,7.6592,7.6592,7.6592,7.6775,7.7252,7.7289,7.7289,7.7289,7.7289,7.7656,7.8552,7.9376,8.0183,8.0975,8.1782,8.2186,8.2186,8.2186,8.237,8.27,8.3161,8.3748,8.4425,8.5343,8.6407,2.7561,2.8033,0.0,0.0,0.0,0.0,3.5819,3.4828,3.391,0.0,0.0,0.0,0.0,0.0,0.0,0.0,0.0,0.0,0.0,0.0,0.0,0.0,0.0,0.0,4.8296,4.8296,4.8296,4.8296,4.8296,4.8296,4.8296,4.9123,4.9931,5.0655,5.1536,5.2344,5.3067,5.3177,5.3214,5.3214,5.3214,5.3214,5.3251,5.4876,5.5585,5.5695,5.7299,5.7997,5.7997,5.7997,5.8951,6.0419,6.0419,6.1361,6.2793,6.2793,6.3429,6.4347,6.5031,6.5888,6.6733,6.748,6.77,6.7994,6.9596,7.011,7.044,7.2055,7.2496,7.2496,7.2496,7.2496,7.2716,7.3487,7.378,7.4258,7.5763,7.6166,7.646,7.7179,7.7289,7.7289,7.7289,7.7289,7.7289,7.7289,7.7215,7.7215,7.7289,7.7215,7.7215,7.7289,7.7289,7.7289,7.7289,7.7289,7.7693,7.8662,7.9412,8.022,8.1122,8.1819,8.2186,8.2186,8.2186,8.2627,8.3528,8.3454,8.4168,8.5673,8.5874,8.6738,2.9622,2.9732,2.991,2.9757,0.0,0.0,2.9323,3.0356,3.1941,0.0,0.0,0.0,0.0,0.0,0.0,0.0,0.0,0.0,0.0,0.0,0.0,0.0,0.0,0.0,4.8223,4.8296,4.8296,4.8296,4.8296,4.8296,4.8296,4.9123,4.9684,4.9821,5.1253,5.2097,5.2234,5.2884,5.3214,5.3214,5.3214,5.3214,5.3251,5.4876,5.5585,5.5695,5.7299,5.7997,5.7997,5.7997,5.8951,6.0419,6.0419,6.1361,6.2793,6.2793,6.3747,6.5081,6.5251,6.6256,6.748,6.7664,6.77,6.7994,6.9596,7.011,7.044,7.2055,7.2496,7.2496,7.2496,7.2496,7.2716,7.3487,7.4184,7.4918,7.5909,7.6592,7.7105,7.7289,7.7289,7.7289,7.7289,7.7289,7.7289,7.7289,7.6738,7.6555,7.7215,7.6738,7.6592,7.7252,7.7289,7.7289,7.7289,7.7289,7.7949,7.9486,7.9706,8.044,8.1893,8.2113,8.2186,8.2186,8.2186,8.292,8.4352,8.3711,8.3895,8.4866,8.6151,8.7288,3.1244,3.1091,3.1488,3.1879,0.0,0.0,0.0,0.0,0.0,0.0,0.0,0.0,0.0,0.0,0.0,0.0,0.0,0.0,0.0,0.0,0.0,0.0,0.0,0.0,4.7636,4.7709,4.7856,4.826,4.8296,4.8296,4.8296,4.871,4.916,4.961,5.0775,5.1583,5.1987,5.2821,5.3214,5.3214,5.3214,5.3214,5.3251,5.4876,5.5585,5.5695,5.7299,5.7997,5.7997,5.7997,5.8951,6.0419,6.0419,6.1361,6.2793,6.2793,6.3857,6.5288,6.5288,6.6366,6.77,6.77,6.77,6.7994,6.9596,7.066,7.1468,7.2275,7.2496,7.2496,7.2496,7.2496,7.2789,7.4001,7.461,7.5234,7.6445,7.7032,7.7289,7.7289,7.7289,7.7289,7.7289,7.7289,7.7289,7.7289,7.6959,7.6848,7.7252,7.6959,7.6848,7.7252,7.7289,7.7289,7.7289,7.7289,7.8023,7.9706,7.9816,8.0514,8.2113,8.2186,8.2186,8.2186,8.2186,8.2994,8.4609,8.4205,8.4609,8.582,8.7031,8.8023,0.0,0.0,0.0,0.0,0.0,3.1335,0.0,0.0,0.0,0.0,0.0,0.0,0.0,0.0,0.0,0.0,0.0,0.0,0.0,0.0,0.0,0.0,0.0,0.0,0.0,4.6608,4.6865,4.8003,4.7783,4.7819,4.826,4.8296,4.8636,4.9344,5.0288,5.1096,5.1767,5.27,5.3214,5.3214,5.3214,5.3214,5.3251,5.4876,5.5585,5.5695,5.7299,5.7997,5.7997,5.818,5.9098,6.0419,6.0419,6.1361,6.2793,6.2793,6.3857,6.5288,6.5288,6.6366,6.77,6.77,6.7921,6.8435,6.9889,7.1358,7.2496,7.2496,7.2496,7.2496,7.2496,7.2606,7.312,7.4536,7.5014,7.5527,7.6995,7.7289,7.7289,7.7289,7.7289,7.7289,7.7289,7.7289,7.7289,7.7289,7.7289,7.7289,7.7289,7.7289,7.7289,7.7289,7.7289,7.7289,7.7289,7.7436,7.8185,7.9706,7.9963,8.0697,8.215,8.2186,8.2186,8.2186,8.2186,8.2994,8.4609,8.4609,8.5527,8.7252,8.8059,8.8849,0.0,0.0,0.0,0.0,3.5782,0.0,0.0,0.0,0.0,0.0,0.0,0.0,0.0,0.0,0.0,0.0,0.0,0.0,0.0,0.0,0.0,0.0,0.0,0.0,0.0,4.4754,4.4819,4.7076,4.5911,4.6021,4.8186,4.8296,4.8343,4.8453,4.9994,5.0839,5.0949,5.2443,5.3214,5.3214,5.3214,5.3214,5.3251,5.4876,5.5585,5.5695,5.7299,5.7997,5.807,5.8756,5.96,6.0419,6.0419,6.1361,6.2793,6.2793,6.3857,6.5288,6.5288,6.6366,6.77,6.77,6.8655,7.0,7.0866,7.1784,7.2496,7.2496,7.2496,7.2496,7.2496,7.3046,7.378,7.4683,7.5432,7.6203,7.7105,7.7289,7.7289,7.7289,7.7289,7.7289,7.7289,7.7289,7.7289,7.7289,7.7289,7.7289,7.7289,7.7289,7.7289,7.7289,7.7289,7.7289,7.7289,7.7986,7.8846,7.9743,8.0461,8.1269,8.215,8.2186,8.2186,8.2186,8.2186,8.2994,8.4609,8.4609,8.5783,8.8096,8.8886,8.9693,0.0,0.0,0.0,0.0,0.0,0.0,3.1378,0.0,3.0491,0.0,0.0,0.0,0.0,0.0,0.0,0.0,0.0,0.0,0.0,0.0,0.0,0.0,0.0,0.0,0.0,0.0,0.0,0.0,4.4929,4.5076,4.7489,4.759,4.7819,4.8296,4.9911,5.0802,5.0802,5.2407,5.3214,5.3214,5.3214,5.3434,5.3948,5.5071,5.5842,5.6345,5.7483,5.7997,5.807,5.8866,5.9673,6.0456,6.0896,6.1802,6.2866,6.3356,6.431,6.5362,6.5852,6.6733,6.7774,6.8238,6.9155,7.0257,7.105,7.1857,7.2496,7.2496,7.2496,7.2606,7.3083,7.345,7.4001,7.5285,7.5836,7.6313,7.7142,7.7289,7.7289,7.7289,7.7289,7.7289,7.7289,7.7289,7.7289,7.7289,7.7289,7.7289,7.7289,7.7289,7.7289,7.7289,7.7289,7.7289,7.7289,7.8112,7.8919,7.9743,8.0975,8.1856,8.2186,8.2186,8.2186,8.2186,8.2186,8.2774,8.3895,8.3895,8.538,8.8206,8.9033,8.984,4.0341,0.0,0.0,0.0,0.0,0.0,0.0,0.0,0.0,0.0,0.0,0.0,0.0,0.0,0.0,0.0,0.0,0.0,0.0,0.0,0.0,0.0,0.0,0.0,0.0,0.0,0.0,0.0,0.0,4.3864,4.6929,4.7113,4.7489,4.826,4.9911,5.0802,5.0802,5.2407,5.3214,5.3214,5.3214,5.3618,5.4436,5.5218,5.6051,5.6847,5.7666,5.7997,5.807,5.9123,5.9857,6.0481,6.152,6.2291,6.2903,6.3759,6.4604,6.5398,6.6219,6.7026,6.7884,6.8898,6.9633,7.0293,7.1307,7.2041,7.2496,7.2496,7.2496,7.2679,7.3487,7.3854,7.4368,7.5763,7.6276,7.6607,7.7179,7.7289,7.7289,7.7289,7.7289,7.7289,7.7289,7.7289,7.7289,7.7289,7.7289,7.7289,7.7289,7.7289,7.7289,7.7289,7.7289,7.7399,7.7656,7.8442,7.9376,8.0404,8.1525,8.2186,8.2186,8.2186,8.2186,8.2186,8.2186,8.259,8.3381,8.3601,8.527,8.8206,8.8776,8.973,0.0,0.0,0.0,3.7522,0.0,0.0,0.0,0.0,3.2509,0.0,0.0,0.0,0.0,0.0,0.0,0.0,0.0,0.0,0.0,0.0,0.0,0.0,0.0,0.0,0.0,0.0,0.0,0.0,0.0,0.0,4.6856,4.7113,4.7489,4.826,4.9911,5.0802,5.0802,5.2407,5.3214,5.3214,5.3214,5.3618,5.4436,5.5218,5.6051,5.6847,5.7666,5.7997,5.8107,5.9722,6.0382,6.0566,6.2132,6.2793,6.2903,6.3759,6.4604,6.5398,6.6219,6.7026,6.7958,6.9573,7.0073,7.0403,7.1982,7.2496,7.2496,7.2496,7.2496,7.2679,7.3487,7.4294,7.505,7.5909,7.6702,7.7289,7.7289,7.7289,7.7289,7.7289,7.7289,7.7289,7.7289,7.7289,7.7289,7.7289,7.7289,7.7289,7.7289,7.7289,7.7289,7.7289,7.7289,7.7656,7.8479,7.9302,8.044,8.2003,8.215,8.2186,8.2186,8.2186,8.2186,8.2186,8.2186,8.259,8.3381,8.4168,8.582,8.8206,8.8243,8.9491,0.0,0.0,4.3534,4.0296,0.0,0.0,0.0,0.0,0.0,0.0,0.0,0.0,0.0,0.0,0.0,0.0,0.0,0.0,0.0,0.0,0.0,0.0,0.0,0.0,0.0,0.0,0.0,0.0,4.0349,0.0,0.0,4.6021,4.6682,4.748,4.9654,5.0802,5.0802,5.2407,5.3214,5.3214,5.3214,5.3922,5.5218,5.5475,5.6319,5.7593,5.7886,5.7997,5.8107,5.9758,6.0419,6.0566,6.2169,6.2793,6.2976,6.4383,6.5081,6.5472,6.6843,6.7797,6.8678,6.9743,7.0477,7.1101,7.2165,7.2496,7.2496,7.2496,7.2899,7.3487,7.4294,7.5102,7.5909,7.6702,7.7105,7.7289,7.7289,7.7289,7.7289,7.7289,7.7289,7.7289,7.7289,7.7289,7.7289,7.7289,7.7289,7.7289,7.7289,7.7289,7.7289,7.7289,7.7289,7.7656,7.8516,7.9837,8.1048,8.2113,8.2186,8.2186,8.2186,8.2186,8.2186,8.2186,8.2186,8.2333,8.2627,8.3434,8.4792,8.6628,8.7178,8.872,4.492,4.514,0.0,4.2131,4.0377,0.0,3.5092,0.0,0.0,0.0,0.0,0.0,0.0,0.0,0.0,0.0,0.0,0.0,0.0,0.0,0.0,0.0,0.0,0.0,0.0,0.0,3.758,4.0157,3.9284,0.0,0.0,0.0,4.6287,4.7076,4.9507,5.0802,5.0802,5.2407,5.3214,5.3214,5.3471,5.4326,5.5622,5.5915,5.6748,5.7997,5.7997,5.8143,5.8547,5.9869,6.0566,6.097,6.2279,6.2976,6.3429,6.4811,6.5655,6.6292,6.7333,6.8238,6.9045,6.9853,7.066,7.1454,7.2275,7.2496,7.2569,7.2863,7.3303,7.3927,7.5028,7.5726,7.6313,7.7105,7.7289,7.7289,7.7289,7.7289,7.7289,7.7289,7.7289,7.7289,7.7289,7.7289,7.7289,7.7289,7.7289,7.7289,7.7289,7.7289,7.7436,7.7729,7.7766,7.8206,7.936,8.0681,8.1636,8.215,8.2186,8.2186,8.2186,8.2186,8.2186,8.2186,8.2186,8.2333,8.2627,8.3434,8.4646,8.6261,8.7068,8.828]}]]